Date StartTime U_cm/s V_cm/s W_cm/s Ustd_cm/s Vstd_cm/s Wstd_cm/s Uvar_(cm/s)^2 Vvar_(cm/s)^2 Wvar_(cm/s)^2 KE_(m/s)^2 TurbulentKE_(m/s)^2 HorizWindSpeed_cm/s FrictionSpeec_cm/s DragCoef SpeedOfSound_m/s SonicTemperature_C Pressure_mb 
03/05/2014  00:00:00       21.757       16.798       30.411       28.651       28.143       22.895      820.907      792.049      524.202        0.191        0.107       27.487       16.574        0.364      337.374        9.305      861.931
03/05/2014  00:01:00       14.651        9.676       36.214       32.629       29.450       18.018     1064.637      867.282      324.654        0.194        0.113       17.558       11.611        0.437      337.370        9.299      861.943
03/05/2014  00:02:00       58.263      -15.853       40.808       72.794       51.151       38.718     5298.921     2616.411     1499.059        0.736        0.471       60.381       43.311        0.514      337.276        9.141      861.946
03/05/2014  00:03:00      101.363      -52.876       25.046       68.759       81.600       57.185     4727.836     6658.563     3270.126        1.417        0.733      114.326       58.069        0.258      337.108        8.860      861.952
03/05/2014  00:04:00       50.304       30.157       74.939       61.252       65.487       52.449     3751.825     4288.484     2750.865        0.992        0.540       58.651       42.453        0.524      337.015        8.704      861.943
03/05/2014  00:05:00       42.122       27.373       74.780       53.571       65.561       58.589     2869.859     4298.274     3432.693        0.936        0.530       50.235       51.760        1.062      336.988        8.657      861.910
03/05/2014  00:06:00       12.679       61.766       92.385       42.256       53.746       40.528     1785.574     2888.622     1642.516        0.941        0.316       63.054       39.819        0.399      336.977        8.640      861.862
03/05/2014  00:07:00       84.057      -46.838       22.100       58.360       61.544       41.651     3405.925     3787.609     1734.836        0.934        0.446       96.226       45.731        0.226      336.945        8.587      861.840
03/05/2014  00:08:00       56.737      -65.143       14.190       51.157       41.115       37.845     2617.013     1690.441     1432.256        0.670        0.287       86.387       33.493        0.150      336.997        8.673      861.818
03/05/2014  00:09:00       82.345      -57.713       15.319       61.817       61.275       39.443     3821.306     3754.685     1555.713        0.974        0.457      100.556       38.051        0.143      336.964        8.618      861.795
03/05/2014  00:10:00       92.402      -93.529        0.601       39.505       27.689       25.385     1560.635      766.688      644.420        1.013        0.149      131.475       18.079        0.019      336.991        8.663      861.809
03/05/2014  00:11:00      101.689     -131.571      -26.190       43.426       45.667       29.860     1885.785     2085.452      891.599        1.660        0.243      166.287       14.294        0.007      337.015        8.701      861.794
03/05/2014  00:12:00      109.201     -155.414      -20.830       41.450       44.053       28.507     1718.133     1940.693      812.652        2.049        0.224      189.943       24.838        0.017      337.021        8.713      861.790
03/05/2014  00:13:00       52.593      -54.395        2.867       66.079       80.204       55.711     4366.495     6432.717     3103.760        0.982        0.695       75.662       41.336        0.298      337.127        8.889      861.786
03/05/2014  00:14:00       15.843       27.277       55.810       34.420       35.210       28.194     1184.757     1239.738      794.891        0.366        0.161       31.544       15.137        0.230      337.084        8.818      861.785
03/05/2014  00:15:00       22.427       10.615       46.342       33.332       45.715       19.507     1111.038     2089.820      380.522        0.317        0.179       24.813       18.678        0.567      337.034        8.735      861.782
03/05/2014  00:16:00        1.171      -19.523       16.207       17.507       22.491       20.461      306.499      505.829      418.634        0.094        0.062       19.558       13.157        0.453      337.168        8.961      861.794
03/05/2014  00:17:00        5.886       -2.075       20.641       21.102       24.254       18.695      445.290      588.264      349.486        0.092        0.069        6.241       11.191        3.215      337.199        9.013      861.827
03/05/2014  00:18:00       11.043        3.726       29.256       23.376       44.428       23.901      546.459     1973.831      571.266        0.204        0.155       11.655       30.544        6.868      337.093        8.834      861.837
03/05/2014  00:19:00        0.336       65.181       90.682       27.333       44.575       25.856      747.076     1986.920      668.534        0.794        0.170       65.182       27.788        0.182      337.070        8.795      861.837
03/05/2014  00:20:00       33.103       43.854       60.196       38.877       43.650       38.242     1511.450     1905.346     1462.454        0.576        0.244       54.946       31.714        0.333      337.064        8.785      861.842
03/05/2014  00:21:00       37.942      -32.935       14.070       32.814       48.340       36.325     1076.762     2336.791     1319.477        0.373        0.237       50.243       40.436        0.648      337.055        8.768      861.859
03/05/2014  00:22:00       49.807     -100.550      -21.138       48.255       36.589       20.035     2328.570     1338.753      401.389        0.855        0.203      112.210       16.641        0.022      337.120        8.880      861.856
03/05/2014  00:23:00       53.076      -57.619        2.477       50.748       39.536       32.672     2575.398     1563.083     1067.450        0.567        0.260       78.338       27.917        0.127      337.036        8.738      861.841
03/05/2014  00:24:00       43.337      -99.566      -11.548       40.451       28.478       26.481     1636.244      810.977      701.226        0.754        0.157      108.589       19.665        0.033      337.119        8.878      861.839
03/05/2014  00:25:00       -0.908      -52.955        3.264       23.680       28.901       27.250      560.748      835.262      742.538        0.248        0.107       52.963       13.788        0.068      337.108        8.859      861.840
03/05/2014  00:26:00       -0.779      -22.145        1.768       22.123       24.371       14.069      489.443      593.943      197.927        0.089        0.064       22.158       11.845        0.286      337.102        8.848      861.837
03/05/2014  00:27:00        0.456      -27.846       -1.540       28.444       29.435       15.008      809.074      866.399      225.243        0.134        0.095       27.850       16.526        0.352      337.069        8.793      861.814
03/05/2014  00:28:00      -69.679      -41.931        8.851       46.216       36.992       26.868     2135.959     1368.431      721.896        0.546        0.211       81.322       28.667        0.124      337.170        8.963      861.789
03/05/2014  00:29:00     -102.225      -86.058       -7.440       20.057       21.379       17.389      402.280      457.041      302.391        0.954        0.058      133.626       11.309        0.007      337.043        8.750      861.799
03/05/2014  00:30:00      -92.907      -53.356        6.989       50.584       37.214       22.424     2558.785     1384.887      502.828        0.799        0.222      107.138       25.821        0.058      337.067        8.789      861.831
03/05/2014  00:31:00     -146.949      -31.287       -3.636       58.978       43.044       29.795     3478.381     1852.807      887.743        1.440        0.311      150.242       26.181        0.030      337.000        8.677      861.857
03/05/2014  00:32:00     -143.365      -20.075        1.068       63.151       43.444       31.038     3988.081     1887.368      963.371        1.390        0.342      144.764       30.085        0.043      337.029        8.724      861.868
03/05/2014  00:33:00     -107.782      -72.703        5.563       60.785       41.670       32.148     3694.821     1736.368     1033.484        1.170        0.323      130.010       33.540        0.067      336.902        8.514      861.877
03/05/2014  00:34:00      -90.883      -51.491        1.033       78.703       47.189       29.854     6194.139     2226.819      891.243        1.011        0.466      104.456       37.187        0.127      336.905        8.518      861.882
03/05/2014  00:35:00     -115.557      -67.565       -9.513       66.888       38.067       26.719     4474.034     1449.103      713.889        1.232        0.332      133.860       33.050        0.061      336.890        8.496      861.895
03/05/2014  00:36:00     -151.979      -29.612       -0.617       47.076       37.588       26.399     2216.140     1412.827      696.932        1.415        0.216      154.837       24.187        0.024      336.854        8.434      861.939
03/05/2014  00:37:00     -155.376      -24.676        0.299       60.354       39.933       34.125     3642.612     1594.625     1164.508        1.558        0.320      157.323       36.923        0.055      336.819        8.375      861.987
03/05/2014  00:38:00      -95.423      -52.275        9.030       52.673       63.502       26.264     2774.431     4032.445      689.819        0.971        0.375      108.804       19.891        0.033      336.848        8.425      862.011
03/05/2014  00:39:00      -92.779      -74.890       -1.201       79.181       55.150       31.811     6269.660     3041.485     1011.933        1.227        0.516      119.233       32.835        0.076      336.814        8.369      862.020
03/05/2014  00:40:00      -82.575      -64.197        1.397       68.108       51.348       33.640     4638.698     2636.644     1131.634        0.967        0.420      104.594       38.463        0.135      336.871        8.464      862.027
03/05/2014  00:41:00      -72.372      -25.841        3.667       35.572       30.268       25.777     1265.386      916.125      664.460        0.438        0.142       76.847       21.646        0.079      336.885        8.486      862.036
03/05/2014  00:42:00     -104.110      -22.624       -1.813       39.096       32.789       22.023     1528.523     1075.141      485.003        0.722        0.154      106.540       19.638        0.034      336.895        8.503      862.058
03/05/2014  00:43:00     -102.555       -1.157        1.079       30.221       33.206       23.144      913.307     1102.631      535.623        0.654        0.128      102.562       15.164        0.022      337.004        8.685      862.082
03/05/2014  00:44:00     -114.181      -10.186       -6.146       47.794       45.291       27.123     2284.252     2051.290      735.678        0.912        0.254      114.635       26.984        0.055      336.960        8.612      862.097
03/05/2014  00:45:00      -78.821      -45.345        0.429       52.850       25.317       27.102     2793.109      640.939      734.540        0.622        0.208       90.933       25.761        0.080      336.820        8.377      862.095
03/05/2014  00:46:00     -149.062      -30.253       -3.387       44.256       36.190       20.774     1958.577     1309.695      431.553        1.342        0.185      152.101       21.953        0.021      336.812        8.363      862.092
03/05/2014  00:47:00      -98.177      -54.831       -0.745       38.755       39.732       21.407     1501.972     1578.661      458.243        0.809        0.177      112.451       16.367        0.021      336.816        8.372      862.101
03/05/2014  00:48:00      -69.824      -22.574       -1.818       26.797       23.825       16.599      718.103      567.611      275.525        0.347        0.078       73.383        9.944        0.018      336.894        8.502      862.108
03/05/2014  00:49:00     -101.262      -61.207        2.466       50.915       42.482       25.315     2592.354     1804.701      640.828        0.952        0.252      118.323       20.203        0.029      336.923        8.550      862.121
03/05/2014  00:50:00      -66.154      -98.338       -5.780       41.053       26.706       24.124     1685.313      713.186      581.969        0.853        0.149      118.518       22.375        0.036      336.926        8.555      862.107
03/05/2014  00:51:00      -50.185      -64.509       -0.547       38.498       37.456       21.847     1482.088     1402.950      477.285        0.502        0.168       81.730       24.248        0.088      336.986        8.655      862.083
03/05/2014  00:52:00      -84.458      -70.722       -1.281       22.921       25.904       19.133      525.392      671.039      366.078        0.685        0.078      110.158       15.097        0.019      336.973        8.632      862.076
03/05/2014  00:53:00      -64.301      -60.522       -5.073       44.139       32.039       18.453     1948.232     1026.487      340.496        0.557        0.166       88.303       21.630        0.060      337.022        8.715      862.084
03/05/2014  00:54:00      -69.144      -70.309       -0.387       39.318       31.576       21.586     1545.889      997.021      465.959        0.637        0.150       98.611       22.284        0.051      337.048        8.759      862.080
03/05/2014  00:55:00      -73.112      -95.875       -2.493       42.186       26.815       23.683     1779.696      719.035      560.897        0.880        0.153      120.571       23.073        0.037      337.043        8.749      862.066
03/05/2014  00:56:00      -42.375      -88.105       -5.114       24.792       34.073       18.501      614.659     1160.985      342.271        0.585        0.106       97.766       13.399        0.019      337.061        8.779      862.043
03/05/2014  00:57:00      -53.563     -109.514       -3.715       27.302       36.695       24.452      745.421     1346.546      597.918        0.878        0.134      121.911       16.279        0.018      337.085        8.819      862.038
03/05/2014  00:58:00      -85.539      -91.537       -5.695       37.984       28.485       23.018     1442.807      811.383      529.842        0.926        0.139      125.284       20.242        0.026      337.112        8.864      862.052
03/05/2014  00:59:00      -73.267      -67.742       -0.982       40.819       51.609       21.911     1666.217     2663.458      480.109        0.738        0.240       99.785       14.650        0.022      337.094        8.835      862.073
03/05/2014  01:00:00      -69.135      -52.517        2.567       44.283       32.296       22.680     1960.941     1043.028      514.363        0.553        0.176       86.820       22.973        0.070      337.092        8.832      862.081
03/05/2014  01:01:00      -82.999      -60.265        2.774       31.463       25.893       16.988      989.904      670.450      288.597        0.624        0.097      102.571        8.780        0.007      337.095        8.836      862.091
03/05/2014  01:02:00      -55.283      -43.887        1.539       31.096       27.299       14.540      966.966      745.242      211.402        0.345        0.096       70.585       14.857        0.044      337.162        8.951      862.088
03/05/2014  01:03:00      -45.532      -42.024        2.646       24.031       21.540       14.532      577.475      463.969      211.182        0.255        0.063       61.961       14.491        0.055      337.210        9.031      862.079
03/05/2014  01:04:00      -30.584      -52.046       -3.928       15.836       15.266       11.205      250.768      233.064      125.548        0.213        0.030       60.367        7.491        0.015      337.200        9.013      862.063
03/05/2014  01:05:00      -44.248      -41.970        1.056       13.782       16.196       11.301      189.930      262.305      127.712        0.215        0.029       60.987        8.494        0.019      337.209        9.029      862.074
03/05/2014  01:06:00       12.664       14.089       13.848       21.639       18.981       11.060      468.265      360.269      122.316        0.075        0.048       18.945       10.568        0.311      337.198        9.011      862.075
03/05/2014  01:07:00       18.831       41.494       22.316       28.379       31.650       28.538      805.387     1001.698      814.443        0.260        0.131       45.567       24.972        0.300      337.222        9.051      862.063
03/05/2014  01:08:00       63.489       24.006       13.756       49.142       32.943       36.775     2414.899     1085.256     1352.370        0.482        0.243       67.876       29.202        0.185      337.037        8.739      862.036
03/05/2014  01:09:00      102.304       45.480        8.468       44.603       36.896       30.409     1989.468     1361.311      924.688        0.844        0.214      111.958       13.649        0.015      336.956        8.604      862.013
03/05/2014  01:10:00       42.909       64.764       59.141       58.585       34.144       41.573     3432.197     1165.816     1728.294        0.793        0.316       77.688       42.017        0.293      336.932        8.563      861.991
03/05/2014  01:11:00       66.858      117.299       83.257       48.432       31.847       27.387     2345.663     1014.237      750.043        1.463        0.205      135.015       21.425        0.025      336.916        8.538      861.985
03/05/2014  01:12:00      113.592      105.108       66.520       55.666       46.704       46.255     3098.667     2181.220     2139.561        1.790        0.371      154.760       44.134        0.081      336.895        8.502      861.981
03/05/2014  01:13:00       96.452      103.830       82.706       60.373       52.667       46.559     3644.858     2773.824     2167.731        1.775        0.429      141.717       41.141        0.084      336.807        8.356      861.951
03/05/2014  01:14:00       70.420       89.143       74.033       53.519       42.154       43.792     2864.248     1776.920     1917.699        1.247        0.328      113.602       34.269        0.091      336.764        8.285      861.933
03/05/2014  01:15:00       60.763       70.139       67.674       51.657       40.371       39.708     2668.412     1629.781     1576.719        0.953        0.294       92.799       33.273        0.129      336.769        8.294      861.924
03/05/2014  01:16:00       84.234       42.903       49.123       65.355       45.869       34.582     4271.252     2103.963     1195.939        0.946        0.379       94.531       40.784        0.186      336.821        8.380      861.921
03/05/2014  01:17:00       72.338       49.351       32.416       55.804       28.236       34.850     3114.082      797.286     1214.517        0.692        0.256       87.569       35.377        0.163      336.836        8.406      861.932
03/05/2014  01:18:00       27.210       22.430       20.017       20.514       18.057       17.222      420.816      326.039      296.609        0.134        0.052       35.264        9.831        0.078      336.863        8.449      861.963
03/05/2014  01:19:00       59.904       31.724       12.817       27.748       16.230       18.657      769.930      263.409      348.089        0.307        0.069       67.786       14.700        0.047      336.860        8.446      861.988
03/05/2014  01:20:00       49.987       34.223        5.321       22.760       13.644       18.843      518.018      186.158      355.070        0.238        0.053       60.580        9.820        0.026      336.846        8.422      861.985
03/05/2014  01:21:00       48.015       36.057       15.899       14.300       14.726       15.863      204.482      216.845      251.635        0.227        0.034       60.046        9.686        0.026      336.826        8.387      861.989
03/05/2014  01:22:00       38.799       41.314        3.985       11.462       11.266       11.759      131.368      126.925      138.263        0.181        0.020       56.676        4.132        0.005      336.859        8.445      861.990
03/05/2014  01:23:00       21.323       29.665        8.052       23.875       12.906       14.490      570.014      166.565      209.962        0.117        0.047       36.533        3.134        0.007      336.925        8.553      862.020
03/05/2014  01:24:00      -42.400        6.414        4.834       22.715       24.972       12.470      515.953      623.581      155.495        0.158        0.065       42.883       11.238        0.069      337.075        8.803      862.050
03/05/2014  01:25:00      -35.580        5.966        3.209       27.635       21.489       17.495      763.684      461.774      306.060        0.142        0.077       36.077       15.318        0.180      337.260        9.115      862.076
03/05/2014  01:26:00      -80.390       34.985       -8.315       18.202       24.117       19.394      331.303      581.637      376.130        0.452        0.064       87.673       10.835        0.015      337.297        9.176      862.097
03/05/2014  01:27:00      -98.645       25.822        0.832       24.541       28.659       18.517      602.259      821.331      342.886        0.608        0.088      101.968       15.164        0.022      337.346        9.257      862.125
03/05/2014  01:28:00      -48.048       12.921      -13.047       38.345       28.655       16.464     1470.327      821.107      271.067        0.260        0.128       49.755        9.280        0.035      337.304        9.189      862.165
03/05/2014  01:29:00      -16.912       54.183       -5.428       28.358       24.894       18.713      804.203      619.689      350.169        0.251        0.089       56.761       14.702        0.067      337.248        9.095      862.198
03/05/2014  01:30:00        9.418       30.390       -1.115       25.286       30.050       18.163      639.381      902.996      329.905        0.144        0.094       31.816       18.876        0.352      337.134        8.902      862.219
03/05/2014  01:31:00       30.345       61.561       -6.725       25.226       26.713       18.355      636.332      713.572      336.902        0.322        0.084       68.634       14.915        0.047      337.050        8.762      862.207
03/05/2014  01:32:00       57.177       35.806       -1.159       17.571       15.959       11.741      308.726      254.685      137.858        0.263        0.035       67.463        4.500        0.004      336.994        8.669      862.185
03/05/2014  01:33:00       67.930       48.981        4.279       23.699       17.782       15.056      561.663      316.199      226.669        0.407        0.055       83.748       13.166        0.025      337.015        8.704      862.190
03/05/2014  01:34:00      -26.467       26.806      -11.737       26.395       27.604        9.803      696.693      761.988       96.096        0.156        0.078       37.671        8.684        0.053      337.139        8.909      862.252
03/05/2014  01:35:00      -72.523       33.694       -3.516       35.125       24.670       20.694     1233.756      608.596      428.257        0.434        0.114       79.968       19.138        0.057      337.270        9.130      862.310
03/05/2014  01:36:00       66.077       63.218        7.120       64.150       19.598       24.453     4115.246      384.071      597.949        0.675        0.255       91.448       19.625        0.046      337.154        8.936      862.291
03/05/2014  01:37:00       75.571      123.321       82.552       59.785       62.675       58.713     3574.266     3928.099     3447.158        1.934        0.547      144.634       52.499        0.132      337.098        8.842      862.248
03/05/2014  01:38:00       46.050      112.646      106.812       49.279       53.691       34.200     2428.376     2882.718     1169.656        1.635        0.324      121.695       31.365        0.066      337.082        8.814      862.233
03/05/2014  01:39:00       59.090       39.328       53.661       47.400       50.743       36.095     2246.791     2574.891     1302.823        0.702        0.306       70.981       27.058        0.145      337.122        8.882      862.206
03/05/2014  01:40:00       46.745      -25.574        6.035       25.553       36.196       20.612      652.932     1310.180      424.856        0.263        0.119       53.284       19.487        0.134      337.104        8.852      862.218
03/05/2014  01:41:00       22.742       33.371       -2.587       24.160       24.031       15.785      583.726      577.480      249.164        0.152        0.071       40.384        9.093        0.051      337.065        8.786      862.220
03/05/2014  01:42:00       73.692       68.234       27.364       33.348       15.982       17.469     1112.100      255.435      305.158        0.625        0.084      100.431       15.587        0.024      337.084        8.818      862.233
03/05/2014  01:43:00      135.937       78.447        6.646       36.394       32.523       24.257     1324.530     1057.723      588.384        1.382        0.149      156.948        8.455        0.003      337.071        8.795      862.192
03/05/2014  01:44:00       21.849       63.388       77.160       64.186       37.880       32.236     4119.785     1434.890     1039.143        0.852        0.330       67.048       34.604        0.266      337.098        8.843      862.153
03/05/2014  01:45:00       41.666       24.617       -0.817       29.636       29.745       26.435      878.295      884.774      698.816        0.240        0.123       48.395       16.925        0.122      336.921        8.546      862.205
03/05/2014  01:46:00      -71.848       28.335       -8.585       40.774       34.396       26.698     1662.479     1183.059      712.784        0.480        0.178       77.233       20.078        0.068      337.204        9.020      862.258
03/05/2014  01:47:00      -20.103       81.086       -0.586       39.100       40.409       26.058     1528.788     1632.895      679.036        0.541        0.192       83.541       17.086        0.042      337.187        8.992      862.230
03/05/2014  01:48:00       69.484       70.402        6.423       44.861       47.463       32.286     2012.503     2252.752     1042.355        0.757        0.265       98.916       25.619        0.067      337.028        8.724      862.182
03/05/2014  01:49:00      179.628      115.562       18.166       69.199       40.489       32.547     4788.468     1639.321     1059.333        2.672        0.374      213.590       15.067        0.005      337.045        8.751      862.174
03/05/2014  01:50:00       34.939       45.266       71.488       75.123       68.911       43.610     5643.457     4748.753     1901.860        1.034        0.615       57.182       38.931        0.464      337.131        8.896      862.174
03/05/2014  01:51:00       -2.243      -35.380       51.348       35.638       62.409       24.007     1270.066     3894.843      576.332        0.482        0.287       35.451       17.912        0.255      337.208        9.029      862.226
03/05/2014  01:52:00       38.678      -13.538       37.042       42.966       60.068       37.341     1846.049     3608.221     1394.370        0.495        0.342       40.979       42.884        1.095      337.251        9.098      862.206
03/05/2014  01:53:00       28.029        5.975       38.534       37.886       51.599       29.462     1435.350     2662.458      867.997        0.364        0.248       28.659       32.550        1.290      337.293        9.169      862.198
03/05/2014  01:54:00       -5.612      -26.338      -15.931       39.681       33.049       29.181     1574.554     1092.206      851.541        0.225        0.176       26.929       21.115        0.615      337.403        9.354      862.198
03/05/2014  01:55:00       20.340       43.801       53.785       35.493       36.912       28.169     1259.732     1362.499      793.481        0.432        0.171       48.294       27.358        0.321      337.340        9.247      862.155
03/05/2014  01:56:00       32.262       42.491       35.370       24.016       24.788       21.586      576.773      614.459      465.965        0.288        0.083       53.351       14.794        0.077      337.166        8.958      862.163
03/05/2014  01:57:00       33.558       15.880       22.317       32.560       24.154       27.536     1060.140      583.423      758.222        0.214        0.120       37.125       26.230        0.499      337.256        9.108      862.144
03/05/2014  01:58:00      -12.405       24.098       62.786       22.230       24.808       20.975      494.164      615.444      439.936        0.311        0.077       27.104       17.529        0.418      337.209        9.029      862.115
03/05/2014  01:59:00      -24.704        4.599       19.318       26.116       28.516       19.749      682.032      813.160      390.028        0.144        0.094       25.128       21.493        0.732      337.340        9.249      862.147
03/05/2014  02:00:00        4.577      -46.456       23.662       46.859       50.864       25.418     2195.722     2587.100      646.076        0.408        0.271       46.681       26.226        0.316      337.413        9.369      862.203
03/05/2014  02:01:00        5.534        7.154       60.334       38.958       89.745       63.436     1517.753     8054.254     4024.107        0.866        0.680        9.045       64.872       51.443      337.296        9.174      862.118
03/05/2014  02:02:00       27.702      115.672      162.964       74.922       92.400       53.056     5613.257     8537.696     2814.971        2.883        0.848      118.943       58.513        0.242      337.183        8.983      861.985
03/05/2014  02:03:00       20.673       38.099       79.693       65.534       66.221       45.223     4294.742     4385.257     2045.095        0.948        0.536       43.347       36.199        0.697      337.186        8.990      861.955
03/05/2014  02:04:00       18.614      -86.692       14.176       58.053      110.244       43.391     3370.109    12153.822     1882.757        1.273        0.870       88.668       57.917        0.427      337.178        8.977      861.987
03/05/2014  02:05:00       50.797      -13.199       26.087       43.192       62.451       41.959     1865.591     3900.100     1760.584        0.548        0.376       52.484       42.482        0.655      337.176        8.973      862.016
03/05/2014  02:06:00        6.259       90.096      132.650       43.037       69.574       33.959     1852.171     4840.512     1153.225        1.680        0.392       90.313       40.859        0.205      337.085        8.821      861.950
03/05/2014  02:07:00       33.027       35.596       71.667       53.106       62.186       43.386     2820.262     3867.047     1882.345        0.803        0.428       48.558       48.848        1.012      337.023        8.716      861.908
03/05/2014  02:08:00       71.679      -48.816       32.544       73.453       68.414       32.589     5395.380     4680.477     1062.025        0.986        0.557       86.723       48.198        0.309      337.001        8.679      861.914
03/05/2014  02:09:00       56.580       27.803       86.984       83.538      111.879       86.670     6978.670    12516.914     7511.665        1.927        1.350       63.042       96.414        2.339      336.926        8.553      861.873
03/05/2014  02:10:00       61.174      -32.354       64.453       72.958      108.626       77.384     5322.804    11799.675     5988.347        1.602        1.156       69.203       69.873        1.019      336.889        8.492      861.870
03/05/2014  02:11:00      181.141     -212.204      -37.132       86.499      105.097       52.485     7481.999    11045.472     2754.659        5.025        1.064      279.003       57.937        0.043      336.893        8.497      861.894
03/05/2014  02:12:00      125.144     -176.388       -7.176       92.597      117.695       46.852     8574.268    13852.221     2195.101        3.572        1.231      216.272       60.169        0.077      336.891        8.495      861.852
03/05/2014  02:13:00       91.626     -123.442      -11.851       74.023       65.530       40.866     5479.478     4294.178     1670.039        1.761        0.572      153.731       40.162        0.068      336.934        8.566      861.852
03/05/2014  02:14:00       -1.030      -18.218       23.094       13.514       68.985       27.774      182.621     4758.964      771.415        0.329        0.286       18.247       38.281        4.401      336.927        8.556      861.856
03/05/2014  02:15:00       36.248      -40.029        4.335       45.642       34.699       24.643     2083.218     1204.036      607.256        0.341        0.195       54.002       17.477        0.105      337.022        8.716      861.869
03/05/2014  02:16:00       75.729       39.963       57.376       45.098       40.231       29.394     2033.841     1618.541      863.993        0.757        0.226       85.627       16.430        0.037      336.898        8.509      861.848
03/05/2014  02:17:00       64.462        3.787       30.972       25.518       26.165       31.591      651.184      684.614      997.978        0.373        0.117       64.573       23.563        0.133      336.904        8.517      861.876
03/05/2014  02:18:00       40.282       29.871       22.984       34.177       29.820       26.040     1168.077      889.243      678.078        0.289        0.137       50.149       20.131        0.161      336.895        8.503      861.913
03/05/2014  02:19:00       21.150       22.547        8.682       22.745       17.258       18.570      517.317      297.836      344.830        0.110        0.058       30.914       14.728        0.227      336.881        8.479      861.933
03/05/2014  02:20:00       28.709       23.978        8.886       25.616       15.310       12.970      656.159      234.410      168.231        0.127        0.053       37.405       10.236        0.075      336.802        8.348      861.920
03/05/2014  02:21:00       57.664       48.632       34.333       46.868       33.011       22.490     2196.646     1089.756      505.778        0.533        0.190       75.434        8.325        0.012      336.822        8.382      861.875
03/05/2014  02:22:00       87.956      102.293       73.915       52.587       34.890       42.875     2765.428     1217.285     1838.273        1.474        0.291      134.908       38.217        0.080      336.838        8.408      861.840
03/05/2014  02:23:00       19.326       40.761       85.264       43.091       55.902       44.666     1856.867     3125.013     1995.042        0.814        0.349       45.111       30.478        0.456      336.885        8.485      861.839
03/05/2014  02:24:00       34.201      190.865      204.697       75.110      116.065       69.133     5641.566    13471.092     4779.423        5.169        1.195      193.905       77.640        0.160      336.849        8.424      861.790
03/05/2014  02:25:00      125.136       73.809      126.064      111.856      114.771       76.904    12511.774    13172.327     5914.267        3.429        1.580      145.281       82.070        0.319      336.861        8.442      861.727
03/05/2014  02:26:00      148.195       32.365      104.484      104.956      126.578       90.984    11015.777    16021.984     8278.078        3.462        1.766      151.688       92.774        0.374      336.854        8.431      861.698
03/05/2014  02:27:00       49.553       63.519      119.880       76.821       75.263       66.728     5901.527     5664.478     4452.584        1.844        0.801       80.561       63.750        0.626      336.891        8.494      861.716
03/05/2014  02:28:00       58.096      -40.178       16.517       59.149       58.040       36.891     3498.605     3368.634     1360.970        0.674        0.411       70.636       36.156        0.262      336.908        8.524      861.745
03/05/2014  02:29:00       39.795     -115.859        4.301       98.783       71.279       41.309     9757.999     5080.682     1706.405        1.578        0.827      122.503       29.644        0.059      336.889        8.492      861.730
03/05/2014  02:30:00     -139.701       -1.821        0.610       57.103       43.081       28.939     3260.788     1856.011      837.461        1.274        0.298      139.713       25.095        0.032      336.932        8.564      861.719
03/05/2014  02:31:00     -137.694      -11.360      -10.826       54.492       47.796       29.676     2969.422     2284.439      880.656        1.267        0.307      138.162       15.334        0.012      337.006        8.688      861.703
03/05/2014  02:32:00      -89.898      -54.667       -5.072       73.638       34.827       32.369     5422.491     1212.940     1047.723        0.939        0.384      105.214       35.890        0.116      336.895        8.504      861.687
03/05/2014  02:33:00      -83.809      -55.369      -14.998       26.382       14.482       18.793      696.014      209.733      353.175        0.579        0.063      100.448       15.216        0.023      336.899        8.510      861.649
03/05/2014  02:34:00      -44.998      -23.382       -3.310       31.779       30.156       15.599     1009.913      909.358      243.333        0.237        0.108       50.710       17.757        0.123      336.843        8.418      861.608
03/05/2014  02:35:00      -42.808      -26.638        3.875       25.695       26.493       20.028      660.247      701.897      401.118        0.216        0.088       50.420        5.451        0.012      336.934        8.568      861.573
03/05/2014  02:36:00       15.821        8.731       21.428       26.335       27.790       15.665      693.541      772.269      245.397        0.125        0.086       18.071       16.314        0.815      336.982        8.648      861.549
03/05/2014  02:37:00       42.324       43.081       14.307       25.169       17.247       22.242      633.482      297.455      494.725        0.264        0.071       60.393       12.067        0.040      336.923        8.551      861.560
03/05/2014  02:38:00        9.365       34.675       37.303       26.155       25.030       23.775      684.088      626.525      565.255        0.228        0.094       35.917       19.543        0.296      336.960        8.611      861.589
03/05/2014  02:39:00       -0.807       61.113       83.815       23.007       41.944       22.059      529.299     1759.261      486.620        0.677        0.139       61.118       26.143        0.183      336.954        8.602      861.588
03/05/2014  02:40:00       10.065       53.258       77.183       30.620       36.281       21.146      937.601     1316.336      447.161        0.580        0.135       54.201       22.174        0.167      336.915        8.536      861.570
03/05/2014  02:41:00       27.428       45.201       62.677       30.556       30.031       25.488      933.686      901.866      649.655        0.460        0.124       52.872       15.627        0.087      336.932        8.563      861.566
03/05/2014  02:42:00       11.541       12.065       48.749       23.650       45.969       23.257      559.329     2113.139      540.873        0.293        0.161       16.696       28.359        2.885      336.955        8.604      861.592
03/05/2014  02:43:00        4.465      -31.398       12.330       27.265       27.296       22.308      743.397      745.048      497.663        0.157        0.099       31.714       16.247        0.262      336.987        8.656      861.608
03/05/2014  02:44:00       60.990      -67.298       -2.884       37.026       43.230       20.950     1370.903     1868.815      438.883        0.597        0.184       90.823       24.963        0.076      336.915        8.536      861.603
03/05/2014  02:45:00       27.597       -3.690       27.494       34.155       32.117       26.538     1166.574     1031.515      704.290        0.222        0.145       27.843       26.899        0.933      336.917        8.539      861.596
03/05/2014  02:46:00       31.113       14.549       37.899       27.975       32.780       22.070      782.608     1074.559      487.105        0.248        0.117       34.347       21.230        0.382      336.900        8.512      861.602
03/05/2014  02:47:00        5.865       19.136       40.883       20.845       20.977       18.001      434.507      440.020      324.018        0.164        0.060       20.015       12.513        0.391      336.904        8.517      861.615
03/05/2014  02:48:00       18.722       -2.275       35.181       27.156       37.567       22.539      737.464     1411.261      508.008        0.212        0.133       18.859       24.680        1.713      336.924        8.550      861.642
03/05/2014  02:49:00       37.258      -31.774       18.939       32.496       59.899       35.583     1055.960     3587.921     1266.142        0.433        0.296       48.967       35.193        0.517      336.975        8.637      861.655
03/05/2014  02:50:00        0.389        9.262       50.542       18.989       27.612       15.955      360.593      762.423      254.564        0.201        0.069        9.270       12.839        1.918      336.920        8.544      861.657
03/05/2014  02:51:00        9.046       -2.573       20.278       21.882       27.444       25.040      478.835      753.160      626.989        0.118        0.093        9.404       21.302        5.131      336.978        8.641      861.677
03/05/2014  02:52:00       -5.891        5.439       34.484       10.185       20.155       16.620      103.743      406.213      276.208        0.102        0.039        8.018       13.651        2.899      336.939        8.577      861.695
03/05/2014  02:53:00        4.322      -13.341       22.787       19.673       25.964       18.697      387.027      674.114      349.562        0.106        0.071       14.023       12.528        0.798      336.943        8.585      861.693
03/05/2014  02:54:00       34.473      -66.379       -4.582       35.026       49.681       31.378     1226.827     2468.157      984.591        0.515        0.234       74.796       24.494        0.107      336.960        8.612      861.706
03/05/2014  02:55:00       66.048      -32.175       15.629       47.123       55.599       42.316     2220.546     3091.235     1790.656        0.637        0.355       73.469       36.152        0.242      336.860        8.445      861.701
03/05/2014  02:56:00       12.787       47.102       85.698       40.069       47.373       39.157     1605.526     2244.212     1533.288        0.755        0.269       48.807       32.851        0.453      336.840        8.412      861.666
03/05/2014  02:57:00       63.234     -117.313      -23.135       45.834       55.167       33.702     2100.730     3043.430     1135.851        1.229        0.314      133.270       26.389        0.039      336.920        8.544      861.674
03/05/2014  02:58:00        5.109      -53.576        5.124       43.951       33.267       21.820     1931.729     1106.692      476.134        0.322        0.176       53.819       21.345        0.157      336.980        8.644      861.688
03/05/2014  02:59:00      -28.053      -18.457       -9.787       24.790       29.854       19.559      614.527      891.277      382.560        0.156        0.094       33.580       18.465        0.302      337.018        8.708      861.674
03/05/2014  03:00:00      -11.267      -19.543        7.512       36.302       25.112       21.198     1317.821      630.621      449.362        0.148        0.120       22.558       15.415        0.467      336.998        8.673      861.652
03/05/2014  03:01:00      -10.057      -12.145        5.540       33.712       17.514       11.783     1136.530      306.735      138.828        0.093        0.079       15.768        6.368        0.163      337.000        8.679      861.632
03/05/2014  03:02:00       -4.727      -10.636        8.852       16.007       23.951       23.277      256.221      573.660      541.813        0.079        0.069       11.639        8.955        0.592      337.023        8.715      861.627
03/05/2014  03:03:00       25.773      -85.333        3.973       37.753       51.456       32.558     1425.259     2647.757     1060.013        0.655        0.257       89.140       30.408        0.116      337.002        8.679      861.682
03/05/2014  03:04:00       19.406      -47.351       -7.771       43.130       61.680       24.908     1860.207     3804.396      620.411        0.448        0.314       51.173       29.355        0.329      336.957        8.607      861.732
03/05/2014  03:05:00       18.316       15.044       14.593       20.747       14.252       19.228      430.440      203.127      369.712        0.089        0.050       23.702        9.058        0.146      336.910        8.529      861.724
03/05/2014  03:06:00      -12.846       -2.168       14.540       16.834       15.450       14.217      283.387      238.707      202.131        0.055        0.036       13.027        9.878        0.575      336.927        8.555      861.660
03/05/2014  03:07:00        2.965       -2.492       20.791       18.449       11.131       12.507      340.370      123.896      156.429        0.053        0.031        3.873        5.676        2.148      336.936        8.571      861.617
03/05/2014  03:08:00        2.067       28.924        7.024       13.446       43.365       14.632      180.796     1880.534      214.083        0.158        0.114       28.998       14.003        0.233      336.941        8.579      861.612
03/05/2014  03:09:00       12.807       99.196       -6.629       19.353       21.695       17.001      374.540      470.686      289.036        0.559        0.057      100.020       10.641        0.011      336.818        8.376      861.618
03/05/2014  03:10:00       10.848       31.868        9.144       20.231       24.234       17.969      409.308      587.298      322.893        0.127        0.066       33.664       15.895        0.223      336.786        8.322      861.608
03/05/2014  03:11:00       11.293       42.843       -3.186       22.175       27.258        9.867      491.714      742.999       97.355        0.165        0.067       44.307        9.552        0.046      336.722        8.217      861.592
03/05/2014  03:12:00       20.219       26.704       -7.716       35.542       30.782       20.357     1263.212      947.543      414.388        0.190        0.131       33.495       18.766        0.314      336.692        8.167      861.563
03/05/2014  03:13:00        6.450       85.949      -12.922       16.578       17.019        7.602      274.832      289.640       57.786        0.411        0.031       86.190        7.223        0.007      336.615        8.036      861.541
03/05/2014  03:14:00      -41.081       23.663        1.903       20.607       22.054       19.551      424.647      486.383      382.249        0.177        0.065       47.409       15.141        0.102      336.673        8.135      861.539
03/05/2014  03:15:00      -33.428       12.817       -3.450       17.988       14.998        8.255      323.575      224.945       68.146        0.096        0.031       35.800        7.984        0.050      336.676        8.139      861.567
03/05/2014  03:16:00      -83.917       51.535      -14.281       30.842       45.420       25.820      951.224     2062.990      666.674        0.679        0.184       98.478       26.589        0.073      336.599        8.009      861.618
03/05/2014  03:17:00     -108.643       44.849      -17.208       36.237       40.271       24.621     1313.147     1621.781      606.175        0.883        0.177      117.536       26.691        0.052      336.504        7.851      861.631
03/05/2014  03:18:00      -57.060       51.282       -6.964       31.387       36.703       23.317      985.127     1347.121      543.684        0.440        0.144       76.718       20.332        0.070      336.555        7.937      861.645
03/05/2014  03:19:00      -76.987       52.689      -12.865       21.321       33.167       16.651      454.584     1100.050      277.258        0.535        0.092       93.290       10.948        0.014      336.595        8.003      861.663
03/05/2014  03:20:00      -77.149        0.877      -10.845       25.433       23.006       13.397      646.848      529.276      179.493        0.371        0.068       77.154       10.434        0.018      336.629        8.061      861.695
03/05/2014  03:21:00      -69.499        8.502      -13.949       34.451       22.967       19.046     1186.879      527.473      362.751        0.359        0.104       70.017       17.866        0.065      336.642        8.082      861.708
03/05/2014  03:22:00     -153.390       22.075      -22.482       61.177       27.010       22.330     3742.676      729.545      498.632        1.475        0.249      154.970       20.285        0.017      336.636        8.070      861.679
03/05/2014  03:23:00     -175.645      -37.149      -18.499       46.096       57.190       25.198     2124.858     3270.698      634.930        1.930        0.302      179.530       22.881        0.016      336.586        7.989      861.647
03/05/2014  03:24:00     -156.120      -61.389      -20.887       73.875       53.277       37.301     5457.530     2838.400     1391.356        1.913        0.484      167.756       35.745        0.045      336.615        8.035      861.626
03/05/2014  03:25:00     -172.003      -62.925      -21.310       72.481       63.499       35.357     5253.542     4032.167     1250.130        2.227        0.527      183.152       20.993        0.013      336.531        7.895      861.665
03/05/2014  03:26:00      -73.917      -45.442       -7.118       68.568       40.062       28.656     4701.583     1604.988      821.148        0.735        0.356       86.769       26.722        0.095      336.543        7.918      861.697
03/05/2014  03:27:00      -41.702      -18.223        0.048       24.904       15.604       12.850      620.211      243.496      165.122        0.155        0.051       45.509       13.355        0.086      336.635        8.071      861.684
03/05/2014  03:28:00      -22.029      -13.834       -6.181       18.288       10.937        7.549      334.453      119.613       56.993        0.061        0.026       26.013       10.653        0.168      336.733        8.237      861.673
03/05/2014  03:29:00      -19.052       -5.890       -3.314       12.010        8.277        5.716      144.242       68.504       32.674        0.033        0.012       19.942        2.919        0.021      336.754        8.271      861.685
03/05/2014  03:30:00       -6.030        0.512        4.571        5.642        4.298        6.383       31.836       18.476       40.746        0.007        0.005        6.052        4.441        0.539      336.836        8.404      861.724
03/05/2014  03:31:00       -2.435       11.122        5.466        6.888        7.314        6.057       47.441       53.487       36.692        0.015        0.007       11.385        5.302        0.217      336.795        8.339      861.752
03/05/2014  03:32:00       58.821       47.343        2.140       30.564       15.762       10.185      934.182      248.433      103.739        0.350        0.064       75.507       12.197        0.026      336.746        8.255      861.730
03/05/2014  03:33:00       39.103       10.727        3.677       30.694       21.335       19.243      942.111      455.186      370.282        0.171        0.088       40.548       15.417        0.145      336.725        8.222      861.673
03/05/2014  03:34:00        5.951        0.360        4.989       16.494       14.589       13.274      272.052      212.848      176.190        0.036        0.033        5.962       11.554        3.755      336.695        8.171      861.638
03/05/2014  03:35:00        6.581       38.465       -8.918       12.396       25.561       10.002      153.654      653.361      100.032        0.125        0.045       39.024       10.987        0.079      336.653        8.099      861.563
03/05/2014  03:36:00      -25.849       21.624        6.945       18.178       14.903       15.034      330.426      222.089      226.027        0.098        0.039       33.701        8.739        0.067      336.646        8.088      861.476
03/05/2014  03:37:00      -70.242       26.501      -11.816       16.762       14.245       13.363      280.978      202.931      178.579        0.322        0.033       75.075        6.256        0.007      336.561        7.947      861.407
03/05/2014  03:38:00      -83.240       67.787      -20.109       28.777       40.403       17.164      828.125     1632.371      294.599        0.734        0.138      107.350       18.444        0.030      336.705        8.186      861.355
03/05/2014  03:39:00      -61.845      117.453      -20.603       26.136       25.600       24.915      683.108      655.370      620.778        1.000        0.098      132.740       19.864        0.022      336.848        8.424      861.313
03/05/2014  03:40:00       21.454      133.938      -12.112       34.172       38.228       23.215     1167.757     1461.388      538.944        1.086        0.158      135.646       24.262        0.032      336.982        8.648      861.283
03/05/2014  03:41:00       75.838       72.734        0.985       53.903       34.437       33.567     2905.512     1185.932     1126.764        0.813        0.261      105.079       26.770        0.065      336.918        8.541      861.268
03/05/2014  03:42:00       76.132       39.213        4.319       45.724       30.707       19.611     2090.681      942.892      384.577        0.538        0.171       85.637       18.446        0.046      336.912        8.533      861.283
03/05/2014  03:43:00       26.559       32.226        2.081       19.862       14.399       11.989      394.501      207.318      143.739        0.125        0.037       41.760        9.768        0.055      337.002        8.680      861.321
03/05/2014  03:44:00       -5.665       14.263        1.245       26.576       11.791        6.001      706.284      139.021       36.014        0.056        0.044       15.347        6.734        0.193      337.044        8.751      861.346
03/05/2014  03:45:00      -96.617       -5.637       -6.849       45.860       21.405       15.916     2103.161      458.154      253.305        0.611        0.141       96.781       17.332        0.032      336.834        8.402      861.339
03/05/2014  03:46:00     -120.122       11.537       -7.492       52.619       48.731       35.287     2768.735     2374.669     1245.193        1.050        0.319      120.675       30.012        0.062      336.671        8.131      861.309
03/05/2014  03:47:00     -101.729       69.358      -17.827       44.397       37.882       29.357     1971.077     1435.054      861.840        0.987        0.213      123.123       17.946        0.021      336.720        8.213      861.278
03/05/2014  03:48:00      -83.184      102.430      -20.969       38.174       33.360       23.378     1457.258     1112.886      546.514        1.048        0.156      131.953       24.586        0.035      336.807        8.356      861.282
03/05/2014  03:49:00       -4.621       79.826       -7.993       24.168       47.476       15.175      584.096     2254.013      230.266        0.476        0.153       79.960       19.967        0.062      336.944        8.583      861.292
03/05/2014  03:50:00        0.254       98.570      -11.894       14.027       20.067        9.623      196.764      402.675       92.597        0.527        0.035       98.570        6.946        0.005      336.975        8.636      861.299
03/05/2014  03:51:00       10.947       25.196       -4.329       13.562       25.885        9.692      183.933      670.038       93.937        0.086        0.047       27.471        8.052        0.086      336.890        8.494      861.347
03/05/2014  03:52:00      -57.544      -18.134       -9.215       51.909       21.016       12.795     2694.566      441.688      163.706        0.351        0.165       60.333        6.482        0.012      336.799        8.345      861.413
03/05/2014  03:53:00     -114.085        2.819      -12.523       34.207       27.820       21.589     1170.132      773.955      466.087        0.779        0.121      114.119       14.032        0.015      336.640        8.078      861.456
03/05/2014  03:54:00      -86.457       29.167       -7.744       42.965       21.702       13.310     1845.987      470.995      177.144        0.544        0.125       91.245        5.931        0.004      336.654        8.104      861.481
03/05/2014  03:55:00      -77.100       74.595      -15.264       29.937       37.155       19.795      896.228     1380.485      391.850        0.720        0.133      107.279       13.486        0.016      336.896        8.505      861.498
03/05/2014  03:56:00      -73.809       51.038      -17.553       26.155       63.305       32.378      684.081     4007.580     1048.342        0.705        0.287       89.737       33.138        0.136      336.933        8.563      861.533
03/05/2014  03:57:00      -72.360      -13.077       -5.482       15.885       33.711       13.546      252.347     1136.433      183.499        0.350        0.079       73.532       12.548        0.029      336.863        8.450      861.570
03/05/2014  03:58:00      -61.933        8.605        0.238       30.821       16.356       16.460      949.913      267.508      270.945        0.270        0.074       62.527       16.585        0.070      336.889        8.492      861.560
03/05/2014  03:59:00      -66.146       19.439       -9.503       21.761       14.048       10.747      473.522      197.356      115.491        0.281        0.039       68.943        7.476        0.012      336.824        8.385      861.525
03/05/2014  04:00:00      -67.412       28.738      -10.267       27.346       23.502       18.967      747.825      552.331      359.736        0.357        0.083       73.282       18.703        0.065      336.893        8.501      861.522
03/05/2014  04:01:00      -46.090       15.536      -10.131       16.639       18.281        7.642      276.858      334.194       58.407        0.157        0.033       48.638        5.505        0.013      336.957        8.606      861.513
03/05/2014  04:02:00      -36.944      -12.590       -5.179       13.345       18.066        9.706      178.090      326.385       94.204        0.107        0.030       39.030        5.773        0.022      336.902        8.514      861.473
03/05/2014  04:03:00      -75.922      -50.429       -3.654       27.700       18.858       10.368      767.301      355.630      107.495        0.478        0.062       91.144       10.292        0.013      336.786        8.321      861.426
03/05/2014  04:04:00      -19.597      -22.228        6.587       35.904       32.350       15.029     1289.096     1046.546      225.883        0.174        0.128       29.634       18.780        0.402      336.764        8.285      861.374
03/05/2014  04:05:00       48.608       69.003       54.958       34.433       35.867       22.427     1185.644     1286.418      502.969        0.656        0.149       84.405       18.365        0.047      336.853        8.434      861.311
03/05/2014  04:06:00       41.141       55.940       45.097       43.198       27.976       29.561     1866.028      782.630      873.869        0.519        0.176       69.439       30.834        0.197      336.881        8.479      861.270
03/05/2014  04:07:00       34.602      -30.599       29.072       50.014       65.972       35.270     2501.363     4352.276     1243.985        0.554        0.405       46.191       49.959        1.170      337.048        8.758      861.244
03/05/2014  04:08:00      126.199     -145.025      -35.912       25.275       25.518       14.081      638.835      651.154      198.288        1.987        0.074      192.246        3.607        0.000      337.224        9.053      861.208
03/05/2014  04:09:00      120.583     -123.842      -27.905       59.734       61.822       35.845     3568.169     3821.950     1284.882        1.966        0.434      172.849       31.040        0.032      337.201        9.014      861.168
03/05/2014  04:10:00       61.606       25.567       60.369       82.301       94.482       65.555     6773.406     8926.802     4297.420        1.404        1.000       66.701       77.485        1.349      337.133        8.901      861.107
03/05/2014  04:11:00       56.538      122.397      113.772       62.676       43.806       45.216     3928.237     1918.968     2044.479        1.951        0.395      134.824       45.964        0.116      337.207        9.025      861.052
03/05/2014  04:12:00       37.002       22.757       34.648       57.828       35.873       33.467     3344.129     1286.843     1120.039        0.442        0.288       43.440       38.338        0.779      337.233        9.069      861.041
03/05/2014  04:13:00      -14.251        1.429       26.977       17.914       27.030       22.364      320.895      730.613      500.151        0.124        0.078       14.323       14.897        1.082      337.261        9.117      861.079
03/05/2014  04:14:00      -32.198      -34.621       -8.541       35.534       33.287       18.820     1262.699     1108.046      354.206        0.252        0.136       47.279       12.661        0.072      337.331        9.234      861.151
03/05/2014  04:15:00      -87.991      -43.844        1.919       52.502       32.684       22.843     2756.465     1068.238      521.813        0.701        0.217       98.309       24.300        0.061      337.193        9.002      861.231
03/05/2014  04:16:00      -90.595      -53.742       -5.585       55.397       55.217       27.044     3068.866     3048.865      731.397        0.899        0.342      105.336       28.613        0.074      337.047        8.758      861.268
03/05/2014  04:17:00     -133.919      -10.858      -10.763       34.200       32.111       23.209     1169.634     1031.129      538.674        1.045        0.137      134.358       20.824        0.024      336.996        8.671      861.279
03/05/2014  04:18:00     -132.810      -54.839       -1.024       51.702       33.048       22.219     2673.068     1092.163      493.701        1.245        0.213      143.686       10.499        0.005      337.071        8.796      861.306
03/05/2014  04:19:00     -178.647     -119.564        1.679      113.427       84.535       44.065    12865.624     7146.089     1941.738        3.408        1.098      214.965       55.140        0.066      337.037        8.738      861.357
03/05/2014  04:20:00     -215.971     -115.034       -5.848       73.632       69.159       43.106     5421.633     4782.948     1858.146        3.598        0.603      244.696       40.217        0.027      337.030        8.724      861.400
03/05/2014  04:21:00      -71.228      -49.316        3.245       51.516       32.146       23.391     2653.926     1033.392      547.136        0.587        0.212       86.634       19.515        0.051      337.142        8.916      861.390
03/05/2014  04:22:00       -6.343       11.971        9.928       24.229       17.831       17.318      587.060      317.942      299.897        0.074        0.060       13.548       14.730        1.182      337.153        8.935      861.350
03/05/2014  04:23:00      -25.529       -0.237        4.902        9.942       17.499       12.284       98.841      306.218      150.897        0.062        0.028       25.530        6.741        0.070      337.260        9.115      861.312
03/05/2014  04:24:00      -16.681       -4.088      -10.819       16.223       12.383       11.330      263.178      153.343      128.375        0.048        0.027       17.175       10.628        0.383      337.404        9.356      861.273
03/05/2014  04:25:00      -10.762       24.861       15.073        9.822       21.113       28.931       96.476      445.746      836.989        0.117        0.069       27.090       22.123        0.667      337.335        9.239      861.237
03/05/2014  04:26:00      -13.587       68.921      101.943       23.978       41.536       31.232      574.932     1725.240      975.459        0.930        0.164       70.247       31.813        0.205      337.253        9.103      861.198
03/05/2014  04:27:00        9.994       66.129      114.786       50.763       55.144       46.366     2576.842     3040.886     2149.827        1.271        0.388       66.880       41.218        0.380      337.175        8.971      861.187
03/05/2014  04:28:00       92.461       97.238      100.368       71.714       67.037       51.823     5142.921     4493.920     2685.623        2.020        0.616      134.180       39.849        0.088      336.986        8.655      861.207
03/05/2014  04:29:00       71.868        9.026       41.554       72.701       44.194       48.515     5285.406     1953.106     2353.739        0.828        0.480       72.433       22.262        0.094      336.801        8.345      861.235
03/05/2014  04:30:00      102.429       53.254       24.002       66.780       42.845       34.689     4459.519     1835.725     1203.359        1.070        0.375      115.446       10.481        0.008      336.631        8.064      861.306
03/05/2014  04:31:00       64.321       -6.187       23.727       43.551       57.097       42.898     1896.687     3260.038     1840.281        0.587        0.350       64.618       44.757        0.480      336.657        8.107      861.404
03/05/2014  04:32:00       53.129        5.163       12.611       16.495       22.780       21.977      272.092      518.944      483.008        0.214        0.064       53.379       13.098        0.060      336.645        8.088      861.473
03/05/2014  04:33:00       77.897       30.752       33.234       30.976       40.502       18.919      959.539     1640.416      357.941        0.554        0.148       83.748       14.999        0.032      336.670        8.128      861.486
03/05/2014  04:34:00       82.153       87.013       59.569       52.072       37.657       52.399     2711.488     1418.071     2745.670        1.237        0.344      119.667       45.587        0.145      336.706        8.189      861.459
03/05/2014  04:35:00       29.342       94.391       93.748       34.853       34.652       23.290     1214.754     1200.737      542.430        1.076        0.148       98.846       19.134        0.037      336.693        8.166      861.447
03/05/2014  04:36:00       21.508      -12.620       29.023       27.808       70.734       27.238      773.282     5003.230      741.899        0.399        0.326       24.937       35.373        2.012      336.714        8.203      861.454
03/05/2014  04:37:00        6.707      -50.281       -9.760       26.836       38.507       17.993      720.164     1482.789      323.749        0.260        0.126       50.726       12.623        0.062      336.696        8.172      861.481
03/05/2014  04:38:00     -107.372      -38.860       -4.148       39.630       25.178       16.044     1570.517      633.924      257.406        0.776        0.123      114.188        9.014        0.006      336.790        8.329      861.523
03/05/2014  04:39:00     -142.235      -48.796       -6.559       22.455       25.755       13.539      504.249      663.304      183.302        1.200        0.068      150.372        5.918        0.002      336.761        8.281      861.555
03/05/2014  04:40:00     -143.547      -57.636       -6.929       36.006       33.860       26.432     1296.406     1146.483      698.635        1.356        0.157      154.685       20.809        0.018      336.755        8.269      861.551
03/05/2014  04:41:00      -93.833      -14.429        7.392       52.841       47.092       23.650     2792.126     2217.677      559.335        0.732        0.278       94.936       26.666        0.079      336.814        8.368      861.500
03/05/2014  04:42:00      -81.004        3.234       -1.890       39.036       26.572       15.971     1523.771      706.071      255.077        0.453        0.124       81.068       12.297        0.023      336.900        8.514      861.436
03/05/2014  04:43:00      -21.636      -33.973        5.968       35.070       21.895       15.502     1229.899      479.411      240.319        0.180        0.097       40.278       19.253        0.228      336.938        8.575      861.409
03/05/2014  04:44:00       54.586       26.113       21.049       36.429       20.376       21.491     1327.045      415.189      461.866        0.315        0.110       60.510        8.525        0.020      336.909        8.526      861.389
03/05/2014  04:45:00       45.237       43.765       22.839       18.906       13.464       13.137      357.440      181.285      172.588        0.260        0.036       62.942        8.376        0.018      336.947        8.590      861.441
03/05/2014  04:46:00       40.814       57.653       54.176       34.862       23.805       24.611     1215.379      566.659      605.711        0.516        0.119       70.638       23.796        0.113      336.993        8.665      861.469
03/05/2014  04:47:00     -100.171      -60.715       -7.856       95.726       50.989       39.124     9163.443     2599.870     1530.701        1.354        0.665      117.135       34.304        0.086      337.093        8.833      861.552
03/05/2014  04:48:00     -146.158      -88.482       -0.566       97.545       49.590       36.029     9515.075     2459.178     1298.091        2.123        0.664      170.854       45.773        0.072      336.990        8.659      861.658
03/05/2014  04:49:00     -141.809        8.659       -0.841       52.894       56.170       38.526     2797.794     3155.112     1484.268        1.381        0.372      142.073       29.523        0.043      336.898        8.509      861.695
03/05/2014  04:50:00     -157.449       22.200       -4.153       41.707       38.866       24.178     1739.461     1510.553      584.593        1.457        0.192      159.006       17.680        0.012      336.850        8.429      861.690
03/05/2014  04:51:00     -129.038      -18.175      -17.468       43.017       39.733       22.607     1850.463     1578.677      511.065        1.061        0.197      130.312       20.182        0.024      336.889        8.492      861.680
03/05/2014  04:52:00      -60.735      -48.151        2.449       34.313       29.142       16.874     1177.366      849.271      284.736        0.416        0.116       77.506       16.876        0.047      336.989        8.658      861.664
03/05/2014  04:53:00      -10.906      -24.461       -2.272       14.672       14.716       13.424      215.272      216.553      180.194        0.067        0.031       26.782        7.077        0.070      336.947        8.586      861.607
03/05/2014  04:54:00       -7.908      -30.010       14.624       38.713       50.208       43.266     1498.696     2520.815     1871.961        0.353        0.295       31.034       26.336        0.720      337.146        8.923      861.581
03/05/2014  04:55:00       33.957      -51.426        7.802       70.956       75.261       52.060     5034.787     5664.216     2710.275        0.863        0.670       61.625       52.115        0.715      337.069        8.792      861.558
03/05/2014  04:56:00      -30.376      -19.274        4.897       32.311       36.435       23.886     1043.973     1327.536      570.543        0.213        0.147       35.975       15.283        0.180      337.166        8.959      861.572
03/05/2014  04:57:00       -7.856       49.448       67.484       31.450       44.230       55.818      989.098     1956.317     3115.633        0.656        0.303       50.068       40.308        0.648      337.121        8.880      861.545
03/05/2014  04:58:00       19.924       61.526       16.316       40.095       35.464       29.436     1607.580     1257.676      866.460        0.409        0.187       64.672       27.799        0.185      337.068        8.791      861.546
03/05/2014  04:59:00     -108.131       47.211      -19.807       44.155       36.924       14.708     1949.631     1363.385      216.320        0.892        0.176      117.988       12.959        0.012      337.108        8.860      861.592
03/05/2014  05:00:00     -218.332      -92.137      -19.786      112.371       91.784       52.365    12627.248     8424.243     2742.054        4.017        1.190      236.977       51.683        0.048      337.044        8.749      861.628
03/05/2014  05:01:00     -163.942      -44.101       -9.714       74.744       60.334       37.805     5586.659     3640.182     1429.186        1.978        0.533      169.770       32.140        0.036      337.019        8.707      861.634
03/05/2014  05:02:00       -3.378       18.141       10.956       49.472       36.369       23.216     2447.481     1322.716      538.992        0.238        0.215       18.452       16.776        0.827      337.126        8.889      861.596
03/05/2014  05:03:00       24.041       47.607       11.543       26.893       29.971       26.992      723.212      898.267      728.571        0.266        0.118       53.333        7.984        0.022      337.168        8.959      861.605
03/05/2014  05:04:00       -1.892       11.294       -5.755       22.444       29.020       19.279      503.752      842.136      371.684        0.094        0.086       11.451       12.261        1.146      337.148        8.925      861.681
03/05/2014  05:05:00       86.675       62.757       11.398       57.830       42.000       32.935     3344.339     1763.980     1084.694        0.889        0.310      107.010       24.487        0.052      336.937        8.572      861.759
03/05/2014  05:06:00      173.933       66.978        1.108       68.739       52.778       39.930     4724.985     2785.498     1594.406        2.192        0.455      186.383       30.804        0.027      336.843        8.414      861.799
03/05/2014  05:07:00      258.002      131.467       31.595       79.332       57.384       61.164     6293.505     3292.912     3741.010        4.908        0.666      289.566       46.501        0.026      336.771        8.293      861.741
03/05/2014  05:08:00      237.612      172.035       93.770      103.754       94.526       88.580    10764.842     8935.151     7846.349        6.119        1.377      293.352       67.120        0.052      336.686        8.152      861.683
03/05/2014  05:09:00       87.261       81.553      114.856       81.554       57.802       38.800     6651.077     3341.042     1505.421        1.948        0.575      119.438       32.188        0.073      336.640        8.077      861.709
03/05/2014  05:10:00      101.433       69.748       44.173       50.307       54.103       50.990     2530.813     2927.139     2599.953        1.258        0.403      123.099       44.645        0.132      336.744        8.252      861.735
03/05/2014  05:11:00       20.397       74.363       -8.142       37.690       42.353       23.844     1420.536     1793.800      568.533        0.490        0.189       77.110       23.392        0.092      336.710        8.196      861.786
03/05/2014  05:12:00       43.569       86.198       -5.799       39.060       56.985       30.961     1525.686     3247.256      958.594        0.755        0.287       96.583       30.947        0.103      336.686        8.155      861.785
03/05/2014  05:13:00       45.406       63.707        1.667       31.539       35.319       32.479      994.697     1247.409     1054.904        0.471        0.165       78.233       21.891        0.078      336.743        8.252      861.764
03/05/2014  05:14:00       54.863       24.330       -0.339       18.528       16.965       16.012      343.301      287.794      256.381        0.224        0.044       60.016        7.940        0.018      336.800        8.347      861.766
03/05/2014  05:15:00       40.119       33.764       19.270       34.066       18.890       18.097     1160.524      356.833      327.515        0.248        0.092       52.436       15.678        0.089      336.858        8.442      861.781
03/05/2014  05:16:00        0.741       34.591       44.923       23.171       26.754       29.064      536.916      715.803      844.732        0.266        0.105       34.599       26.350        0.580      336.861        8.447      861.808
03/05/2014  05:17:00        0.705       69.699       -6.963       35.120       27.114       21.553     1233.428      735.177      464.545        0.367        0.122       69.702       21.261        0.093      336.796        8.338      861.863
03/05/2014  05:18:00      -85.474       47.330      -14.464       40.320       26.609       19.787     1625.726      708.047      391.536        0.624        0.136       97.703       14.826        0.023      336.895        8.503      861.909
03/05/2014  05:19:00     -146.636       61.603      -24.687       39.211       28.854       26.819     1537.508      832.569      719.261        1.450        0.154      159.050       18.821        0.014      336.968        8.624      861.937
03/05/2014  05:20:00       -7.510       49.406       -4.333       52.137       30.906       21.563     2718.249      955.156      464.970        0.333        0.207       49.973       22.235        0.198      337.086        8.823      861.938
03/05/2014  05:21:00       29.148       81.014      -13.594       31.974       32.259       20.025     1022.327     1040.672      401.002        0.503        0.123       86.098        8.219        0.009      337.061        8.780      861.911
03/05/2014  05:22:00      -75.309       60.885      -18.051       44.905       57.724       17.049     2016.485     3332.083      290.669        0.767        0.282       96.842       23.793        0.060      337.161        8.947      861.932
03/05/2014  05:23:00      -64.909       28.413       -5.634       26.066       24.124       18.887      679.412      581.991      356.705        0.333        0.081       70.856       12.440        0.031      337.100        8.846      861.958
03/05/2014  05:24:00      -35.766       22.354      -12.687       33.231       55.241       17.043     1104.273     3051.551      290.458        0.319        0.222       42.177       15.632        0.137      337.331        9.233      861.943
03/05/2014  05:25:00     -126.504      -10.463      -13.527       84.609      121.273       37.597     7158.629    14707.095     1413.559        1.978        1.164      126.936       45.603        0.129      337.517        9.543      861.942
03/05/2014  05:26:00     -127.934      110.757       -3.512       88.050       63.372       51.498     7752.830     4016.066     2652.093        2.153        0.721      169.217       48.656        0.083      337.581        9.650      861.954
03/05/2014  05:27:00     -177.072      -19.987       -0.914       87.739       71.582       47.657     7698.161     5123.992     2271.175        2.342        0.755      178.197       44.325        0.062      337.681        9.817      861.956
03/05/2014  05:28:00      -81.638      -26.104        5.383       74.244       47.627       25.756     5512.174     2268.344      663.393        0.791        0.422       85.710       32.224        0.141      337.762        9.955      861.985
03/05/2014  05:29:00     -222.638      -83.738       -2.554      101.972       94.140       45.456    10398.319     8862.358     2066.220        3.895        1.066      237.865       30.686        0.017      338.024       10.393      862.011
03/05/2014  05:30:00     -145.777      -67.662        7.342       97.302       74.088       46.289     9467.616     5489.024     2142.687        2.149        0.855      160.714       46.270        0.083      338.144       10.594      862.044
03/05/2014  05:31:00     -392.953     -120.985        3.060      225.341      142.608       84.694    50778.389    20336.982     7173.051       12.366        3.914      411.157      113.410        0.076      338.382       10.992      862.068
03/05/2014  05:32:00     -436.163     -130.025       -4.545      192.124      119.216       74.863    36911.721    14212.348     5604.490       13.194        2.836      455.132       76.693        0.028      338.543       11.262      862.134
03/05/2014  05:33:00     -171.962      -51.452       11.099      182.212      121.279       81.379    33201.153    14708.485     6622.481        4.343        2.727      179.495       91.939        0.262      338.512       11.212      862.173
03/05/2014  05:34:00     -225.079      -78.046      -16.555      134.509       71.814       50.697    18092.609     5157.183     2570.141        4.142        1.291      238.226       59.562        0.063      338.549       11.273      862.221
03/05/2014  05:35:00     -227.557     -229.006       -7.033      202.495      148.955       89.030    41004.067    22187.726     7926.313        8.768        3.556      322.840       99.499        0.095      338.570       11.309      862.216
03/05/2014  05:36:00     -169.281     -151.423       18.071      164.613      109.494       77.380    27097.524    11988.839     5987.741        4.849        2.254      227.123       85.123        0.140      338.565       11.300      862.247
03/05/2014  05:37:00     -160.159      -60.628        0.748      128.645       64.698       50.497    16549.603     4185.809     2549.954        2.630        1.164      171.250       57.546        0.113      338.525       11.233      862.271
03/05/2014  05:38:00     -205.971      -13.208      -13.669       89.174       58.843       38.642     7951.996     3462.525     1493.178        2.784        0.645      206.394       44.091        0.046      338.543       11.263      862.258
03/05/2014  05:39:00     -135.732      -23.647       -2.122      118.880       61.959       38.997    14132.439     3838.976     1520.799        1.924        0.975      137.777       56.291        0.167      338.495       11.183      862.239
03/05/2014  05:40:00      -98.326      -38.418       -7.372       89.430       53.470       44.741     7997.638     2858.991     2001.768        1.203        0.643      105.565       50.234        0.226      338.548       11.274      862.219
03/05/2014  05:41:00     -100.663      -60.653        9.512       95.907       63.596       37.285     9198.147     4044.418     1390.158        1.427        0.732      117.523       41.264        0.123      338.531       11.245      862.192
03/05/2014  05:42:00     -148.328     -116.437       -8.193       94.015       55.965       32.838     8838.880     3132.040     1078.319        2.434        0.652      188.570       39.160        0.043      338.467       11.136      862.170
03/05/2014  05:43:00     -169.416       79.230       -3.674      115.455       61.001       42.132    13329.777     3721.073     1775.121        2.691        0.941      187.027       54.871        0.086      338.512       11.212      862.132
03/05/2014  05:44:00     -107.393      -13.410       -8.918       73.321       64.449       27.422     5375.974     4153.645      751.974        1.104        0.514      108.227       33.170        0.094      338.476       11.154      862.108
03/05/2014  05:45:00      -23.840       -0.452       19.798       41.086       26.682       21.139     1688.044      711.924      446.862        0.190        0.142       23.844       22.980        0.929      338.268       10.805      862.080
03/05/2014  05:46:00     -122.487      -31.239      -10.503       71.361       63.326       29.125     5092.387     4010.161      848.269        1.302        0.498      126.408       24.812        0.039      338.321       10.893      862.063
03/05/2014  05:47:00     -234.168       -4.660      -20.943      108.381       72.202       43.034    11746.538     5213.066     1851.927        3.705        0.941      234.214       49.676        0.045      338.397       11.019      862.008
03/05/2014  05:48:00      -85.729       -2.477        0.602       62.506       27.361       26.854     3907.043      748.645      721.158        0.637        0.269       85.765       29.247        0.116      338.302       10.861      861.971
03/05/2014  05:49:00       -0.299      -35.781        2.931       28.394       24.083       19.670      806.202      580.000      386.913        0.153        0.089       35.783       14.754        0.170      337.943       10.259      861.942
03/05/2014  05:50:00       -7.135      -47.569        0.268       18.474       18.302       19.457      341.282      334.955      378.556        0.168        0.053       48.101       15.692        0.106      337.872       10.139      861.915
03/05/2014  05:51:00       22.932       17.734       38.239       26.052       58.416       35.904      678.686     3412.410     1289.111        0.384        0.269       28.989       44.363        2.342      338.056       10.450      861.842
03/05/2014  05:52:00        5.626      -27.408       12.855       29.528       42.952       34.042      871.888     1844.847     1158.849        0.241        0.194       27.980       29.278        1.095      337.951       10.273      861.773
03/05/2014  05:53:00       31.029      -28.245       -3.730       44.585       40.224       26.397     1987.843     1618.008      696.821        0.304        0.215       41.959       28.348        0.456      338.048       10.436      861.763
03/05/2014  05:54:00       -8.507      -26.864       12.655       38.690       31.130       24.035     1496.916      969.101      577.700        0.200        0.152       28.179       25.670        0.830      338.223       10.731      861.742
03/05/2014  05:55:00      -31.700       13.147       19.774       28.783       30.668       25.251      828.463      940.534      637.633        0.199        0.120       34.318       14.778        0.185      338.164       10.628      861.662
03/05/2014  05:56:00       75.655      -10.466       93.156       73.213      104.741       78.123     5360.147    10970.716     6103.249        1.847        1.122       76.375       62.519        0.670      337.796       10.012      861.531
03/05/2014  05:57:00      133.550      121.199      125.465      121.526      124.964       85.796    14768.598    15616.019     7360.924        4.300        1.887      180.347       83.499        0.214      337.101        8.845      861.489
03/05/2014  05:58:00      102.689       11.552       91.204      105.512       91.033       72.198    11132.701     8286.920     5212.522        2.181        1.232      103.336       71.769        0.482      336.949        8.593      861.463
03/05/2014  05:59:00       56.322        4.674       79.175       55.472       80.798       55.004     3077.105     6528.355     3025.451        1.104        0.632       56.515       52.513        0.863      336.921        8.548      861.454
03/05/2014  06:00:00      101.193      -77.603       15.149       62.088       79.193       44.948     3854.944     6271.523     2020.333        1.432        0.607      127.523       49.977        0.154      336.902        8.513      861.498
03/05/2014  06:01:00       59.943     -116.210        3.942       74.223       83.921       56.674     5509.056     7042.651     3211.966        1.644        0.788      130.759       58.237        0.198      336.957        8.605      861.597
03/05/2014  06:02:00      105.239      -93.839       12.170      113.521       92.972       57.023    12887.018     8643.750     3251.635        2.240        1.239      141.000       38.277        0.074      336.994        8.667      861.742
03/05/2014  06:03:00      125.685       32.002       61.827       85.147       50.468       63.484     7250.019     2547.023     4030.225        1.723        0.691      129.695       36.488        0.079      336.773        8.299      861.906
03/05/2014  06:04:00      104.797      -38.416       24.121       60.189       57.437       34.508     3622.764     3298.985     1190.786        1.057        0.406      111.616       31.672        0.081      336.786        8.323      861.968
03/05/2014  06:05:00       53.855       54.705       88.166       69.873       73.362       48.246     4882.272     5382.032     2327.678        1.313        0.630       76.766       61.875        0.650      336.781        8.314      861.906
03/05/2014  06:06:00       72.942       75.503       64.586       51.205       43.241       36.694     2621.925     1869.772     1346.457        1.051        0.292      104.982       27.561        0.069      336.786        8.321      861.820
03/05/2014  06:07:00       28.021       56.615       78.517       35.651       48.669       28.024     1270.993     2368.659      785.356        0.729        0.221       63.170       32.779        0.269      336.762        8.283      861.791
03/05/2014  06:08:00      104.082      -76.199       -6.662       26.261       32.362       18.098      689.652     1047.279      327.554        0.937        0.103      128.994       15.532        0.014      336.748        8.258      861.813
03/05/2014  06:09:00       78.585      -72.943        4.780       62.716       75.649       37.463     3933.279     5722.833     1403.465        1.129        0.553      107.221       45.592        0.181      336.807        8.356      861.875
03/05/2014  06:10:00       31.532      -47.580       20.614       44.221       60.997       40.402     1955.500     3720.603     1632.350        0.549        0.365       57.080       39.699        0.484      336.911        8.530      861.955
03/05/2014  06:11:00      -12.476       50.503       97.570       24.187       38.121       28.808      585.021     1453.226      829.893        0.755        0.143       52.022       27.674        0.283      336.877        8.473      861.973
03/05/2014  06:12:00       -3.518       43.436       75.073       18.250       24.164       20.158      333.065      583.906      406.349        0.443        0.066       43.578       14.370        0.109      336.773        8.301      861.958
03/05/2014  06:13:00       19.882       36.029       24.525       30.504       23.407       32.435      930.465      547.901     1051.999        0.241        0.127       41.151       23.809        0.335      336.752        8.267      861.957
03/05/2014  06:14:00       -8.991       47.634      -14.240       14.999       18.121       10.734      224.981      328.354      115.223        0.161        0.033       48.475        8.413        0.030      336.712        8.201      862.007
03/05/2014  06:15:00      -17.735       33.457       -1.722       14.753       16.797       11.962      217.647      282.123      143.097        0.104        0.032       37.867       12.184        0.104      336.714        8.202      862.054
03/05/2014  06:16:00      -21.378       -7.672        9.737       17.455       16.231        8.901      304.690      263.451       79.220        0.063        0.032       22.713        6.649        0.086      336.817        8.372      862.060
03/05/2014  06:17:00      -11.747      -41.604       10.514       24.515       17.828       14.715      600.967      317.828      216.520        0.156        0.057       43.231        8.832        0.042      336.872        8.466      862.031
03/05/2014  06:18:00       -8.089      -38.981        3.928       30.039       17.532       20.347      902.364      307.376      414.015        0.161        0.081       39.812       17.152        0.186      336.943        8.583      862.037
03/05/2014  06:19:00      -84.370      -78.106        6.394       51.950       54.517       31.731     2698.842     2972.083     1006.853        0.997        0.334      114.973       32.783        0.081      336.857        8.439      862.030
03/05/2014  06:20:00     -131.183     -121.092      -18.667       75.659       50.401       36.192     5724.279     2540.221     1309.845        2.090        0.479      178.528       32.881        0.034      336.745        8.251      862.012
03/05/2014  06:21:00     -125.297      -91.432        3.023       49.504       37.694       37.541     2450.618     1420.841     1409.302        1.467        0.264      155.110       29.034        0.035      336.719        8.209      861.994
03/05/2014  06:22:00      -54.913      -79.631        1.847       62.938       41.483       31.771     3961.129     1720.848     1009.412        0.802        0.335       96.729       32.117        0.110      336.713        8.201      861.972
03/05/2014  06:23:00      -94.467      -90.182        4.240       69.181       51.710       33.742     4786.030     2673.932     1138.494        1.284        0.430      130.602       30.508        0.055      336.720        8.212      861.935
03/05/2014  06:24:00     -108.889      -70.570        4.741       75.236       42.528       37.121     5660.428     1808.670     1377.962        1.285        0.442      129.757       37.330        0.083      336.703        8.185      861.879
03/05/2014  06:25:00     -132.738     -110.460      -16.937       32.837       29.140       20.357     1078.250      849.120      414.423        1.622        0.117      172.687       13.644        0.006      336.732        8.232      861.867
03/05/2014  06:26:00     -109.114     -110.450       -6.949       26.447       36.566       23.870      699.448     1337.098      569.786        1.338        0.130      155.258       18.254        0.014      336.753        8.267      861.880
03/05/2014  06:27:00      -90.384      -57.883       -9.217       53.175       29.246       21.740     2827.584      855.352      472.607        0.788        0.208      107.330       15.077        0.020      336.832        8.400      861.874
03/05/2014  06:28:00     -170.120      -65.908      -14.721       37.738       36.335       27.227     1424.187     1320.232      741.289        1.849        0.174      182.441       19.821        0.012      336.830        8.395      861.864
03/05/2014  06:29:00     -168.024      -50.595       -3.843       54.043       44.257       29.130     2920.679     1958.651      848.576        1.827        0.286      175.477       28.862        0.027      336.879        8.476      861.862
03/05/2014  06:30:00     -180.685       41.361       -7.732       46.937       39.194       23.492     2203.114     1536.180      551.890        1.935        0.215      185.359       21.893        0.014      336.904        8.516      861.834
03/05/2014  06:31:00      -92.918       28.636       -9.800       52.785       38.668       15.952     2786.304     1495.214      254.463        0.704        0.227       97.231       12.717        0.017      336.843        8.416      861.812
03/05/2014  06:32:00      -78.139      -32.966       -6.938       28.043       25.461       14.747      786.388      648.284      217.487        0.445        0.083       84.808        9.465        0.012      336.858        8.442      861.813
03/05/2014  06:33:00      -61.147      -14.314      -10.891       43.821       23.843       18.255     1920.249      568.477      333.233        0.344        0.141       62.800       11.414        0.033      336.808        8.359      861.842
03/05/2014  06:34:00      -60.848       36.678       -7.364       34.912       28.073       15.781     1218.845      788.088      249.025        0.368        0.113       71.048        8.429        0.014      336.859        8.442      861.876
03/05/2014  06:35:00     -120.228       35.812       -1.077       48.440       25.218       18.810     2346.425      635.928      353.817        0.954        0.167      125.448       10.033        0.006      336.781        8.313      861.881
03/05/2014  06:36:00     -157.696       42.987      -14.184       48.521       27.825       20.859     2354.258      774.208      435.106        1.524        0.178      163.450       13.368        0.007      336.775        8.303      861.901
03/05/2014  06:37:00     -197.466       43.426      -16.902       40.928       35.310       20.894     1675.067     1246.812      436.559        2.226        0.168      202.185       19.067        0.009      336.740        8.244      861.893
03/05/2014  06:38:00     -126.813       29.134      -17.519       42.545       41.344       24.298     1810.066     1709.306      590.396        1.067        0.205      130.117       19.627        0.023      336.757        8.277      861.878
03/05/2014  06:39:00     -119.348      -24.147       -0.637       78.940       47.204       34.945     6231.563     2228.211     1221.118        1.225        0.484      121.767       45.433        0.139      336.806        8.354      861.870
03/05/2014  06:40:00     -111.967      -14.232       -8.598       46.114       40.895       30.022     2126.510     1672.391      901.304        0.876        0.235      112.868       25.523        0.051      336.829        8.394      861.871
03/05/2014  06:41:00     -141.150        4.851       -9.707       51.202       52.611       33.986     2621.615     2767.902     1155.028        1.329        0.327      141.234       24.762        0.031      336.816        8.372      861.886
03/05/2014  06:42:00      -91.976      -42.975      -21.781       44.577       47.713       31.995     1987.136     2276.507     1023.711        0.803        0.264      101.521       20.584        0.041      336.885        8.486      861.909
03/05/2014  06:43:00     -124.581      -58.521       -2.854       50.877       52.352       32.595     2588.471     2740.758     1062.462        1.267        0.320      137.642       21.260        0.024      336.842        8.414      861.949
03/05/2014  06:44:00      -19.407      -29.882       -2.923       31.836       35.979       25.847     1013.535     1294.521      668.073        0.213        0.149       35.631       12.831        0.130      336.895        8.504      861.946
03/05/2014  06:45:00        6.010       13.841      -13.384       28.347       29.669       16.931      803.577      880.259      286.675        0.119        0.099       15.089       13.149        0.759      336.955        8.601      861.921
03/05/2014  06:46:00       -5.491       27.906      -15.567       17.893       12.976        7.666      320.172      168.387       58.763        0.080        0.027       28.441        6.661        0.055      337.026        8.721      861.906
03/05/2014  06:47:00        2.866      -17.896       -6.315        9.539       19.908        9.236       90.994      396.316       85.302        0.047        0.029       18.124        5.186        0.082      337.061        8.781      861.914
03/05/2014  06:48:00        3.190      -63.060       -9.001       22.813       41.182       26.947      520.421     1695.932      726.118        0.350        0.147       63.140       23.861        0.143      337.106        8.854      861.964
03/05/2014  06:49:00        1.478       -8.984       34.607       25.233       31.373       23.433      636.696      984.285      549.102        0.172        0.109        9.104       13.746        2.279      337.104        8.851      861.993
03/05/2014  06:50:00      -21.985        4.883       26.309       17.300       27.195       18.920      299.289      739.551      357.970        0.130        0.070       22.521       11.282        0.251      337.110        8.863      862.021
03/05/2014  06:51:00       -3.117       28.545       41.382       12.338       15.528       15.189      152.230      241.118      230.712        0.158        0.031       28.714        7.217        0.063      337.027        8.722      862.049
03/05/2014  06:52:00        3.518       17.620       12.991        9.216       11.162       12.553       84.935      124.586      157.575        0.043        0.018       17.968        6.221        0.120      337.050        8.760      862.086
03/05/2014  06:53:00       50.511       40.010       12.852       36.853       12.710       12.885     1358.116      161.546      166.034        0.300        0.084       64.437        6.723        0.011      337.044        8.750      862.122
03/05/2014  06:54:00      173.357       86.622        2.530       46.703       36.611       31.450     2181.175     1340.353      989.097        2.104        0.226      193.794       27.585        0.020      336.961        8.614      862.099
03/05/2014  06:55:00      166.900      130.918       11.672       78.604       55.364       58.081     6178.613     3065.153     3373.381        2.887        0.631      212.121       39.457        0.035      336.702        8.179      862.080
03/05/2014  06:56:00      168.339      100.329       24.341       75.696       63.232       53.392     5729.913     3998.231     2850.729        2.579        0.629      195.969       40.928        0.044      336.514        7.867      862.137
03/05/2014  06:57:00      104.420      104.094       14.680       72.033       54.643       49.310     5188.765     2985.859     2431.444        1.628        0.530      147.442       39.197        0.071      336.501        7.845      862.215
03/05/2014  06:58:00       92.711       84.496        1.425       58.838       34.979       34.153     3461.886     1223.523     1166.408        1.079        0.293      125.439       16.530        0.017      336.548        7.924      862.258
03/05/2014  06:59:00      123.820       57.738        8.231       53.018       28.331       31.350     2810.930      802.656      982.837        1.166        0.230      136.620       20.687        0.023      336.637        8.073      862.242
03/05/2014  07:00:00      124.152       63.988       16.942       38.494       29.089       31.760     1481.791      846.199     1008.709        1.157        0.167      139.671       12.042        0.007      336.649        8.093      862.193
03/05/2014  07:01:00       21.890        5.348       24.482       32.352       34.667       20.152     1046.666     1201.812      406.106        0.188        0.133       22.534       17.172        0.581      336.742        8.249      862.180
03/05/2014  07:02:00      -24.307      -39.809       -7.771       17.457       18.573       13.312      304.754      344.951      177.197        0.153        0.041       46.643        9.249        0.039      336.885        8.485      862.198
03/05/2014  07:03:00      -48.307       12.674       -2.016       18.161       20.391       13.694      329.832      415.812      187.529        0.172        0.047       49.942       10.391        0.043      336.782        8.315      862.203
03/05/2014  07:04:00     -114.033       11.053      -13.969       34.718       22.281       12.510     1205.336      496.427      156.493        0.759        0.093      114.567        6.217        0.003      336.761        8.281      862.209
03/05/2014  07:05:00     -143.053       -4.177      -16.320       28.071       22.792       19.889      787.968      519.461      395.583        1.123        0.085      143.114       16.316        0.013      336.807        8.355      862.221
03/05/2014  07:06:00     -123.925      -35.218       -6.797       66.026       39.918       29.781     4359.436     1593.409      886.915        1.174        0.342      128.832       35.519        0.076      336.898        8.506      862.250
03/05/2014  07:07:00     -175.346       23.386      -14.662       39.441       38.725       31.346     1555.574     1499.638      982.543        1.777        0.202      176.899       18.608        0.011      336.929        8.559      862.285
03/05/2014  07:08:00     -112.266      -63.582      -11.694       84.961       43.667       24.299     7218.323     1906.813      590.451        1.325        0.486      129.020        7.805        0.004      336.921        8.544      862.342
03/05/2014  07:09:00     -138.391      -26.675       -2.425       38.570       44.502       26.065     1487.661     1980.430      679.363        1.201        0.207      140.938       25.491        0.033      336.907        8.523      862.371
03/05/2014  07:10:00      -55.106        7.735       -2.893       22.531       17.393       13.169      507.652      302.518      173.428        0.204        0.049       55.646        9.495        0.029      336.945        8.585      862.331
03/05/2014  07:11:00      -21.656       -8.509       -4.380        8.863       12.788        7.698       78.553      163.523       59.266        0.043        0.015       23.268        4.394        0.036      336.985        8.655      862.291
03/05/2014  07:12:00       -9.534      -19.218       -5.502       12.000       12.426       14.021      144.001      154.403      196.576        0.049        0.025       21.453       11.310        0.278      337.067        8.787      862.280
03/05/2014  07:13:00       -9.036       -2.588        3.837       17.010       18.783       16.718      289.324      352.788      279.499        0.051        0.046        9.399       15.976        2.889      337.108        8.858      862.299
03/05/2014  07:14:00       36.203       42.887       13.057        9.235       18.105       16.529       85.287      327.774      273.193        0.200        0.034       56.125       15.895        0.080      337.002        8.678      862.299
03/05/2014  07:15:00       21.342       54.749       -9.696        8.264       16.246        9.350       68.301      263.925       87.429        0.198        0.021       58.762        6.507        0.012      336.953        8.598      862.280
03/05/2014  07:16:00        7.393       77.896      -16.442       12.310        7.518        4.482      151.544       56.520       20.087        0.331        0.011       78.246        2.427        0.001      337.103        8.850      862.270
03/05/2014  07:17:00      -39.986        7.947       -1.551       24.226       37.554       10.963      586.923     1410.317      120.194        0.189        0.106       40.768        9.977        0.060      337.132        8.899      862.261
03/05/2014  07:18:00     -100.129      -26.405       -6.837       26.793       23.905       15.305      717.886      571.467      234.251        0.615        0.076      103.552       10.325        0.010      337.007        8.690      862.273
03/05/2014  07:19:00     -117.361       10.397      -11.401       31.477       23.658       16.116      990.828      559.682      259.724        0.791        0.091      117.821       15.473        0.017      336.997        8.673      862.294
03/05/2014  07:20:00      -94.260      -17.091       -9.630       39.392       29.809       20.546     1551.703      888.576      422.153        0.607        0.143       95.797       18.025        0.035      337.019        8.708      862.302
03/05/2014  07:21:00     -107.550       10.777       -8.362       32.157       33.897       17.251     1034.074     1149.020      297.582        0.712        0.124      108.088       13.130        0.015      337.049        8.759      862.309
03/05/2014  07:22:00     -135.204        7.957       -9.021       47.832       45.472       28.131     2287.918     2067.668      791.344        1.179        0.257      135.438       29.285        0.047      337.018        8.709      862.313
03/05/2014  07:23:00     -110.883       48.573      -16.560       40.436       23.396       21.980     1635.068      547.370      483.131        0.880        0.133      121.055       19.452        0.026      336.981        8.646      862.307
03/05/2014  07:24:00      -46.020       24.475       -6.443       21.218       15.175       11.853      450.221      230.286      140.505        0.179        0.041       52.123       10.329        0.039      337.180        8.982      862.298
03/05/2014  07:25:00      -47.608       15.202       -2.299       18.559       10.539        9.897      344.420      111.076       97.959        0.153        0.028       49.976       10.662        0.046      337.306        9.191      862.293
03/05/2014  07:26:00      -19.063       10.998        6.701       17.420        7.921        8.357      303.444       62.743       69.837        0.048        0.022       22.008        4.923        0.050      337.365        9.290      862.285
03/05/2014  07:27:00       16.115       13.322       -6.870       12.462        9.242        8.101      155.300       85.421       65.623        0.040        0.015       20.908        4.972        0.057      337.237        9.076      862.271
03/05/2014  07:28:00      -11.468        3.014        8.116       14.065       11.150       10.914      197.814      124.332      119.110        0.032        0.022       11.857        4.329        0.133      337.307        9.192      862.275
03/05/2014  07:29:00      -68.029      -29.301       -4.791       27.883       17.260        9.864      777.482      297.902       97.306        0.334        0.059       74.071        7.699        0.011      337.287        9.160      862.303
03/05/2014  07:30:00      -23.520      -49.686        8.031       39.229       22.543       23.995     1538.950      508.190      575.741        0.285        0.131       54.972       21.384        0.151      337.369        9.296      862.341
03/05/2014  07:31:00      -78.356      -97.312       -1.346       38.357       37.998       24.299     1471.242     1443.830      590.425        0.956        0.175      124.937       22.206        0.032      337.442        9.419      862.351
03/05/2014  07:32:00      -42.326       -7.945       27.223       38.553       67.737       30.287     1486.347     4588.342      917.324        0.479        0.350       43.065       39.296        0.833      337.499        9.513      862.317
03/05/2014  07:33:00      -33.278       17.184        7.696       20.058       24.836       21.840      402.320      616.808      476.982        0.148        0.075       37.453       21.051        0.316      337.515        9.541      862.238
03/05/2014  07:34:00       -0.809       47.805        9.624       20.157       21.769       28.838      406.287      473.909      831.638        0.204        0.086       47.812       19.335        0.164      337.550        9.600      862.197
03/05/2014  07:35:00       23.991       39.757       14.000       20.417       24.732       17.135      416.851      611.680      293.605        0.184        0.066       46.435       13.018        0.079      337.561        9.618      862.182
03/05/2014  07:36:00      -14.133       95.009      -18.794       19.266       24.286       10.203      371.187      589.812      104.092        0.532        0.053       96.055        3.477        0.001      337.530        9.565      862.164
03/05/2014  07:37:00       19.963       93.361      -15.534       23.982       22.848       18.788      575.124      522.014      353.000        0.540        0.073       95.471       10.690        0.013      337.453        9.437      862.146
03/05/2014  07:38:00       45.468       97.410      -12.248       27.279       43.251       23.049      744.129     1870.688      531.266        0.743        0.157      107.499       25.548        0.056      337.443        9.421      862.134
03/05/2014  07:39:00       31.533       97.904      -14.951       29.706       29.210       16.805      882.472      853.243      282.400        0.641        0.101      102.857       15.448        0.023      337.434        9.405      862.138
03/05/2014  07:40:00       27.813       58.956       -1.228       28.033       41.820       20.249      785.867     1748.879      410.008        0.360        0.147       65.187       21.520        0.109      337.469        9.462      862.152
03/05/2014  07:41:00        4.305      136.972      -14.896       26.446       30.978       17.046      699.384      959.651      290.576        1.048        0.097      137.040        9.389        0.005      337.405        9.357      862.177
03/05/2014  07:42:00       -7.824      145.170      -21.823       20.590       26.645       14.860      423.939      709.956      220.820        1.148        0.068      145.381       12.426        0.007      337.434        9.405      862.207
03/05/2014  07:43:00      -13.961      150.757      -17.548       18.053       23.531       16.164      325.901      553.702      261.259        1.219        0.057      151.402        6.356        0.002      337.532        9.569      862.199
03/05/2014  07:44:00      -14.756      123.121      -17.737       22.058       36.327       16.298      486.545     1319.660      265.611        0.888        0.104      124.002       16.399        0.017      337.550        9.600      862.185
03/05/2014  07:45:00       -5.670      160.688      -19.919       25.581       23.138       15.682      654.372      535.371      245.924        1.384        0.072      160.788       11.383        0.005      337.495        9.507      862.166
03/05/2014  07:46:00      -11.420      209.296      -25.280       15.668       25.051       11.409      245.491      627.545      130.171        2.279        0.050      209.607        9.220        0.002      337.512        9.533      862.132
03/05/2014  07:47:00       -2.744      205.421      -26.411       20.184       28.508       14.989      407.402      812.724      224.661        2.217        0.072      205.440       14.536        0.005      337.553        9.604      862.110
03/05/2014  07:48:00      -17.565      196.845      -24.941       25.562       29.338       18.327      653.432      860.745      335.890        2.076        0.093      197.628       14.246        0.005      337.550        9.599      862.112
03/05/2014  07:49:00      -50.572      203.264      -27.778       23.859       30.734       18.943      569.268      944.586      358.830        2.326        0.094      209.460       14.235        0.005      337.594        9.672      862.122
03/05/2014  07:50:00      -42.537      149.007      -17.919       28.652       32.477       16.153      820.927     1054.742      260.913        1.323        0.107      154.960       13.084        0.007      337.669        9.799      862.151
03/05/2014  07:51:00        8.405      124.793      -12.336       38.167       45.853       28.954     1456.736     2102.524      838.336        1.010        0.220      125.076       25.004        0.040      337.745        9.926      862.166
03/05/2014  07:52:00       18.626       63.619       -1.943       21.290       21.729       21.422      453.278      472.171      458.916        0.289        0.069       66.289       13.890        0.044      337.800       10.020      862.152
03/05/2014  07:53:00      -39.777      -15.271        2.619       26.334       26.192       20.906      693.485      686.033      437.043        0.182        0.091       42.608       11.118        0.068      337.859       10.117      862.151
03/05/2014  07:54:00      -30.535       18.703       -7.799       30.774       29.025       19.635      947.056      842.466      385.531        0.176        0.109       35.808       22.853        0.407      337.916       10.214      862.167
03/05/2014  07:55:00      -20.342       71.506       -0.118       48.775       51.355       30.234     2379.032     2637.287      914.066        0.573        0.297       74.343       29.837        0.161      337.878       10.151      862.204
03/05/2014  07:56:00        6.626       52.301       -7.442       21.381       49.104       17.985      457.130     2411.185      323.448        0.301        0.160       52.719       24.359        0.214      337.965       10.296      862.259
03/05/2014  07:57:00      -67.852        9.628       -3.604       38.543       31.986       20.583     1485.562     1023.091      423.660        0.382        0.147       68.532       18.381        0.072      337.935       10.246      862.302
03/05/2014  07:58:00      -44.965       67.143      -17.680       24.267       31.962       17.903      588.887     1021.543      320.529        0.439        0.097       80.809        6.695        0.007      337.910       10.204      862.325
03/05/2014  07:59:00       -6.608       34.788       -1.051       13.420       35.375       17.574      180.091     1251.374      308.846        0.150        0.087       35.410        6.246        0.031      338.049       10.435      862.342
03/05/2014  08:00:00       -3.500       63.997        6.478       29.467       35.670       27.597      868.305     1272.381      761.603        0.353        0.145       64.092       21.983        0.118      338.078       10.485      862.361
03/05/2014  08:01:00      -19.099       21.403        3.249       14.923       26.385       15.490      222.685      696.155      239.925        0.100        0.058       28.686       11.506        0.161      338.052       10.442      862.398
03/05/2014  08:02:00       -4.903       -0.379       10.462       13.580       11.277       10.197      184.408      127.165      103.986        0.027        0.021        4.918        5.704        1.345      338.238       10.754      862.446
03/05/2014  08:03:00      -85.967       12.441       -5.677       37.804       16.364       15.105     1429.178      267.786      228.174        0.475        0.096       86.862       18.448        0.045      337.982       10.324      862.500
03/05/2014  08:04:00      -98.476       31.215      -14.120       18.581       17.438       13.069      345.255      304.087      170.796        0.585        0.041      103.305        5.519        0.003      337.926       10.228      862.557
03/05/2014  08:05:00      -61.944       53.959       -8.061       25.505       36.381       15.553      650.510     1323.589      241.902        0.451        0.111       82.150       14.787        0.032      338.020       10.390      862.604
03/05/2014  08:06:00      -64.666       91.956       -6.167       36.940       38.487       27.498     1364.577     1481.263      756.119        0.814        0.180      112.417       17.578        0.024      338.131       10.573      862.623
03/05/2014  08:07:00     -104.406       25.381       -8.960       37.163       49.768       28.489     1381.069     2476.856      811.623        0.815        0.233      107.447       22.411        0.044      338.038       10.419      862.644
03/05/2014  08:08:00     -101.558       43.269      -13.738       28.416       24.667       20.935      807.496      608.448      438.277        0.711        0.093      110.391       11.315        0.011      338.017       10.383      862.664
03/05/2014  08:09:00      -63.738      -26.068       -0.093       34.607       26.659       16.794     1197.667      710.687      282.051        0.347        0.110       68.863       14.034        0.042      338.085       10.497      862.678
03/05/2014  08:10:00        4.407       24.266       10.640       17.832       43.421       21.942      317.985     1885.423      481.449        0.170        0.134       24.663       16.626        0.454      338.230       10.741      862.678
03/05/2014  08:11:00      -51.970       79.762       -5.610       39.339       35.557       19.829     1547.583     1264.335      393.171        0.615        0.160       95.198       17.057        0.032      338.208       10.702      862.668
03/05/2014  08:12:00      -20.701       56.447       -4.421       44.404       26.333       18.067     1971.717      693.437      326.428        0.331        0.150       60.123       19.301        0.103      338.212       10.711      862.656
03/05/2014  08:13:00       45.706       94.550       -7.333       30.406       39.861       31.518      924.536     1588.939      993.396        0.729        0.175      105.018       27.436        0.068      338.164       10.630      862.653
03/05/2014  08:14:00        0.687      141.046      -18.539       19.596       41.670       20.637      384.018     1736.405      425.867        1.139        0.127      141.048       21.977        0.024      338.092       10.509      862.662
03/05/2014  08:15:00        6.927      136.525      -17.460       19.532       23.623       10.967      381.495      558.059      120.275        1.003        0.053      136.701        8.352        0.004      338.083       10.494      862.667
03/05/2014  08:16:00        4.837       80.197       -5.069       13.288       22.043       15.856      176.579      485.875      251.399        0.370        0.046       80.343        8.687        0.012      338.200       10.691      862.679
03/05/2014  08:17:00       -6.882      107.568      -13.726       14.148       25.481       14.338      200.161      649.276      205.579        0.643        0.053      107.788       12.580        0.014      338.202       10.694      862.694
03/05/2014  08:18:00        5.743       67.818      -12.960       20.500       40.504       20.922      420.256     1640.566      437.726        0.365        0.125       68.061       22.165        0.106      338.256       10.783      862.695
03/05/2014  08:19:00        5.250       23.899        4.486       26.700       24.376       19.177      712.890      594.174      367.775        0.115        0.084       24.469        9.848        0.162      338.484       11.168      862.677
03/05/2014  08:20:00       37.271       73.778      -10.689       24.285       38.553       29.064      589.762     1486.337      844.710        0.493        0.146       82.658       28.770        0.121      338.307       10.870      862.660
03/05/2014  08:21:00       66.260       39.578        1.001       32.958       32.128       19.397     1086.258     1032.198      376.242        0.423        0.125       77.180        7.414        0.009      338.258       10.789      862.632
03/05/2014  08:22:00       50.981       39.546        3.176       26.652       31.659       24.196      710.303     1002.273      585.461        0.324        0.115       64.521        8.870        0.019      338.306       10.868      862.593
03/05/2014  08:23:00       56.079       44.832        4.502       43.165       31.660       22.166     1863.228     1002.351      491.330        0.427        0.168       71.797       17.910        0.062      338.382       10.996      862.548
03/05/2014  08:24:00      101.717       73.154       18.618       34.380       34.499       35.238     1181.991     1190.191     1241.705        0.983        0.181      125.292       19.803        0.025      338.304       10.866      862.510
03/05/2014  08:25:00      -20.210      130.429      -17.487       30.519       50.143       19.945      931.384     2514.335      397.787        1.078        0.192      131.985       22.739        0.030      338.264       10.795      862.502
03/05/2014  08:26:00      -34.373      115.201      -10.344       29.163       40.638       27.964      850.487     1651.456      782.002        0.892        0.164      120.220       30.239        0.063      338.272       10.811      862.495
03/05/2014  08:27:00      -17.632       91.829      -12.768       17.195       27.062       15.198      295.665      732.351      230.984        0.508        0.063       93.506       15.412        0.027      338.228       10.738      862.495
03/05/2014  08:28:00        2.567       27.720        5.631       18.301       25.586       13.814      334.918      654.651      190.830        0.099        0.059       27.839       13.485        0.235      338.573       11.315      862.485
03/05/2014  08:29:00       39.150       44.942       -5.531       18.770       17.870       16.344      352.324      319.344      267.116        0.226        0.047       59.603        9.723        0.027      338.314       10.880      862.463
03/05/2014  08:30:00       12.398       18.117       -7.764        8.721       20.355       10.252       76.053      414.306      105.106        0.057        0.030       21.953       12.423        0.320      338.408       11.040      862.446
03/05/2014  08:31:00       -3.536       12.079       24.512        9.506       14.283        8.866       90.365      204.014       78.598        0.057        0.019       12.585        8.816        0.491      338.725       11.571      862.450
03/05/2014  08:32:00        4.337        2.305        9.642        8.992       15.719       11.031       80.862      247.078      121.681        0.028        0.022        4.911       10.521        4.589      338.759       11.629      862.470
03/05/2014  08:33:00       27.208       34.351       22.805       20.494       14.980       17.815      419.987      224.403      317.378        0.170        0.048       43.821       11.648        0.071      338.643       11.433      862.493
03/05/2014  08:34:00       -2.318       80.875       -8.069       29.443       54.571       22.318      866.915     2978.013      498.088        0.548        0.217       80.908       32.855        0.165      338.371       10.977      862.497
03/05/2014  08:35:00      -13.890       65.578        3.597       19.999       47.962       28.209      399.950     2300.392      795.757        0.400        0.175       67.033       29.805        0.198      338.543       11.266      862.491
03/05/2014  08:36:00       27.061       27.617       -1.037       27.345       35.073       22.576      747.728     1230.098      509.653        0.199        0.124       38.665       23.844        0.380      338.558       11.291      862.504
03/05/2014  08:37:00       37.106       21.006       11.077       34.307       21.275       16.690     1176.994      452.608      278.542        0.192        0.095       42.639        8.646        0.041      338.695       11.521      862.529
03/05/2014  08:38:00        9.826       18.429        9.171       23.476       20.621       16.040      551.146      425.215      257.273        0.088        0.062       20.885       14.411        0.476      338.773       11.653      862.565
03/05/2014  08:39:00       46.815       54.946       16.920       56.302       30.288       35.203     3169.878      917.352     1239.251        0.541        0.266       72.185       24.667        0.117      338.576       11.321      862.592
03/05/2014  08:40:00       17.893       50.319        6.349       26.369       29.020       19.531      695.306      842.172      381.463        0.241        0.096       53.405       15.828        0.088      338.625       11.403      862.591
03/05/2014  08:41:00       43.185       54.027        3.672       42.514       47.714       24.996     1807.417     2276.646      624.799        0.475        0.235       69.165       21.641        0.098      338.590       11.346      862.597
03/05/2014  08:42:00      115.641       56.866       19.306       60.276       31.431       37.463     3633.240      987.937     1403.444        1.150        0.301      128.867       34.251        0.071      338.519       11.226      862.595
03/05/2014  08:43:00      105.645       72.899       25.468       50.650       36.317       40.141     2565.420     1318.901     1611.300        1.131        0.275      128.355       35.347        0.076      338.583       11.333      862.600
03/05/2014  08:44:00       89.950       59.195        1.211       65.220       47.086       34.975     4253.639     2217.049     1223.250        0.964        0.385      107.680       25.275        0.055      338.492       11.180      862.609
03/05/2014  08:45:00       83.817       53.670       13.512       49.964       31.698       30.588     2496.379     1004.762      935.645        0.726        0.222       99.528       15.268        0.024      338.530       11.245      862.616
03/05/2014  08:46:00      114.771       55.445        4.173       59.763       42.486       38.470     3571.572     1805.086     1479.909        1.156        0.343      127.462       34.981        0.075      338.542       11.264      862.631
03/05/2014  08:47:00       62.086       46.454        0.103       36.614       25.620       24.749     1340.588      656.375      612.509        0.431        0.130       77.541       14.992        0.037      338.665       11.470      862.644
03/05/2014  08:48:00       82.731       61.179       13.507       45.855       31.249       29.754     2102.697      976.476      885.283        0.737        0.198      102.894       22.348        0.047      338.691       11.514      862.676
03/05/2014  08:49:00        4.330       16.491       32.053       30.897       30.759       20.170      954.623      946.093      406.813        0.181        0.115       17.050        5.600        0.108      338.969       11.981      862.716
03/05/2014  08:50:00        0.867       -5.382       26.709       20.544       36.454       23.045      422.071     1328.886      531.059        0.151        0.114        5.451       15.813        8.414      339.006       12.044      862.751
03/05/2014  08:51:00       14.581       53.275       57.937       30.123       28.343       29.205      907.415      803.340      852.927        0.449        0.128       55.234       22.998        0.173      338.915       11.891      862.766
03/05/2014  08:52:00       79.916       72.728       60.444       61.911       37.888       39.293     3832.937     1435.493     1543.965        1.107        0.341      108.055       33.211        0.094      338.707       11.541      862.760
03/05/2014  08:53:00       94.746      107.374       69.944       52.145       26.150       33.993     2719.130      683.807     1155.548        1.498        0.228      143.199       29.081        0.041      338.531       11.246      862.744
03/05/2014  08:54:00      108.901       68.405       19.729       47.020       31.510       29.952     2210.875      992.864      897.132        1.051        0.205      128.603       26.161        0.041      338.537       11.257      862.719
03/05/2014  08:55:00       44.012       32.583       15.362       22.289       19.153       18.792      496.779      366.839      353.142        0.223        0.061       54.760       10.309        0.035      338.593       11.350      862.692
03/05/2014  08:56:00       52.252       49.690       28.310       30.655       20.853       26.716      939.702      434.865      713.769        0.404        0.104       72.107       21.600        0.090      338.675       11.488      862.666
03/05/2014  08:57:00       26.821       40.216       39.586       35.517       38.447       30.558     1261.435     1478.193      933.766        0.379        0.184       48.339       25.563        0.280      338.901       11.868      862.634
03/05/2014  08:58:00      106.487       79.109        0.255       43.979       28.905       36.308     1934.118      835.472     1318.242        1.084        0.204      132.656       19.299        0.021      338.704       11.536      862.585
03/05/2014  08:59:00      144.482       87.241        2.230       37.125       38.235       24.556     1378.252     1461.909      602.974        1.597        0.172      168.778       11.101        0.004      338.565       11.302      862.548
03/05/2014  09:00:00       60.226       41.083       26.412       42.480       31.540       29.589     1804.591      994.780      875.487        0.484        0.184       72.904       24.701        0.115      338.778       11.661      862.511
03/05/2014  09:01:00       25.631       54.667       -4.326       19.633       38.829       24.593      385.456     1507.670      604.824        0.308        0.125       60.377       28.803        0.228      338.809       11.713      862.507
03/05/2014  09:02:00       44.206       33.448        7.177       21.016       29.449       23.284      441.654      867.228      542.162        0.249        0.093       55.435        9.698        0.031      338.917       11.896      862.479
03/05/2014  09:03:00      112.711       77.543       12.476       43.284       39.955       32.971     1873.504     1596.404     1087.077        1.171        0.228      136.809       21.820        0.025      338.773       11.654      862.466
03/05/2014  09:04:00      125.996       86.305        1.119       51.396       27.527       28.221     2641.537      757.759      796.434        1.376        0.210      152.720       14.418        0.009      338.553       11.282      862.437
03/05/2014  09:05:00       41.854       43.892       -0.140       32.582       25.004       22.477     1061.612      625.205      505.235        0.293        0.110       60.649       15.974        0.069      338.799       11.695      862.420
03/05/2014  09:06:00       38.251       40.843        1.783       50.666       43.174       32.541     2567.008     1863.979     1058.948        0.431        0.274       55.957       32.341        0.334      338.977       11.997      862.400
03/05/2014  09:07:00       55.109       35.940       20.612       39.098       31.389       32.741     1528.690      985.292     1071.978        0.417        0.179       65.793       11.585        0.031      339.002       12.037      862.386
03/05/2014  09:08:00       92.448      109.057       87.646       62.754       35.141       33.857     3938.030     1234.921     1146.307        1.722        0.316      142.969       35.359        0.061      338.772       11.651      862.379
03/05/2014  09:09:00       71.793       46.756       36.574       32.859       28.102       29.093     1079.706      789.706      846.383        0.570        0.136       85.676       17.589        0.042      338.964       11.975      862.397
03/05/2014  09:10:00       11.724       27.764       43.673       26.040       41.233       22.690      678.081     1700.184      514.855        0.285        0.145       30.138       21.510        0.509      339.293       12.528      862.424
03/05/2014  09:11:00        8.347       36.535       61.461       24.937       29.806       17.992      621.868      888.423      323.703        0.351        0.092       37.477       20.248        0.292      339.319       12.570      862.461
03/05/2014  09:12:00       49.221      -22.980       35.786       53.648       53.662       34.504     2878.131     2879.614     1190.560        0.559        0.347       54.321       32.133        0.350      339.061       12.136      862.481
03/05/2014  09:13:00       29.075       27.760       69.463       39.374       30.363       27.315     1550.322      921.939      746.124        0.483        0.161       40.199       20.978        0.272      339.107       12.214      862.479
03/05/2014  09:14:00       22.878       29.327       50.506       32.042       46.640       28.894     1026.722     2175.285      834.892        0.398        0.202       37.196       30.850        0.688      339.285       12.514      862.474
03/05/2014  09:15:00        7.427      -90.006       12.942       40.909       50.371       35.244     1673.518     2537.277     1242.171        0.689        0.273       90.312       32.017        0.126      339.282       12.508      862.475
03/05/2014  09:16:00       37.486      -56.381        7.184       41.170       53.536       31.063     1694.959     2866.136      964.910        0.508        0.276       67.706       35.864        0.281      339.197       12.366      862.486
03/05/2014  09:17:00        8.290       14.646        9.393       20.343       22.114       17.285      413.819      489.011      298.775        0.079        0.060       16.830       12.226        0.528      339.021       12.070      862.477
03/05/2014  09:18:00       26.767       31.754       32.270       24.165       19.386       19.094      583.927      375.817      364.577        0.205        0.066       41.531       16.626        0.160      339.072       12.155      862.464
03/05/2014  09:19:00       -1.613       39.779       68.193       15.675       34.416       17.826      245.714     1184.494      317.772        0.399        0.087       39.812       20.773        0.272      339.328       12.586      862.452
03/05/2014  09:20:00       28.178       47.483       55.561       46.006       35.370       26.566     2116.510     1251.017      705.761        0.510        0.204       55.214       22.257        0.162      339.183       12.342      862.430
03/05/2014  09:21:00      101.406       51.992        9.491       37.192       37.219       26.823     1383.271     1385.247      719.478        0.828        0.174      113.958       15.117        0.018      339.067       12.146      862.403
03/05/2014  09:22:00       77.315       79.905       36.074       55.718       38.755       42.350     3104.445     1501.974     1793.514        1.003        0.320      111.186       39.446        0.126      339.177       12.332      862.368
03/05/2014  09:23:00       68.341       76.441       56.726       37.107       49.305       40.542     1376.909     2430.934     1643.634        0.959        0.273      102.536       33.957        0.110      339.143       12.275      862.356
03/05/2014  09:24:00       45.362       60.412       56.618       43.400       48.666       46.467     1883.550     2368.384     2159.189        0.766        0.321       75.547       44.914        0.353      339.029       12.082      862.349
03/05/2014  09:25:00       10.906       15.471       73.064       30.251       43.764       24.221      915.109     1915.322      586.637        0.456        0.171       18.928       24.272        1.644      339.207       12.381      862.372
03/05/2014  09:26:00       73.294       43.977       38.640       27.041       30.264       30.285      731.216      915.919      917.160        0.568        0.128       85.475       19.880        0.054      338.939       11.932      862.393
03/05/2014  09:27:00       51.408       38.829       32.446       32.474       30.425       29.585     1054.531      925.659      875.267        0.403        0.143       64.425       17.393        0.073      339.154       12.293      862.393
03/05/2014  09:28:00      124.212       76.277       20.943       49.534       23.823       32.273     2453.622      567.553     1041.571        1.287        0.203      145.762       15.663        0.012      338.934       11.924      862.387
03/05/2014  09:29:00      134.546       68.996       29.392       65.382       42.790       38.038     4274.780     1830.946     1446.898        1.564        0.378      151.205       29.585        0.038      339.014       12.056      862.385
03/05/2014  09:30:00       85.779       56.855       14.259       72.692       45.213       39.386     5284.184     2044.257     1551.226        0.984        0.444      102.910       36.089        0.123      339.211       12.388      862.372
03/05/2014  09:31:00       61.421       51.546       61.108       64.542       62.343       48.219     4165.717     3886.631     2325.031        1.027        0.519       80.184       41.309        0.265      339.354       12.631      862.368
03/05/2014  09:32:00      108.419       88.304       32.939       49.447       28.714       36.291     2445.005      824.501     1317.024        1.261        0.229      139.830       25.929        0.034      339.010       12.051      862.354
03/05/2014  09:33:00       15.621      -13.662       43.981       29.052       62.446       31.006      844.011     3899.475      961.345        0.403        0.285       20.752       36.224        3.047      339.463       12.814      862.347
03/05/2014  09:34:00       63.775       -7.905       25.019       55.825       93.358       57.558     3116.441     8715.718     3312.875        0.995        0.757       64.263       66.036        1.056      339.377       12.669      862.346
03/05/2014  09:35:00       76.248       78.737       83.407       56.810       42.391       48.641     3227.370     1796.974     2365.957        1.318        0.370      109.605       36.935        0.114      339.151       12.287      862.331
03/05/2014  09:36:00       60.614       15.827       51.905       73.545       56.524       34.976     5408.884     3195.016     1223.305        0.822        0.491       62.646       30.987        0.245      339.283       12.511      862.321
03/05/2014  09:37:00      149.916       97.570       22.016       64.958       45.024       41.656     4219.594     2027.177     1735.183        2.023        0.399      178.870       24.956        0.019      339.234       12.426      862.314
03/05/2014  09:38:00      133.686       78.575       42.886       74.590       51.966       48.842     5563.634     2700.460     2385.504        1.827        0.532      155.068       34.892        0.051      339.330       12.589      862.325
03/05/2014  09:39:00      134.634       58.714       21.069       58.795       35.423       38.542     3456.863     1254.794     1485.516        1.411        0.310      146.880       22.519        0.024      339.246       12.448      862.329
03/05/2014  09:40:00       67.226       46.532       58.795       56.725       50.701       37.100     3217.722     2570.574     1376.434        0.865        0.358       81.759       32.925        0.162      339.369       12.656      862.337
03/05/2014  09:41:00       50.123       75.078       80.205       72.317       50.561       56.780     5229.743     2556.449     3223.955        1.279        0.551       90.272       46.839        0.269      339.471       12.827      862.347
03/05/2014  09:42:00      133.885       98.745       66.375       74.556       61.082       57.412     5558.651     3731.012     3296.147        2.233        0.629      166.360       50.191        0.091      339.346       12.615      862.350
03/05/2014  09:43:00      146.848       64.889       25.582       62.198       48.514       43.739     3868.531     2353.604     1913.114        1.728        0.407      160.546       21.646        0.018      339.293       12.525      862.368
03/05/2014  09:44:00      116.688       82.343       19.432       31.826       31.527       35.383     1012.899      993.973     1251.932        1.202        0.163      142.816       24.147        0.029      339.168       12.316      862.373
03/05/2014  09:45:00       68.735       30.227        8.507       38.071       30.300       25.727     1449.400      918.072      661.903        0.437        0.151       75.087       20.721        0.076      339.186       12.346      862.369
03/05/2014  09:46:00      129.400       90.496       18.566       31.453       38.545       36.298      989.306     1485.683     1317.554        1.453        0.190      157.905       19.298        0.015      339.277       12.499      862.355
03/05/2014  09:47:00       87.397       42.385       14.367       45.430       35.896       27.900     2063.904     1288.492      778.419        0.689        0.207       97.133       13.786        0.020      339.257       12.467      862.350
03/05/2014  09:48:00      104.076       70.485       36.173       45.648       31.432       39.190     2083.779      987.943     1535.867        1.086        0.230      125.698       31.575        0.063      339.458       12.803      862.341
03/05/2014  09:49:00      121.802       60.452       11.839       58.306       39.962       45.862     3399.595     1597.001     2103.334        1.286        0.355      135.979       32.276        0.056      339.501       12.877      862.340
03/05/2014  09:50:00       74.532       48.265       38.321       56.191       42.056       39.077     3157.395     1768.709     1527.003        0.790        0.323       88.795       35.986        0.164      339.745       13.289      862.339
03/05/2014  09:51:00       46.865       52.655       46.698       36.037       29.077       31.299     1298.633      845.486      979.632        0.514        0.156       70.491       17.111        0.059      339.800       13.381      862.342
03/05/2014  09:52:00       19.699       -3.472       33.730       55.731       45.180       35.307     3105.932     2041.238     1246.601        0.396        0.320       20.003       24.318        1.478      339.983       13.690      862.319
03/05/2014  09:53:00       83.162       78.258       80.645       52.036       44.720       36.558     2707.720     1999.874     1336.503        1.279        0.302      114.194       20.555        0.032      339.690       13.197      862.301
03/05/2014  09:54:00      107.963       69.864       39.895       56.238       49.088       33.326     3162.721     2409.622     1110.655        1.240        0.334      128.596       21.004        0.027      339.616       13.071      862.297
03/05/2014  09:55:00        8.424       49.378       71.536       38.425       49.853       31.128     1476.445     2485.273      968.945        0.628        0.247       50.091       22.605        0.204      339.992       13.705      862.304
03/05/2014  09:56:00       26.209       24.901       71.976       41.306       73.741       40.950     1706.180     5437.690     1676.941        0.765        0.441       36.152       41.076        1.291      340.077       13.849      862.302
03/05/2014  09:57:00       -0.660        7.928       64.789       32.527       83.697       45.835     1058.038     7005.146     2100.851        0.721        0.508        7.955       54.018       46.105      340.050       13.804      862.282
03/05/2014  09:58:00       29.897      -87.898       20.632       56.363       91.061       45.948     3176.792     8292.016     2111.240        1.131        0.679       92.843       45.411        0.239      340.021       13.754      862.287
03/05/2014  09:59:00       39.579        5.895       68.338       62.500       88.729       58.399     3906.257     7872.906     3410.485        1.073        0.759       40.015       67.980        2.886      340.067       13.832      862.296
03/05/2014  10:00:00       76.563       -3.710       58.578       53.428       58.778       36.414     2854.560     3454.885     1326.014        0.847        0.382       76.653       31.986        0.174      339.852       13.469      862.314
03/05/2014  10:01:00       63.590      -90.690       -4.794       78.411      117.659       55.418     6148.346    13843.753     3071.114        1.767        1.153      110.763       63.464        0.328      339.887       13.527      862.299
03/05/2014  10:02:00      110.675      -88.882      -11.790       89.489       96.920       60.203     8008.222     9393.573     3624.443        2.065        1.051      141.947       72.113        0.258      339.859       13.480      862.285
03/05/2014  10:03:00       51.531       25.960       62.767       54.610       70.527       56.695     2982.283     4974.035     3214.360        0.922        0.559       57.701       45.826        0.631      339.965       13.660      862.256
03/05/2014  10:04:00       57.593      113.207      111.026       58.294       47.410       44.067     3398.187     2247.691     1941.923        1.802        0.379      127.015       41.734        0.108      339.708       13.224      862.230
03/05/2014  10:05:00       17.424       10.422       59.422       41.059       53.303       37.546     1685.881     2841.179     1409.673        0.494        0.297       20.303       39.131        3.715      340.178       14.019      862.231
03/05/2014  10:06:00       73.896     -129.993      -14.907       69.107       90.032       48.425     4775.823     8105.733     2345.010        1.890        0.761      149.529       58.529        0.153      340.018       13.747      862.218
03/05/2014  10:07:00       46.017      -31.740      -10.458       66.501       75.462       39.030     4422.431     5694.492     1523.352        0.744        0.582       55.902       48.027        0.738      340.064       13.827      862.215
03/05/2014  10:08:00       13.554       10.863       41.751       35.310       41.346       36.853     1246.783     1709.473     1358.127        0.318        0.216       17.370       26.423        2.314      340.616       14.761      862.203
03/05/2014  10:09:00       21.265     -114.223       32.770       52.470       68.582       54.591     2753.118     4703.435     2980.132        1.250        0.522      116.185       45.754        0.155      340.144       13.961      862.206
03/05/2014  10:10:00       49.539      -84.392       -5.935       54.129       44.243       26.558     2929.948     1957.454      705.314        0.760        0.280       97.857       13.258        0.018      339.898       13.546      862.232
03/05/2014  10:11:00       -0.739      -48.989       30.636       65.947       62.987       46.504     4349.007     3967.419     2162.624        0.691        0.524       48.995       34.124        0.485      340.197       14.052      862.232
03/05/2014  10:12:00       93.958     -181.104      -20.359       77.617       80.123       52.133     6024.383     6419.622     2717.847        2.860        0.758      204.026       49.969        0.060      339.875       13.505      862.244
03/05/2014  10:13:00       32.012      -18.453       41.696       48.458       69.356       58.746     2348.184     4810.313     3451.148        0.685        0.530       36.950       46.212        1.564      340.212       14.077      862.250
03/05/2014  10:14:00       77.662      -65.470       27.694       98.083       98.553       63.270     9620.189     9712.630     4003.134        1.721        1.167      101.576       67.931        0.447      340.121       13.922      862.274
03/05/2014  10:15:00       46.161      -79.371       19.065       53.001       81.301       52.984     2809.124     6609.773     2807.356        1.051        0.611       91.818       53.807        0.343      340.198       14.053      862.298
03/05/2014  10:16:00       46.291     -124.535       11.381       57.150       85.643       52.757     3266.107     7334.725     2783.316        1.558        0.669      132.860       50.824        0.146      340.079       13.851      862.318
03/05/2014  10:17:00       69.817      -16.605       35.915       70.624      105.697       63.809     4987.720    11171.906     4071.627        1.333        1.012       71.764       82.386        1.318      339.882       13.520      862.342
03/05/2014  10:18:00       -4.083      102.103      155.766       69.814       84.593       53.958     4873.977     7155.929     2911.508        2.482        0.747      102.184       56.053        0.301      340.155       13.978      862.352
03/05/2014  10:19:00       59.716      -66.841       25.042       76.153      111.387       76.574     5799.221    12407.175     5863.526        1.636        1.203       89.631       83.299        0.864      340.076       13.846      862.366
03/05/2014  10:20:00       67.646      -50.729       24.195       44.185      107.861       51.293     1952.302    11634.040     2630.959        1.197        0.811       84.554       70.336        0.692      339.804       13.388      862.372
03/05/2014  10:21:00       72.941      -60.552        6.557       44.449       62.714       41.674     1975.706     3932.985     1736.727        0.834        0.382       94.799       41.807        0.194      339.927       13.596      862.360
03/05/2014  10:22:00       73.558       77.939       94.614       62.859      104.256       70.693     3951.247    10869.353     4997.556        2.012        0.991      107.169       77.731        0.526      340.119       13.919      862.319
03/05/2014  10:23:00       44.851      -52.026       52.271       55.418      109.777       75.584     3071.130    12051.064     5712.882        1.414        1.042       68.690       89.537        1.699      340.244       14.131      862.293
03/05/2014  10:24:00      -52.128     -156.483       -9.148       85.726       58.267       35.276     7348.951     3395.087     1244.403        1.964        0.599      164.937       34.483        0.044      340.097       13.880      862.290
03/05/2014  10:25:00       13.416      -93.972      -13.952       50.798       54.138       30.467     2580.465     2930.902      928.251        0.782        0.322       94.925       25.675        0.073      340.228       14.103      862.264
03/05/2014  10:26:00       13.096      -17.963       24.774       43.340       68.634       35.923     1878.334     4710.594     1290.437        0.449        0.394       22.230       35.024        2.482      340.496       14.555      862.237
03/05/2014  10:27:00       24.868      -13.635       34.752       67.664       70.186       50.065     4578.387     4926.111     2506.535        0.701        0.601       28.361       55.101        3.775      340.414       14.419      862.208
03/05/2014  10:28:00       -5.070      -57.758        7.255       76.256       65.810       33.865     5814.949     4330.959     1146.853        0.735        0.565       57.980       40.580        0.490      340.445       14.469      862.194
03/05/2014  10:29:00       43.643        1.562       59.715       54.703       82.319       58.134     2992.431     6776.381     3379.585        0.931        0.657       43.671       60.188        1.899      340.330       14.276      862.176
03/05/2014  10:30:00      -31.737     -103.278        5.813       87.273       80.067       43.138     7616.499     6410.704     1860.850        1.380        0.794      108.044       43.470        0.162      340.076       13.846      862.172
03/05/2014  10:31:00     -120.627     -113.041       -7.157       59.965       83.859       33.127     3595.840     7032.352     1097.423        1.955        0.586      165.316        9.549        0.003      339.978       13.680      862.162
03/05/2014  10:32:00       41.015      -58.395        3.016       70.164       61.022       31.589     4922.974     3723.667      997.889        0.737        0.482       71.359       24.776        0.121      340.341       14.294      862.155
03/05/2014  10:33:00       53.474      -46.178       29.269       66.776       79.022       48.179     4458.989     6244.422     2321.248        0.943        0.651       70.653       45.015        0.406      340.403       14.399      862.130
03/05/2014  10:34:00       -6.262      -43.871       33.505       65.045       75.669       50.648     4230.910     5725.849     2565.255        0.780        0.626       44.315       26.815        0.366      340.421       14.430      862.131
03/05/2014  10:35:00      -37.838       -8.332       14.702       27.444       35.048       24.158      753.185     1228.380      583.630        0.214        0.128       38.745        3.463        0.008      340.525       14.606      862.153
03/05/2014  10:36:00       21.124      -65.238        4.264       46.384       84.957       48.275     2151.498     7217.667     2330.430        0.821        0.585       68.573       55.890        0.664      340.529       14.613      862.147
03/05/2014  10:37:00      -10.052       67.850      106.578       21.895       38.278       27.564      479.375     1465.210      759.793        0.938        0.135       68.591       24.021        0.123      340.399       14.393      862.153
03/05/2014  10:38:00        2.442       22.097       62.963       21.147       24.194       15.529      447.197      585.360      241.157        0.287        0.064       22.231       16.003        0.518      340.552       14.651      862.149
03/05/2014  10:39:00       40.951        9.756       50.554       57.007       80.195       60.374     3249.822     6431.178     3645.011        0.882        0.666       42.097       62.862        2.230      340.467       14.507      862.119
03/05/2014  10:40:00       57.345       27.934       49.754       70.941       90.394       48.913     5032.612     8171.095     2392.448        1.107        0.780       63.787       54.701        0.735      340.327       14.271      862.120
03/05/2014  10:41:00       68.639       13.513       39.181       34.192       60.476       37.095     1169.116     3657.370     1376.004        0.631        0.310       69.956       35.866        0.263      340.432       14.449      862.132
03/05/2014  10:42:00      -20.753      -10.554       29.082       43.063       36.556       24.272     1854.411     1336.375      589.113        0.258        0.189       23.283       27.263        1.371      340.859       15.171      862.136
03/05/2014  10:43:00      -49.791      -38.124        5.900       45.514       27.133       22.129     2071.489      736.192      489.709        0.363        0.165       62.710       19.754        0.099      340.677       14.863      862.149
03/05/2014  10:44:00      -65.504     -174.551        8.810       56.972       75.397       40.655     3245.783     5684.779     1652.808        2.271        0.529      186.437       28.223        0.023      340.384       14.365      862.141
03/05/2014  10:45:00     -108.237      -94.866      -24.515       54.795       53.738       29.508     3002.494     2887.727      870.695        1.404        0.338      143.926       11.147        0.006      340.134       13.946      862.136
03/05/2014  10:46:00     -121.837     -122.941       -8.577       45.989       39.114       27.897     2114.985     1529.938      778.250        1.723        0.221      173.086       23.127        0.018      340.138       13.952      862.136
03/05/2014  10:47:00     -152.278     -129.233       -4.826       82.738       54.267       47.119     6845.650     2944.902     2220.218        2.596        0.601      199.724       42.810        0.046      340.366       14.333      862.127
03/05/2014  10:48:00     -119.459      -76.216      -11.364       76.476       46.228       36.661     5848.563     2136.987     1343.997        1.477        0.466      141.702       32.199        0.052      340.455       14.487      862.097
03/05/2014  10:49:00      -45.337      -55.978       17.920       62.988       64.849       41.409     3967.533     4205.337     1714.719        0.770        0.494       72.035       33.543        0.217      341.139       15.643      862.047
03/05/2014  10:50:00     -187.659     -212.573       -0.907      146.238       98.930       66.548    21385.417     9787.205     4428.582        5.800        1.780      283.555       64.268        0.051      340.740       14.966      862.050
03/05/2014  10:51:00      -97.842     -195.713       -2.160      121.199      103.657       53.155    14689.111    10744.823     2825.489        3.807        1.413      218.808       38.388        0.031      340.687       14.876      862.054
03/05/2014  10:52:00      -70.593      -81.498       -9.921       44.020       75.532       36.649     1937.739     5705.148     1343.163        1.035        0.449      107.821       16.814        0.024      340.917       15.269      862.016
03/05/2014  10:53:00     -215.221      -18.945       -5.902       95.406       92.811       42.612     9102.253     8613.868     1815.748        3.312        0.977      216.053       43.192        0.040      340.651       14.817      862.032
03/05/2014  10:54:00     -398.698     -139.060       -0.025      205.526      153.133       84.657    42240.820    23449.643     7166.809       12.557        3.643      422.253       83.775        0.039      340.696       14.892      862.029
03/05/2014  10:55:00     -531.267     -115.606      -16.533      166.810      115.417       73.659    27825.440    13321.029     5425.686       17.122        2.329      543.699       72.840        0.018      340.664       14.837      861.988
03/05/2014  10:56:00     -193.868      -24.348        6.726      139.926      104.737       62.100    19579.360    10969.909     3856.392        3.631        1.720      195.391       75.503        0.149      341.198       15.742      862.014
03/05/2014  10:57:00     -202.575     -102.335        1.874      107.052       91.719       49.222    11460.125     8412.458     2422.763        3.690        1.115      226.956       49.568        0.048      341.000       15.406      861.996
03/05/2014  10:58:00     -191.282     -141.735       -3.887      116.182      115.333       58.140    13498.247    13301.654     3380.315        4.343        1.509      238.071       58.513        0.060      340.998       15.403      861.983
03/05/2014  10:59:00     -275.197     -152.434       -0.288      147.684      115.604       74.226    21810.459    13364.234     5509.461        6.982        2.034      314.594       87.016        0.077      340.909       15.252      862.005
03/05/2014  11:00:00      -24.456       11.708        8.012       63.095       66.528       48.506     3981.028     4425.930     2352.784        0.578        0.538       27.114       34.049        1.577      341.238       15.812      861.983
03/05/2014  11:01:00      -93.615      -18.319      -15.959       62.825       59.496       24.500     3947.032     3539.761      600.241        0.872        0.404       95.391       23.459        0.060      340.996       15.403      861.954
03/05/2014  11:02:00      -67.495      -46.273       -1.188       75.185       66.083       37.002     5652.756     4366.978     1369.161        0.904        0.569       81.834       35.791        0.191      341.118       15.609      861.952
03/05/2014  11:03:00      -55.944      -20.479       27.795      166.419       87.521       51.845    27695.409     7659.899     2687.868        2.118        1.902       59.574       87.212        2.143      341.247       15.826      861.970
03/05/2014  11:04:00     -264.902     -117.025      -11.263      116.444       91.178       57.476    13559.293     8313.514     3303.461        5.458        1.259      289.600       56.480        0.038      340.891       15.221      861.989
03/05/2014  11:05:00     -243.682      -76.101        2.783      105.850      100.260       60.315    11204.133    10051.986     3637.878        4.503        1.245      255.288       57.988        0.052      341.034       15.464      861.994
03/05/2014  11:06:00     -112.085       21.972       10.407       93.351       64.960       43.384     8714.472     4219.864     1882.188        1.398        0.741      114.219       42.681        0.140      341.255       15.839      861.993
03/05/2014  11:07:00     -127.339      -25.708       28.848      180.356       83.870       62.864    32528.217     7034.206     3951.826        3.060        2.176      129.908       92.916        0.512      341.137       15.640      861.991
03/05/2014  11:08:00      -73.482      -27.715        5.385      117.955       99.127       55.984    13913.283     9826.242     3134.169        1.653        1.344       78.535       48.804        0.386      341.203       15.752      861.979
03/05/2014  11:09:00     -462.355     -223.268      -40.331      189.413      109.301       67.470    35877.245    11946.751     4552.144       15.880        2.619      513.440       72.476        0.020      340.769       15.015      861.960
03/05/2014  11:10:00     -352.100     -182.659      -13.149      140.830      114.592       71.014    19832.983    13131.358     5042.941        9.775        1.900      396.660       67.347        0.029      340.749       14.980      861.969
03/05/2014  11:11:00     -188.109      -13.730        3.449       87.997       98.811       54.001     7743.539     9763.528     2916.081        2.800        1.021      188.610       51.359        0.074      341.058       15.504      862.001
03/05/2014  11:12:00     -129.214     -113.675       -1.409      148.073      128.918       61.726    21925.474    16619.892     3810.159        3.598        2.118      172.100       67.896        0.156      340.992       15.395      862.016
03/05/2014  11:13:00     -341.671     -121.338       -5.335      149.628      128.010       65.349    22388.509    16386.679     4270.448        8.726        2.152      362.577       64.303        0.031      340.921       15.272      862.055
03/05/2014  11:14:00     -140.911      -98.674       26.867      165.957      121.749       60.182    27541.742    14822.912     3621.834        3.814        2.299      172.025       83.321        0.235      341.228       15.794      862.112
03/05/2014  11:15:00     -151.380     -104.010       10.886      148.134      115.673       70.392    21943.676    13380.325     4955.047        3.706        2.014      183.668       81.828        0.198      341.104       15.585      862.149
03/05/2014  11:16:00     -208.115        8.527       -9.400      115.439       81.680       47.887    13326.272     6671.679     2293.174        3.288        1.115      208.290       54.397        0.068      340.955       15.331      862.153
03/05/2014  11:17:00     -263.828     -152.615       -1.378      168.289      103.274       63.072    28321.167    10665.512     3978.095        6.792        2.148      304.789       83.297        0.075      340.952       15.325      862.150
03/05/2014  11:18:00     -229.572     -166.398        4.776      112.261       85.770       69.612    12602.557     7356.447     4845.859        5.261        1.240      283.534       61.845        0.048      340.716       14.925      862.141
03/05/2014  11:19:00     -191.871      -14.939      -13.264       66.058       48.675       28.139     4363.597     2369.254      791.815        2.237        0.376      192.451       20.196        0.011      340.640       14.798      862.127
03/05/2014  11:20:00     -153.942       14.854      -10.996      119.478       55.605       36.757    14274.932     3091.951     1351.045        2.138        0.936      154.657       47.640        0.095      340.924       15.279      862.085
03/05/2014  11:21:00     -330.627      -35.666      -40.938       86.432       57.367       31.591     7470.415     3291.010      998.011        6.201        0.588      332.545       28.145        0.007      340.735       14.957      862.070
03/05/2014  11:22:00     -165.056      -12.734      -12.416       89.819       95.928       40.515     8067.454     9202.221     1641.484        2.323        0.946      165.547       48.217        0.085      340.755       14.992      862.086
03/05/2014  11:23:00     -147.271      -25.271       -6.448      145.917       60.237       45.363    21291.659     3628.459     2057.792        2.467        1.349      149.423       58.996        0.156      340.831       15.121      862.082
03/05/2014  11:24:00     -146.795      -13.371      -19.139       95.921      115.022       53.558     9200.752    13230.098     2868.491        2.369        1.265      147.403       50.392        0.117      340.796       15.063      862.060
03/05/2014  11:25:00     -260.136      -68.680      -15.501       96.927       94.592       42.402     9394.799     8947.676     1797.950        4.638        1.007      269.050       37.657        0.020      340.709       14.914      862.052
03/05/2014  11:26:00      -49.577      -72.552       -3.839       60.380       63.084       30.850     3645.798     3979.552      951.734        0.816        0.429       87.873       14.714        0.028      340.770       15.019      862.031
03/05/2014  11:27:00      -73.788      -53.323       18.817       83.783       69.345       36.966     7019.619     4808.697     1366.511        1.092        0.660       91.038       50.739        0.311      341.011       15.428      861.997
03/05/2014  11:28:00     -269.439     -196.580        3.097      117.954       80.702       52.924    13913.190     6512.746     2800.997        6.723        1.161      333.528       43.364        0.017      340.715       14.924      861.962
03/05/2014  11:29:00      -48.904      -49.208       41.710       86.337      112.597       50.479     7454.140    12678.033     2548.120        1.461        1.134       69.376       63.287        0.832      341.112       15.598      861.980
03/05/2014  11:30:00      -58.183      -24.666       23.376       65.964       64.610       29.410     4351.266     4174.399      864.960        0.696        0.470       63.195       29.943        0.224      341.127       15.624      862.025
03/05/2014  11:31:00     -174.059     -129.840       -5.070       68.625       89.465       42.620     4709.335     8004.056     1816.459        3.085        0.726      217.152       44.687        0.042      340.855       15.160      862.071
03/05/2014  11:32:00     -110.649     -136.317       -6.888      124.152       61.026       37.393    15413.602     3724.162     1398.271        2.570        1.027      175.572       45.807        0.068      340.798       15.064      862.103
03/05/2014  11:33:00     -151.967      -71.324       -1.593      164.493       81.803       65.305    27057.826     6691.782     4264.703        3.309        1.901      167.873       79.770        0.226      341.052       15.495      862.063
03/05/2014  11:34:00     -235.274      -52.631       -2.317       99.370       77.629       47.730     9874.445     6026.298     2278.129        3.815        0.909      241.089       46.018        0.036      341.020       15.439      862.025
03/05/2014  11:35:00     -130.499      -51.136       -5.067       50.777       66.037       41.691     2578.301     4360.942     1738.120        1.417        0.434      140.160       16.988        0.015      341.234       15.803      861.999
03/05/2014  11:36:00     -112.414      -42.760       -0.228       78.181       58.553       34.725     6112.297     3428.437     1205.804        1.260        0.537      120.272       25.902        0.046      341.138       15.643      861.977
03/05/2014  11:37:00     -246.255      -71.499      -26.667      127.664       58.474       43.162    16298.006     3419.162     1862.932        4.402        1.079      256.425       46.425        0.033      340.948       15.319      861.955
03/05/2014  11:38:00     -266.091      -97.546       -8.922      163.476      144.468       80.479    26724.408    20870.888     6476.929        6.723        2.704      283.407       84.235        0.088      341.036       15.468      861.886
03/05/2014  11:39:00     -163.719      -41.923       12.323      131.988      119.595       69.238    17420.833    14302.898     4793.909        3.261        1.826      169.002       69.346        0.168      341.362       16.019      861.872
03/05/2014  11:40:00     -359.303     -109.878      -23.662      109.915       97.068       57.106    12081.313     9422.205     3261.079        8.324        1.238      375.728       56.364        0.023      340.952       15.325      861.871
03/05/2014  11:41:00     -211.173       -1.109      -20.517       73.489       82.143       39.999     5400.614     6747.544     1599.903        2.938        0.687      211.175       35.869        0.029      340.848       15.149      861.874
03/05/2014  11:42:00     -247.810      -45.198      -24.060       96.284       86.817       38.911     9270.578     7537.252     1514.032        4.117        0.916      251.898       37.878        0.023      341.079       15.540      861.838
03/05/2014  11:43:00     -181.401      -48.213      -22.684      102.859       56.936       39.338    10579.876     3241.740     1547.472        2.555        0.768      187.699       41.948        0.050      340.871       15.188      861.838
03/05/2014  11:44:00     -288.935      -72.709      -24.491       85.770       74.672       38.993     7356.543     5575.916     1520.452        5.191        0.723      297.943       27.604        0.009      340.974       15.362      861.836
03/05/2014  11:45:00     -154.905       28.037      -15.552       83.098       67.827       33.286     6905.293     4600.470     1107.973        1.882        0.631      157.422       33.709        0.046      341.017       15.437      861.848
03/05/2014  11:46:00      -86.369       86.483      -15.459       47.864       72.495       35.721     2290.927     5255.526     1275.977        1.200        0.441      122.225       40.405        0.109      341.000       15.409      861.815
03/05/2014  11:47:00      -64.147      142.202      -12.755       41.449       84.832       34.267     1718.001     7196.549     1174.243        1.729        0.504      156.000       42.701        0.075      341.089       15.558      861.793
03/05/2014  11:48:00      -17.041       58.470       14.769       37.883       71.311       34.697     1435.111     5085.311     1203.905        0.582        0.386       60.903       27.688        0.207      341.394       16.076      861.776
03/05/2014  11:49:00     -132.269      114.860      -10.974       81.285       73.704       48.087     6607.295     5432.288     2312.360        2.258        0.718      175.180       50.179        0.082      341.171       15.696      861.771
03/05/2014  11:50:00     -190.516       31.700      -23.555       51.494       49.966       24.743     2651.681     2496.607      612.198        2.181        0.288      193.135       20.686        0.011      341.157       15.673      861.743
03/05/2014  11:51:00     -139.005       91.946      -32.144       79.442       67.955       32.357     6311.022     4617.915     1046.995        2.039        0.599      166.663       42.387        0.065      341.008       15.421      861.714
03/05/2014  11:52:00      -46.292       95.575      -23.103       47.510       41.587       25.895     2257.189     1729.508      670.542        0.823        0.233      106.196       16.342        0.024      341.041       15.479      861.713
03/05/2014  11:53:00      -58.803      144.440      -24.148       69.936       69.806       42.133     4891.093     4872.842     1775.220        1.822        0.577      155.951       42.026        0.073      341.236       15.808      861.699
03/05/2014  11:54:00     -107.906       25.303      -20.932       84.447       51.086       29.393     7131.317     2609.770      863.960        1.166        0.530      110.833       32.300        0.085      341.236       15.808      861.702
03/05/2014  11:55:00      -63.801       59.054       14.474       60.127       65.648       34.209     3615.219     4309.674     1170.255        0.843        0.455       86.936       24.171        0.077      341.475       16.212      861.682
03/05/2014  11:56:00      -87.548       99.168      -14.523       51.215       82.032       41.950     2623.021     6729.284     1759.825        1.441        0.556      132.284       37.009        0.078      341.328       15.965      861.664
03/05/2014  11:57:00     -140.484       15.023      -21.256       78.619       86.482       46.522     6181.004     7479.204     2164.264        1.812        0.791      141.285       35.052        0.062      341.349       15.997      861.657
03/05/2014  11:58:00     -170.591       62.175      -16.718      142.025      102.538       46.757    20171.171    10514.070     2186.227        3.305        1.644      181.568       44.916        0.061      341.133       15.632      861.650
03/05/2014  11:59:00       14.670       67.135       27.834       32.026       78.759       39.917     1025.656     6203.038     1593.378        0.716        0.441       68.719       47.829        0.484      341.455       16.179      861.636
03/05/2014  12:00:00       22.343      177.854      -20.730       58.223       56.172       37.824     3389.939     3155.309     1430.623        2.027        0.399      179.252       32.886        0.034      341.137       15.639      861.632
03/05/2014  12:01:00       -0.381       82.397       -5.863       40.680       64.212       35.959     1654.857     4123.129     1293.058        0.695        0.354       82.398       35.488        0.185      341.300       15.916      861.614
03/05/2014  12:02:00       21.611      -11.541       15.055       49.100       45.172       28.408     2410.800     2040.515      807.032        0.304        0.263       24.500        5.995        0.060      341.502       16.260      861.602
03/05/2014  12:03:00     -118.457      -54.981        9.568      112.444      110.977       50.888    12643.738    12315.814     2589.626        2.234        1.377      130.595       51.039        0.153      341.541       16.325      861.621
03/05/2014  12:04:00     -138.023     -193.016       -7.651       82.483       96.272       45.870     6803.433     9268.225     2104.016        3.727        0.909      237.288       37.050        0.024      341.061       15.510      861.646
03/05/2014  12:05:00      -91.276     -104.071      -18.390       60.758       72.708       42.738     3691.560     5286.501     1826.543        1.515        0.540      138.427       34.976        0.064      340.925       15.281      861.649
03/05/2014  12:06:00     -113.946     -195.586       -2.902       85.770       56.520       48.928     7356.518     3194.474     2393.902        3.209        0.647      226.357       49.212        0.047      341.002       15.410      861.672
03/05/2014  12:07:00      -53.807      -57.051       11.766       41.650       60.638       31.821     1734.735     3676.972     1012.577        0.636        0.321       78.422       26.397        0.113      341.125       15.620      861.676
03/05/2014  12:08:00     -105.924     -111.821       12.119       74.813       69.712       38.757     5597.003     4859.696     1502.121        1.791        0.598      154.025       44.033        0.082      341.140       15.645      861.678
03/05/2014  12:09:00     -228.513      -89.957        7.141       94.465       62.250       40.488     8923.712     3875.019     1639.318        3.740        0.722      245.582       36.352        0.022      341.049       15.490      861.659
03/05/2014  12:10:00     -126.058       26.483      -15.473       67.933       31.982       24.207     4614.898     1022.876      585.995        1.153        0.311      128.809       28.405        0.049      340.932       15.293      861.631
03/05/2014  12:11:00      -50.163       34.998        1.310       48.391       28.897       33.423     2341.687      835.044     1117.111        0.402        0.215       61.165       21.141        0.119      341.289       15.898      861.577
03/05/2014  12:12:00       -9.316       66.263        7.157       43.545       29.856       24.327     1896.153      891.397      591.809        0.395        0.169       66.915       15.858        0.056      341.178       15.710      861.533
03/05/2014  12:13:00        2.584       34.433      -16.614       39.497       38.352       18.134     1560.032     1470.899      328.854        0.241        0.168       34.530       17.134        0.246      341.054       15.500      861.490
03/05/2014  12:14:00      -20.822        0.251        5.035       33.679       29.567       24.105     1134.243      874.227      581.031        0.152        0.129       20.823       19.436        0.871      341.556       16.351      861.470
03/05/2014  12:15:00        7.926       23.653       18.745       27.520       35.603       24.892      757.336     1267.540      619.629        0.181        0.132       24.946       18.563        0.554      341.564       16.362      861.453
03/05/2014  12:16:00      -95.582      -53.095       -4.270       55.926       28.822       25.444     3127.718      830.720      647.408        0.829        0.230      109.338       23.319        0.045      341.163       15.684      861.444
03/05/2014  12:17:00     -105.403      -70.248       -3.512       51.369       42.495       27.332     2638.814     1805.836      747.059        1.062        0.260      126.667       28.712        0.051      341.143       15.651      861.437
03/05/2014  12:18:00      -98.697       -1.793      -19.741       51.857       55.226       30.243     2689.133     3049.948      914.609        0.839        0.333       98.713       20.306        0.042      341.074       15.534      861.431
03/05/2014  12:19:00      109.690      105.609       19.821      108.105      108.802       62.981    11686.658    11837.834     3966.604        2.553        1.375      152.267       56.756        0.139      341.370       16.033      861.387
03/05/2014  12:20:00      -35.733      -67.837       -7.201       74.732       96.164       74.054     5584.891     9247.467     5483.967        1.312        1.016       76.672       65.439        0.728      341.588       16.404      861.316
03/05/2014  12:21:00      -95.150       14.266       10.032       69.287       83.335       36.396     4800.743     6944.715     1324.639        1.121        0.654       96.214       36.335        0.143      341.770       16.713      861.327
03/05/2014  12:22:00       -1.412       29.914       17.879       66.997       46.842       31.970     4488.547     2194.214     1022.109        0.446        0.385       29.947       33.283        1.235      341.627       16.470      861.299
03/05/2014  12:23:00       46.113        8.819       61.509       68.059       94.323       53.524     4632.037     8896.919     2864.789        1.119        0.820       46.949       26.633        0.322      341.607       16.436      861.262
03/05/2014  12:24:00       84.941        4.461       99.144       76.580      117.087       86.070     5864.485    13709.364     7408.062        2.202        1.349       85.058       84.340        0.983      341.516       16.281      861.262
03/05/2014  12:25:00       77.677      -11.002       75.629      103.779      105.713       81.920    10770.171    11175.287     6710.908        2.026        1.433       78.452       90.053        1.318      341.564       16.361      861.279
03/05/2014  12:26:00       65.985       38.005       89.515       83.983       92.847       59.740     7053.088     8620.602     3568.836        1.652        0.962       76.148       55.876        0.538      341.482       16.225      861.268
03/05/2014  12:27:00       61.159       12.388       74.367       84.442       68.480       44.135     7130.495     4689.497     1947.855        1.159        0.688       62.401       39.340        0.397      341.584       16.395      861.262
03/05/2014  12:28:00       66.094      -15.950       69.861       92.923      137.028       94.688     8634.677    18776.717     8965.811        2.293        1.819       67.992       92.266        1.842      341.692       16.580      861.233
03/05/2014  12:29:00        2.211       86.800      126.340       61.444      113.948       81.165     3775.411    12984.260     6587.743        2.342        1.167       86.828       79.102        0.830      341.570       16.372      861.270
03/05/2014  12:30:00       30.182       27.984       24.343       50.822       43.220       43.495     2582.830     1867.958     1891.809        0.431        0.317       41.159       23.060        0.314      341.424       16.127      861.287
03/05/2014  12:31:00       44.867      -67.635       10.915       52.262       52.239       29.870     2731.282     2728.927      892.207        0.653        0.318       81.164       33.198        0.167      341.467       16.200      861.292
03/05/2014  12:32:00       69.585      -57.393       -1.596       51.996       56.849       39.252     2703.609     3231.768     1540.704        0.781        0.374       90.200       40.067        0.197      341.515       16.280      861.279
03/05/2014  12:33:00       29.632      -35.777        4.969       55.888       43.437       41.714     3123.459     1886.789     1740.034        0.447        0.338       46.455       31.318        0.454      341.716       16.623      861.270
03/05/2014  12:34:00       42.748     -126.045       -0.976       59.924       49.358       33.480     3590.877     2436.187     1120.913        1.243        0.357      133.097       24.235        0.033      341.598       16.421      861.261
03/05/2014  12:35:00       22.891     -103.423        9.796       42.422       62.624       45.957     1799.628     3921.795     2112.082        0.957        0.392      105.926       39.086        0.136      341.644       16.500      861.250
03/05/2014  12:36:00       32.185        4.618       52.323       44.018       69.665       37.959     1937.584     4853.228     1440.856        0.601        0.412       32.515       44.799        1.898      341.686       16.570      861.199
03/05/2014  12:37:00       65.289       55.760       58.917       53.581       54.287       43.228     2870.919     2947.047     1868.698        0.926        0.384       85.860       43.885        0.261      341.496       16.249      861.127
03/05/2014  12:38:00       48.853       50.454       44.396       72.964       49.631       40.834     5323.751     2463.277     1667.421        0.818        0.473       70.230       42.096        0.359      341.666       16.538      861.067
03/05/2014  12:39:00       74.557      101.636       85.869       66.787       49.337       48.543     4460.480     2434.151     2356.415        1.626        0.463      126.050       43.646        0.120      341.609       16.440      861.031
03/05/2014  12:40:00      124.307       88.002       59.179       83.871       65.251       56.168     7034.396     4257.709     3154.876        2.057        0.722      152.305       41.631        0.075      341.561       16.358      861.015
03/05/2014  12:41:00       90.466       56.916       50.796       54.738       70.490       54.404     2996.208     4968.908     2959.780        1.246        0.546      106.881       52.218        0.239      341.556       16.350      861.020
03/05/2014  12:42:00       76.767       69.107       70.807       79.283       65.811       42.978     6285.829     4331.103     1847.116        1.407        0.623      103.291       32.061        0.096      341.595       16.416      861.004
03/05/2014  12:43:00       56.580      -33.005       28.231       74.151       59.667       39.049     5498.443     3560.147     1524.805        0.783        0.529       65.503       29.534        0.203      341.777       16.725      861.002
03/05/2014  12:44:00      119.032     -151.044      -11.460       48.595       67.447       34.116     2361.443     4549.042     1163.904        2.259        0.404      192.309       39.108        0.041      341.265       15.854      860.980
03/05/2014  12:45:00       59.753       25.017       87.021       58.249       90.511       50.473     3392.981     8192.245     2547.511        1.295        0.707       64.779       58.319        0.811      341.556       16.351      860.951
03/05/2014  12:46:00       96.202       49.920       61.148       94.524       52.673       47.533     8934.704     2774.421     2259.418        1.472        0.698      108.383       41.352        0.146      341.541       16.326      860.921
03/05/2014  12:47:00      139.877      108.885       75.790       81.476       71.914       51.959     6638.381     5171.614     2699.726        2.584        0.725      177.261       40.852        0.053      341.347       15.995      860.895
03/05/2014  12:48:00       84.327       98.060       81.139      125.380       60.888       59.825    15720.162     3707.325     3579.050        2.315        1.150      129.332       70.517        0.297      341.612       16.445      860.866
03/05/2014  12:49:00       99.634       77.097        9.730       76.987       68.094       53.859     5927.074     4636.751     2900.811        1.471        0.673      125.980       39.701        0.099      341.468       16.200      860.848
03/05/2014  12:50:00      133.291       72.469       71.785       82.257       53.468       54.309     6766.233     2858.794     2949.507        2.037        0.629      151.718       44.467        0.086      341.557       16.350      860.814
03/05/2014  12:51:00      154.008       94.307       62.786       81.720       55.645       48.927     6678.085     3096.420     2393.846        2.436        0.608      180.588       38.148        0.045      341.501       16.255      860.803
03/05/2014  12:52:00       72.042      100.137      104.572       85.507       66.506       55.178     7311.481     4422.986     3044.609        2.046        0.739      123.360       47.362        0.147      341.560       16.356      860.818
03/05/2014  12:53:00       88.410       52.542       45.292       68.925       45.773       45.648     4750.661     2095.213     2083.727        1.078        0.446      102.844       23.887        0.054      341.541       16.325      860.840
03/05/2014  12:54:00       33.568       30.211        8.926       54.806       30.686       35.485     3003.727      941.644     1259.165        0.366        0.260       45.161       14.945        0.110      341.547       16.334      860.844
03/05/2014  12:55:00      136.231       89.263       12.197       41.329       40.016       31.996     1708.114     1601.317     1023.768        1.550        0.217      162.870       18.127        0.012      341.367       16.030      860.826
03/05/2014  12:56:00      123.943       73.235       -6.430       68.653       59.194       36.787     4713.222     3503.901     1353.262        1.517        0.479      143.962       18.828        0.017      341.599       16.422      860.812
03/05/2014  12:57:00       84.505       67.495        0.381       64.677       45.752       33.345     4183.072     2093.269     1111.890        0.954        0.369      108.151       20.628        0.036      341.421       16.122      860.803
03/05/2014  12:58:00       46.337       63.698        1.264       53.678       41.289       31.040     2881.302     1704.775      963.511        0.588        0.277       78.769       25.436        0.104      341.476       16.216      860.789
03/05/2014  12:59:00      161.363       94.605       23.139       56.264       47.168       42.960     3165.646     2224.801     1845.601        2.138        0.362      187.051       27.749        0.022      341.391       16.068      860.775
03/05/2014  13:00:00      192.669      111.016       25.073       53.739       62.927       53.738     2887.905     3959.865     2887.818        2.990        0.487      222.364       32.611        0.022      341.431       16.136      860.771
03/05/2014  13:01:00      207.964       97.560       30.521       80.287       64.092       51.302     6446.072     4107.749     2631.860        3.344        0.659      229.711       29.603        0.017      341.446       16.160      860.764
03/05/2014  13:02:00      179.358       85.723       41.219       82.474       65.807       49.779     6802.011     4330.516     2477.990        2.741        0.681      198.791       35.259        0.031      341.478       16.214      860.769
03/05/2014  13:03:00       24.190       61.326      -21.233       68.951       64.879       40.227     4754.173     4209.255     1618.212        0.769        0.529       65.924       46.356        0.494      341.283       15.889      860.800
03/05/2014  13:04:00     -123.710       48.387      -23.063       33.973       46.590       20.680     1154.148     2170.658      427.652        1.096        0.188      132.836       12.259        0.009      341.367       16.031      860.807
03/05/2014  13:05:00      -44.266       55.900        8.430       42.387       45.651       26.591     1796.698     2084.053      707.085        0.487        0.229       71.304       24.010        0.113      341.653       16.516      860.782
03/05/2014  13:06:00      -74.266       80.423       -7.959       38.864       49.617       29.301     1510.377     2461.881      858.555        0.844        0.242      109.469       26.177        0.057      341.556       16.351      860.751
03/05/2014  13:07:00       -8.745      152.296       -4.368       57.493       68.582       36.307     3305.422     4703.553     1318.203        1.631        0.466      152.547       33.030        0.047      341.557       16.352      860.700
03/05/2014  13:08:00      149.997      150.079       17.129      115.789       95.295       58.083    13407.058     9081.095     3373.640        3.558        1.293      212.186       54.246        0.065      341.439       16.148      860.611
03/05/2014  13:09:00      163.895      111.566       39.929       88.019       66.623       72.344     7747.269     4438.571     5233.649        2.916        0.871      198.264       58.284        0.086      341.648       16.504      860.566
03/05/2014  13:10:00       88.885       20.162       80.546       96.501      110.333       71.834     9312.441    12173.274     5160.080        2.072        1.332       91.143       77.856        0.730      341.863       16.870      860.553
03/05/2014  13:11:00       27.556     -139.369        3.053       64.409       73.222       49.268     4148.532     5361.497     2427.349        1.606        0.597      142.067       32.133        0.051      341.797       16.759      860.568
03/05/2014  13:12:00       31.807     -123.433        0.646       54.982       65.313       44.666     3023.050     4265.739     1995.055        1.276        0.464      127.466       38.820        0.093      341.713       16.617      860.562
03/05/2014  13:13:00      141.995      -93.332        3.925       65.995       67.111       47.812     4355.352     4503.880     2285.984        2.002        0.557      169.922       47.077        0.077      341.607       16.436      860.533
03/05/2014  13:14:00       79.500       83.744      125.634       98.593      126.711       92.221     9720.490    16055.789     8504.735        3.169        1.714      115.470       97.579        0.714      341.682       16.561      860.461
03/05/2014  13:15:00      145.129     -146.030        5.838       89.093      126.818       85.600     7937.513    16082.878     7327.445        3.688        1.567      205.882       87.478        0.181      341.581       16.390      860.450
03/05/2014  13:16:00       86.900     -151.023        7.235       96.599      142.469       80.650     9331.389    20297.541     6504.367        3.327        1.807      174.240       94.540        0.294      341.598       16.419      860.493
03/05/2014  13:17:00      206.549     -333.347      -26.751       66.113       64.085       43.175     4370.961     4106.879     1864.050        8.242        0.517      392.152       37.847        0.009      341.382       16.052      860.510
03/05/2014  13:18:00      217.352     -171.516       29.997      108.911      148.541       85.129    11861.641    22064.467     7246.866        5.936        2.059      276.875      100.695        0.132      341.518       16.283      860.520
03/05/2014  13:19:00      110.465      104.425      123.027       97.853       75.249       60.845     9575.202     5662.476     3702.119        2.859        0.947      152.011       42.064        0.077      341.601       16.424      860.519
03/05/2014  13:20:00      128.822      118.110      100.610       70.273       63.653       58.235     4938.339     4051.688     3391.296        2.652        0.619      174.771       42.520        0.059      341.432       16.137      860.505
03/05/2014  13:21:00      136.605      115.308       82.580       80.464       64.794       60.801     6474.420     4198.300     3696.767        2.657        0.718      178.765       44.383        0.062      341.577       16.385      860.506
03/05/2014  13:22:00      109.535       95.282       83.554       80.177       60.859       48.494     6428.302     3703.846     2351.639        2.027        0.624      145.178       40.789        0.079      341.492       16.240      860.491
03/05/2014  13:23:00      119.896       58.554       20.478       84.894       65.260       48.077     7206.999     4258.922     2311.372        1.600        0.689      133.430       37.215        0.078      341.568       16.368      860.453
03/05/2014  13:24:00       28.383      -27.184       22.682       33.514       65.979       36.501     1123.174     4353.187     1332.351        0.443        0.340       39.301       36.179        0.847      341.794       16.755      860.427
03/05/2014  13:25:00       19.033       41.195       42.041       22.048       51.929       31.895      486.107     2696.575     1017.265        0.401        0.210       45.379       16.249        0.128      341.783       16.736      860.404
03/05/2014  13:26:00       64.241       45.758        7.847       35.587       25.920       27.860     1266.438      671.854      776.161        0.450        0.136       78.871       12.694        0.026      341.672       16.546      860.405
03/05/2014  13:27:00      101.572       54.975       27.259       62.581       43.635       35.937     3916.327     1904.033     1291.448        1.060        0.356      115.495       23.391        0.041      341.744       16.670      860.402
03/05/2014  13:28:00       66.330       86.439       94.958       72.683       73.092       64.016     5282.842     5342.420     4097.987        1.780        0.736      108.956       59.875        0.302      341.815       16.790      860.404
03/05/2014  13:29:00       32.968       48.830       58.658       47.125       68.923       62.438     2220.733     4750.350     3898.462        0.889        0.543       58.917       58.571        0.988      341.626       16.470      860.403
03/05/2014  13:30:00       64.655      104.057       94.419       78.699       53.746       57.748     6193.559     2888.634     3334.800        1.817        0.621      122.507       53.347        0.190      341.703       16.598      860.383
03/05/2014  13:31:00      109.806       82.884       49.284       45.566       46.110       64.197     2076.234     2126.091     4121.308        1.484        0.416      137.576       31.561        0.053      341.706       16.604      860.366
03/05/2014  13:32:00       56.887       82.696       82.695       78.710       61.337       72.715     6195.312     3762.260     5287.481        1.608        0.762      100.372       61.307        0.373      341.777       16.725      860.358
03/05/2014  13:33:00      111.991      101.044       78.031       96.738       62.921       83.480     9358.167     3959.098     6968.865        2.456        1.014      150.837       83.475        0.306      341.542       16.324      860.375
03/05/2014  13:34:00       95.979       56.342       21.187       40.659       32.474       34.881     1653.151     1054.530     1216.661        0.838        0.196      111.294       19.540        0.031      341.498       16.253      860.368
03/05/2014  13:35:00       37.819       21.627       42.441       42.175       29.831       25.996     1778.743      889.914      675.782        0.352        0.167       43.566       26.021        0.357      341.654       16.516      860.333
03/05/2014  13:36:00       95.918       80.696       57.044       78.900       62.932       54.112     6225.132     3960.446     2928.063        1.604        0.656      125.348       48.111        0.147      341.671       16.543      860.293
03/05/2014  13:37:00       91.666       55.522       27.076       82.431       71.775       35.890     6794.875     5151.655     1288.072        1.272        0.662      107.170       36.583        0.117      341.856       16.857      860.263
03/05/2014  13:38:00       79.845       76.048        5.861       43.713       36.510       31.500     1910.819     1332.954      992.236        0.821        0.212      110.266       19.892        0.033      341.626       16.469      860.260
03/05/2014  13:39:00      109.728       63.202       46.978       69.444       52.091       44.164     4822.495     2713.483     1950.454        1.386        0.474      126.628       39.899        0.099      341.627       16.470      860.250
03/05/2014  13:40:00       74.010       42.299       13.654       75.523       38.210       37.331     5703.656     1459.968     1393.574        0.800        0.428       85.245       30.596        0.129      341.634       16.483      860.230
03/05/2014  13:41:00      196.756       77.962       21.720       96.222       64.444       49.758     9258.632     4153.086     2475.855        3.057        0.794      211.639       35.326        0.028      341.690       16.573      860.184
03/05/2014  13:42:00      132.390       70.931       -1.150       79.660       49.196       42.783     6345.708     2420.229     1830.345        1.658        0.530      150.194       21.456        0.020      341.830       16.812      860.159
03/05/2014  13:43:00      100.038      100.390       -3.769       84.057       77.099       52.946     7065.551     5944.289     2803.286        1.795        0.791      141.724       43.195        0.093      341.683       16.565      860.149
03/05/2014  13:44:00       73.796       53.183       10.725       56.791       51.969       40.420     3225.269     2700.775     1633.762        0.797        0.378       90.963       35.211        0.150      341.608       16.438      860.150
03/05/2014  13:45:00       16.015       48.114       -3.179       22.993       38.970       20.876      528.679     1518.636      435.803        0.253        0.124       50.710       18.652        0.135      341.564       16.363      860.165
03/05/2014  13:46:00       61.488       53.289       21.431       46.822       32.626       33.664     2192.278     1064.476     1133.283        0.573        0.220       81.366       12.259        0.023      341.729       16.642      860.163
03/05/2014  13:47:00      108.706      101.593       52.702       55.128       35.489       52.441     3039.099     1259.452     2750.105        1.598        0.352      148.789       44.872        0.091      341.902       16.937      860.138
03/05/2014  13:48:00       73.640      -18.008       31.926       57.805       86.303       55.596     3341.388     7448.180     3090.911        1.032        0.694       75.809       56.210        0.550      341.823       16.803      860.104
03/05/2014  13:49:00       57.802     -115.496        8.224       44.299       99.939       52.616     1962.378     9987.842     2768.405        1.573        0.736      129.153       67.072        0.270      341.697       16.590      860.086
03/05/2014  13:50:00       56.786      -91.179       -6.892       28.622       35.316       21.671      819.241     1247.245      469.620        0.706        0.127      107.416       10.744        0.010      341.653       16.515      860.104
03/05/2014  13:51:00       19.242      -10.755       32.739       58.328       41.289       44.020     3402.101     1704.778     1937.772        0.430        0.352       22.044       44.888        4.147      342.154       17.366      860.113
03/05/2014  13:52:00       -5.279       39.206       53.031       28.241       34.748       22.536      797.545     1207.392      507.892        0.344        0.126       39.560       15.688        0.157      342.220       17.478      860.117
03/05/2014  13:53:00        6.936       33.174       67.222       34.702       45.417       26.328     1204.211     2062.693      693.166        0.481        0.198       33.892       27.739        0.670      342.210       17.461      860.089
03/05/2014  13:54:00       31.978       38.853       48.985       45.025       58.527       51.955     2027.216     3425.379     2699.303        0.654        0.408       50.321       40.964        0.663      342.094       17.263      860.064
03/05/2014  13:55:00      106.952       14.516       82.228      110.015       98.301       59.179    12103.268     9663.028     3502.163        2.184        1.263      107.932       70.263        0.424      342.029       17.151      860.028
03/05/2014  13:56:00       69.036      -96.914      -17.435       98.174      135.244       50.053     9638.158    18291.023     2505.330        2.244        1.522      118.988       57.841        0.236      341.998       17.097      860.010
03/05/2014  13:57:00      103.337     -124.432       -6.095       75.667       83.852       53.863     5725.529     7031.108     2901.198        2.093        0.783      161.747       56.224        0.121      341.814       16.786      859.977
03/05/2014  13:58:00      121.380      -98.316       25.402      100.127      134.510       76.083    10025.376    18093.025     5788.656        2.947        1.695      156.202       77.371        0.245      341.954       17.023      859.915
03/05/2014  13:59:00      113.420      -94.208       24.081       68.189      117.872       64.626     4649.709    13893.798     4176.533        2.252        1.136      147.442       85.592        0.337      341.853       16.851      859.928
03/05/2014  14:00:00       41.737      -94.389        6.748       48.887      105.421       60.504     2389.935    11113.522     3660.686        1.393        0.858      103.205       75.215        0.531      341.860       16.864      859.942
03/05/2014  14:01:00       52.334      -55.688        5.129       49.177       68.803       24.288     2418.421     4733.859      589.905        0.680        0.387       76.420       25.458        0.111      341.787       16.743      859.952
03/05/2014  14:02:00       18.998        3.036       39.419       35.194       49.908       38.155     1238.634     2490.766     1455.785        0.355        0.259       19.239       36.295        3.559      342.024       17.144      859.966
03/05/2014  14:03:00       48.405       72.074       76.481       45.845       70.331       52.134     2101.736     4946.471     2717.996        1.158        0.488       86.820       53.454        0.379      342.046       17.181      859.979
03/05/2014  14:04:00       90.992      145.135      128.988      108.863       80.469       78.637    11851.261     6475.255     6183.701        3.524        1.226      171.300       70.099        0.167      341.879       16.896      859.952
03/05/2014  14:05:00       91.584       66.731       91.706       96.383       88.348       74.215     9289.729     7805.364     5507.834        2.192        1.130      113.317       61.131        0.291      341.799       16.761      859.946
03/05/2014  14:06:00      113.090      115.370      115.713      134.339      102.120       85.026    18046.904    10428.557     7229.407        3.759        1.785      161.554       85.813        0.282      341.801       16.762      859.944
03/05/2014  14:07:00      147.218       98.620      116.439       91.896       98.563       76.513     8444.879     9714.712     5854.200        3.448        1.201      177.198       73.529        0.172      341.775       16.721      859.971
03/05/2014  14:08:00      116.284      122.460       93.123       86.533       67.383       76.716     7487.949     4540.438     5885.415        2.755        0.896      168.873       49.346        0.085      341.661       16.526      860.010
03/05/2014  14:09:00       79.643      108.709      111.715       66.081       61.231       43.042     4366.674     3749.283     1852.623        2.030        0.498      134.761       38.789        0.083      341.728       16.640      860.048
03/05/2014  14:10:00       45.182      -59.319       11.698       30.038       94.609       33.722      902.265     8950.940     1137.158        0.834        0.550       74.566       52.195        0.490      341.746       16.673      860.063
03/05/2014  14:11:00       75.597        7.524       44.647       58.208       46.931       30.968     3388.118     2202.539      959.015        0.716        0.327       75.971       31.524        0.172      341.788       16.745      860.034
03/05/2014  14:12:00       60.928       31.904       36.318       51.954       46.553       38.011     2699.223     2167.143     1444.859        0.618        0.316       68.776       31.322        0.207      341.833       16.819      860.004
03/05/2014  14:13:00       56.166       61.104       46.157       50.079       45.524       39.816     2507.922     2072.437     1585.295        0.759        0.308       82.996       26.060        0.099      341.977       17.065      860.000
03/05/2014  14:14:00       86.254      -24.010       29.627       51.489       40.806       33.702     2651.088     1665.109     1135.811        0.717        0.273       89.533       34.261        0.146      341.775       16.720      860.011
03/05/2014  14:15:00       54.484       16.686       20.803       44.305       41.490       27.797     1962.911     1721.395      772.657        0.407        0.223       56.982       21.424        0.141      341.937       16.996      860.010
03/05/2014  14:16:00       77.660      -61.006       11.477       72.625      101.845       33.210     5274.368    10372.401     1102.927        1.331        0.837       98.756       29.080        0.087      341.879       16.897      860.019
03/05/2014  14:17:00       76.393        8.515       33.307       86.123      105.049       53.481     7417.160    11035.257     2860.181        1.416        1.066       76.866       50.149        0.426      341.995       17.095      860.016
03/05/2014  14:18:00      141.468       59.875       45.455       95.489       75.792       53.146     9118.105     5744.462     2824.511        2.167        0.884      153.617       50.049        0.106      341.849       16.846      860.034
03/05/2014  14:19:00      143.148       85.020       51.310       77.626       50.622       42.836     6025.749     2562.584     1834.963        2.039        0.521      166.493       40.357        0.059      341.760       16.695      860.038
03/05/2014  14:20:00      118.071       70.707       24.493       68.655       59.888       40.989     4713.533     3586.630     1680.133        1.476        0.499      137.623       33.782        0.060      341.793       16.750      860.044
03/05/2014  14:21:00      134.611       78.217       29.616       57.413       52.168       42.968     3296.225     2721.468     1846.255        1.649        0.393      155.685       27.706        0.032      341.826       16.808      860.035
03/05/2014  14:22:00       64.980       48.465       25.969       66.332       34.370       41.111     4399.979     1181.288     1690.078        0.726        0.364       81.063       36.293        0.200      341.806       16.776      860.023
03/05/2014  14:23:00       91.993       34.442       -0.737       41.755       32.240       27.588     1743.488     1039.438      761.099        0.660        0.177       98.229       19.471        0.039      341.814       16.787      859.995
03/05/2014  14:24:00       87.521       60.386       12.664       35.359       24.042       22.267     1250.234      578.022      495.811        0.690        0.116      106.332       15.912        0.022      341.784       16.737      859.960
03/05/2014  14:25:00       55.652       18.276       31.826       32.627       35.911       26.872     1064.503     1289.564      722.081        0.376        0.154       58.576       13.414        0.052      341.913       16.956      859.940
03/05/2014  14:26:00       38.290       -6.100        7.136       30.141       49.922       23.775      908.499     2492.187      565.231        0.276        0.198       38.773       18.664        0.232      342.012       17.124      859.929
03/05/2014  14:27:00       15.578      -82.341        3.324       50.962       67.332       46.046     2597.165     4533.619     2120.264        0.814        0.463       83.801       43.190        0.266      342.115       17.298      859.930
03/05/2014  14:28:00      -95.958     -127.588        1.813       91.262       74.647       45.686     8328.688     5572.221     2087.221        2.074        0.799      159.645       47.525        0.089      341.948       17.014      859.952
03/05/2014  14:29:00     -185.020     -144.466      -12.780       83.897       90.713       42.124     7038.683     8228.884     1774.432        3.615        0.852      234.740       42.674        0.033      341.772       16.714      859.949
03/05/2014  14:30:00     -148.274     -138.841      -10.209      115.388       67.056       58.523    13314.414     4496.457     3424.954        3.130        1.062      203.131       34.929        0.030      341.807       16.773      859.950
03/05/2014  14:31:00       69.262      -88.991       26.526       95.359      133.500       73.953     9093.279    17822.154     5469.092        2.290        1.619      112.768       80.091        0.504      341.973       17.057      859.965
03/05/2014  14:32:00       87.290     -194.710      -23.870      125.166       80.011       68.676    15666.530     6401.803     4716.349        3.644        1.339      213.381       66.779        0.098      341.837       16.825      859.935
03/05/2014  14:33:00     -105.750      -72.960        1.694       65.124       64.634       41.278     4241.134     4177.554     1703.840        1.331        0.506      128.476       47.341        0.136      342.071       17.223      859.949
03/05/2014  14:34:00      -44.572      -50.159       -2.878       38.852       30.609       22.259     1509.471      936.895      495.480        0.373        0.147       67.101        7.943        0.014      342.164       17.381      859.973
03/05/2014  14:35:00       -9.896      -29.089        2.708       26.028       35.187       29.118      677.474     1238.129      847.881        0.186        0.138       30.726       16.720        0.296      342.281       17.580      859.983
03/05/2014  14:36:00       26.632      -48.974       -1.349       51.806       64.654       22.526     2683.892     4180.095      507.442        0.524        0.369       55.747       26.557        0.227      342.158       17.371      859.978
03/05/2014  14:37:00       29.690      -77.977        9.998       58.048       61.512       33.976     3369.560     3783.735     1154.377        0.768        0.415       83.438       31.774        0.145      341.965       17.044      859.942
03/05/2014  14:38:00      -36.943       23.408       32.377       52.577       43.315       34.621     2764.380     1876.188     1198.584        0.440        0.292       43.735       33.781        0.597      342.116       17.301      859.895
03/05/2014  14:39:00       47.268       67.668       60.428       50.085       42.523       40.421     2508.529     1808.186     1633.847        0.821        0.298       82.542       33.165        0.161      342.066       17.215      859.876
03/05/2014  14:40:00       26.929      -82.158      -11.355       36.539       72.023       30.857     1335.104     5187.334      952.157        0.754        0.374       86.459       36.327        0.177      342.086       17.250      859.877
03/05/2014  14:41:00       -8.960      -45.974      -17.555       45.236       47.349       44.734     2046.333     2241.901     2001.164        0.439        0.314       46.839       21.973        0.220      342.215       17.470      859.881
03/05/2014  14:42:00      -35.355      -17.157        3.346       45.075       36.455       24.857     2031.794     1328.978      617.874        0.277        0.199       39.298       15.341        0.152      342.329       17.662      859.875
03/05/2014  14:43:00      -99.990     -106.168      -11.061       68.442       94.377       36.504     4684.374     8907.032     1332.515        1.816        0.746      145.842       36.609        0.063      342.129       17.322      859.874
03/05/2014  14:44:00      -20.643      -25.902       27.738       63.941       46.456       32.048     4088.448     2158.122     1027.045        0.457        0.364       33.122       20.681        0.390      342.175       17.400      859.844
03/05/2014  14:45:00      -22.973        9.448        3.339       35.413       38.914       21.704     1254.081     1514.326      471.077        0.193        0.162       24.840       17.995        0.525      342.149       17.355      859.827
03/05/2014  14:46:00     -137.761      -70.933        1.312       66.152       59.142       33.187     4376.061     3497.747     1101.402        1.649        0.449      154.950       30.986        0.040      341.998       17.099      859.828
03/05/2014  14:47:00      -34.843      -78.187        6.535       81.079       51.803       35.143     6573.839     2683.511     1235.056        0.893        0.525       85.600       23.529        0.076      342.083       17.245      859.836
03/05/2014  14:48:00      -92.796      -71.320       17.753       67.755       70.028       41.210     4590.713     4903.884     1698.277        1.260        0.560      117.037       36.248        0.096      342.140       17.341      859.845
03/05/2014  14:49:00     -121.102     -120.730        1.019       94.455       81.456       46.553     8921.720     6635.126     2167.207        2.348        0.886      171.001       50.367        0.087      342.067       17.216      859.840
03/05/2014  14:50:00      -64.152      -19.433       32.768       66.382       79.303       38.712     4406.569     6288.939     1498.628        0.888        0.610       67.030       45.470        0.460      342.260       17.545      859.818
03/05/2014  14:51:00       -2.202       34.143        4.799       35.657       56.180       26.539     1271.412     3156.210      704.341        0.316        0.257       34.214       22.948        0.450      342.381       17.749      859.798
03/05/2014  14:52:00      -28.812      -12.489       -8.449       30.171       26.730       18.262      910.300      714.473      333.503        0.151        0.098       31.403       15.790        0.253      342.447       17.862      859.787
03/05/2014  14:53:00      -53.748      -12.820       -3.836       51.619       41.242       32.828     2664.518     1700.882     1077.649        0.425        0.272       55.256       18.777        0.115      342.467       17.897      859.784
03/05/2014  14:54:00      -31.662      -25.520        2.849       82.722       43.593       31.798     6842.918     1900.365     1011.129        0.571        0.488       40.666       29.617        0.530      342.474       17.908      859.803
03/05/2014  14:55:00     -139.716      -73.740        6.140       93.498       70.368       42.376     8741.903     4951.719     1795.745        2.024        0.774      157.981       31.151        0.039      342.423       17.821      859.822
03/05/2014  14:56:00      -27.800      -37.055       24.523       72.889      102.032       42.739     5312.739    10410.482     1826.617        1.015        0.877       46.324       43.732        0.891      342.586       18.098      859.788
03/05/2014  14:57:00     -241.774     -197.244        2.545      119.609      109.077       67.657    14306.246    11897.727     4577.524        6.407        1.539      312.025       48.102        0.024      342.285       17.584      859.796
03/05/2014  14:58:00     -152.288     -222.068       -0.684      115.669      135.172       61.686    13379.404    18271.427     3805.177        5.398        1.773      269.269       60.046        0.050      342.104       17.278      859.771
03/05/2014  14:59:00      -59.026     -124.194       12.151       81.011      103.392       38.601     6562.746    10689.846     1490.072        1.890        0.937      137.507       32.071        0.054      342.264       17.550      859.759
03/05/2014  15:00:00      -75.835     -236.378        3.007       89.714      128.599       44.001     8048.680    16537.609     1936.058        4.407        1.326      248.245       37.743        0.023      342.063       17.207      859.754
03/05/2014  15:01:00     -202.406     -131.752       -2.818      180.631      103.600       62.407    32627.533    10733.020     3894.608        5.279        2.363      241.509       47.250        0.038      342.194       17.430      859.692
03/05/2014  15:02:00     -290.697     -162.718        3.993      160.172      156.495       79.838    25654.914    24490.726     6374.161        8.375        2.826      333.139       87.421        0.069      342.079       17.235      859.680
03/05/2014  15:03:00     -168.464     -204.051       -4.503      101.049      130.756       56.955    10210.889    17097.055     3243.830        5.029        1.528      264.607       46.241        0.031      341.960       17.031      859.652
03/05/2014  15:04:00     -199.172     -111.346        7.111      134.925       89.406       59.136    18204.780     7993.503     3497.109        4.090        1.485      228.183       68.322        0.090      342.114       17.294      859.607
03/05/2014  15:05:00     -100.415     -100.774       27.678      133.457       98.149       51.352    17810.718     9633.243     2637.033        2.554        1.504      142.262       55.862        0.154      342.269       17.559      859.592
03/05/2014  15:06:00      -77.908      -93.238        5.611       70.365       75.154       40.704     4951.271     5648.075     1656.809        1.352        0.613      121.503       32.294        0.071      342.290       17.594      859.579
03/05/2014  15:07:00      -43.303     -138.989       10.532       50.343       51.628       35.773     2534.384     2665.409     1279.733        1.389        0.324      145.579       24.115        0.027      342.301       17.616      859.570
03/05/2014  15:08:00      -31.164      -44.095        5.174       30.400       47.571       21.810      924.160     2263.002      475.678        0.330        0.183       53.996       18.227        0.114      342.668       18.239      859.564
03/05/2014  15:09:00        8.412      -15.070       21.238       46.086       84.013       48.255     2123.964     7058.261     2328.541        0.613        0.576       17.259       55.684       10.409      342.745       18.371      859.552
03/05/2014  15:10:00      -21.956       26.090       13.592       63.903       59.057       59.733     4083.624     3487.735     3568.063        0.624        0.557       34.099       26.540        0.606      342.647       18.204      859.512
03/05/2014  15:11:00       22.429      -84.975       43.010       67.890       91.508       67.210     4609.025     8373.624     4517.242        1.353        0.875       87.885       67.176        0.584      342.668       18.238      859.520
03/05/2014  15:12:00       40.774     -192.946      -15.306      129.570      100.174       83.157    16788.429    10034.853     6915.132        3.643        1.687      197.207       61.260        0.096      342.271       17.563      859.528
03/05/2014  15:13:00       70.579      -41.180       47.956       72.302      108.887       65.449     5227.510    11856.436     4283.563        1.517        1.068       81.714       62.557        0.586      342.323       17.650      859.481
03/05/2014  15:14:00        8.660      -39.862        7.909       52.595       61.782       41.778     2766.216     3817.047     1745.411        0.503        0.416       40.792       41.777        1.049      342.528       17.999      859.428
03/05/2014  15:15:00      -16.302      -27.410       12.837       76.620       52.151       38.380     5870.559     2719.738     1473.002        0.562        0.503       31.891       38.883        1.487      342.571       18.073      859.419
03/05/2014  15:16:00     -239.041      -38.211       12.651      133.534       95.558       60.981    17831.419     9131.347     3718.706        4.472        1.534      242.076       48.069        0.039      342.299       17.608      859.425
03/05/2014  15:17:00     -316.997      -66.918      -14.598      122.040      120.910       64.415    14893.883    14619.284     4149.314        6.941        1.683      323.983       56.799        0.031      342.070       17.219      859.397
03/05/2014  15:18:00     -248.307     -109.722       -7.620      140.143      119.646       51.450    19639.938    14315.065     2647.134        5.517        1.830      271.469       49.669        0.033      342.108       17.285      859.393
03/05/2014  15:19:00     -276.600     -178.883        1.923      140.251      110.533       66.250    19670.287    12217.649     4389.070        7.239        1.814      329.404       55.462        0.028      342.173       17.394      859.377
03/05/2014  15:20:00     -265.865     -205.097        0.846      158.465      142.274       74.027    25111.136    20242.029     5480.016        8.178        2.542      335.781       71.023        0.045      342.091       17.256      859.380
03/05/2014  15:21:00     -232.511     -326.386        2.250      151.682      165.979       88.790    23007.287    27549.052     7883.648       10.951        2.922      400.736       83.990        0.044      341.972       17.052      859.412
03/05/2014  15:22:00      -31.262     -173.616      -15.919      104.348       77.755       55.821    10888.479     6045.776     3115.999        2.571        1.003      176.408       45.908        0.068      342.261       17.543      859.409
03/05/2014  15:23:00      -33.383     -134.840       16.468       67.592       98.169       58.493     4568.660     9637.117     3421.413        1.859        0.881      138.911       52.744        0.144      342.358       17.709      859.377
03/05/2014  15:24:00     -112.430     -166.007       15.298      162.922      100.108       66.572    26543.591    10021.690     4431.856        4.071        2.050      200.496       69.983        0.122      342.218       17.471      859.390
03/05/2014  15:25:00     -224.393     -204.095       -8.346      143.302      128.500       59.765    20535.320    16512.271     3571.905        6.634        2.031      303.327       62.286        0.042      342.034       17.157      859.341
03/05/2014  15:26:00      -53.751      -96.144       18.563       93.441       84.388       53.084     8731.312     7121.360     2817.921        1.557        0.934      110.149       38.100        0.120      342.108       17.286      859.326
03/05/2014  15:27:00       21.876      -58.485       16.825       67.097       71.072       53.297     4502.033     5051.248     2840.616        0.829        0.620       62.442       38.522        0.381      342.433       17.838      859.332
03/05/2014  15:28:00       56.472     -109.723       35.956      117.611      122.931       69.484    13832.257    15111.937     4828.064        2.514        1.689      123.403       59.527        0.233      342.241       17.510      859.325
03/05/2014  15:29:00      -59.980     -187.020      -16.014       90.934      111.448       60.294     8269.055    12420.569     3635.410        3.157        1.216      196.403       54.373        0.077      342.222       17.477      859.336
03/05/2014  15:30:00        7.360     -155.191      -11.840      119.190      102.557       60.110    14206.263    10517.884     3613.180        2.630        1.417      155.366       51.066        0.108      342.225       17.484      859.351
03/05/2014  15:31:00       68.250     -147.543       18.939       81.237      108.258       74.324     6599.511    11719.809     5523.991        2.531        1.192      162.564       72.029        0.196      342.229       17.491      859.337
03/05/2014  15:32:00       19.392     -114.622        2.174       83.505      132.345       73.359     6973.035    17515.186     5381.509        2.169        1.493      116.251       64.046        0.304      342.161       17.376      859.314
03/05/2014  15:33:00       52.282     -116.649       17.696      106.774      127.999       66.991    11400.742    16383.654     4487.788        2.446        1.614      127.830       76.863        0.362      342.104       17.279      859.301
03/05/2014  15:34:00      117.779     -138.855       21.458       96.988      139.566       83.415     9406.743    19478.730     6958.076        3.472        1.792      182.078       86.885        0.228      341.956       17.027      859.273
03/05/2014  15:35:00       82.342      -53.175       48.681       85.227      111.218       72.678     7263.574    12369.428     5282.110        1.844        1.246       98.019       82.930        0.716      342.068       17.217      859.283
03/05/2014  15:36:00       11.456       11.355       89.687       57.162       86.657       64.918     3267.466     7509.482     4214.291        1.165        0.750       16.130       64.327       15.905      342.223       17.483      859.258
03/05/2014  15:37:00       45.106     -166.069       -6.451       83.388      118.157       73.057     6953.599    13961.029     5337.372        2.795        1.313      172.085       63.251        0.135      342.097       17.267      859.219
03/05/2014  15:38:00       64.307     -204.902       -5.302      102.803      159.288       82.268    10568.536    25372.790     6768.045        4.442        2.135      214.756       92.675        0.186      342.039       17.167      859.226
03/05/2014  15:39:00       -1.306     -123.404       15.417       86.366      114.930       70.567     7459.155    13208.872     4979.745        2.055        1.282      123.411       56.893        0.213      342.183       17.415      859.251
03/05/2014  15:40:00       38.594     -169.492       -4.423      123.526       92.878       64.610    15258.626     8626.390     4174.465        2.914        1.403      173.831       57.613        0.110      342.128       17.319      859.246
03/05/2014  15:41:00      -48.693      -95.667       12.394       71.093      106.229       47.657     5054.164    11284.691     2271.165        1.514        0.931      107.346       44.528        0.172      342.214       17.467      859.242
03/05/2014  15:42:00       92.144     -212.585       -8.422      116.546      166.618       85.155    13582.948    27761.670     7251.320        5.117        2.430      231.696       92.711        0.160      341.947       17.010      859.241
03/05/2014  15:43:00       88.525     -246.317       -5.113      117.388      129.444       75.297    13779.974    16755.870     5669.654        5.236        1.810      261.742       52.769        0.041      341.852       16.848      859.248
03/05/2014  15:44:00       59.067     -145.346        1.073      104.918       96.044       66.149    11007.821     9224.373     4375.754        2.461        1.230      156.890       61.110        0.152      342.013       17.124      859.233
03/05/2014  15:45:00      123.342     -154.829       17.786      105.882      169.718       97.143    11211.088    28804.360     9436.700        4.447        2.473      197.953      108.116        0.298      342.018       17.132      859.215
03/05/2014  15:46:00       32.883     -125.860        0.684      109.933      113.894       55.575    12085.191    12971.886     3088.527        2.253        1.407      130.085       45.261        0.121      342.009       17.119      859.181
03/05/2014  15:47:00        9.996     -124.367        2.933       74.294       83.478       47.292     5519.627     6968.631     2236.491        1.515        0.736      124.769       38.591        0.096      341.984       17.075      859.149
03/05/2014  15:48:00       14.564      -81.155       16.501       79.528       62.291       46.540     6324.632     3880.192     2166.003        0.972        0.619       82.451       35.177        0.182      342.151       17.360      859.119
03/05/2014  15:49:00       71.208     -157.649        1.712       97.845      113.901       54.826     9573.632    12973.492     3005.929        2.774        1.278      172.985       47.309        0.075      342.126       17.317      859.117
03/05/2014  15:50:00      127.789     -146.257      -29.884      115.219      104.339       73.106    13275.531    10886.594     5344.550        3.406        1.475      194.220       65.079        0.112      341.997       17.097      859.107
03/05/2014  15:51:00      122.233     -145.215        7.390      138.012      193.302      125.521    19047.189    37365.737    15755.451        5.411        3.608      189.811      151.306        0.635      341.974       17.057      859.082
03/05/2014  15:52:00      102.684     -221.878      -10.010       95.990      103.421       56.594     9214.062    10695.910     3202.832        4.149        1.156      244.486       48.973        0.040      341.814       16.785      859.142
03/05/2014  15:53:00       34.791      -59.112       68.632       94.159      147.720       79.565     8865.974    21821.210     6330.624        2.321        1.851       68.590       87.705        1.635      341.940       17.002      859.145
03/05/2014  15:54:00       28.530      -97.530        5.142       86.633       79.547       55.411     7505.320     6327.711     3070.348        1.363        0.845      101.617       46.482        0.209      342.107       17.284      859.169
03/05/2014  15:55:00       72.079      -92.469       13.181       59.425       83.487       42.025     3531.314     6970.039     1766.134        1.309        0.613      117.243       41.248        0.124      342.039       17.170      859.171
03/05/2014  15:56:00       13.751      -84.695      -23.360       53.950       55.782       39.527     2910.643     3111.669     1562.401        0.775        0.379       85.804       27.427        0.102      342.212       17.464      859.172
03/05/2014  15:57:00       74.793      -87.529        0.195      102.105       81.072       46.199    10425.422     6572.748     2134.331        1.619        0.957      115.132       44.216        0.147      342.184       17.415      859.164
03/05/2014  15:58:00       -9.545      -93.156        0.135       37.278       81.147       41.239     1389.625     6584.916     1700.656        0.922        0.484       93.644       38.466        0.169      342.382       17.753      859.161
03/05/2014  15:59:00       21.439     -136.891      -14.558       88.633       89.133       51.314     7855.776     7944.682     2633.146        1.892        0.922      138.559       44.274        0.102      342.107       17.285      859.166
03/05/2014  16:00:00      -43.786      -81.734      -19.131       62.132       54.628       35.135     3860.431     2984.264     1234.441        0.852        0.404       92.723       30.703        0.110      342.231       17.496      859.199
03/05/2014  16:01:00      -36.865      -24.210       11.896       42.053       39.528       23.506     1768.472     1562.483      552.534        0.298        0.194       44.104        9.238        0.044      342.462       17.888      859.215
03/05/2014  16:02:00      -59.361       -0.476        7.661       66.397       56.909       41.946     4408.606     3238.668     1759.486        0.649        0.470       59.363       30.519        0.264      342.269       17.560      859.220
03/05/2014  16:03:00      -76.643      -56.111        5.113       68.044       46.725       26.830     4630.016     2183.221      719.836        0.829        0.377       94.987       21.901        0.053      342.221       17.479      859.206
03/05/2014  16:04:00     -111.963     -110.988       -6.502       77.636       56.154       32.997     6027.323     3153.276     1088.826        1.758        0.513      157.651       23.898        0.023      342.014       17.126      859.183
03/05/2014  16:05:00     -122.538     -109.371       13.722       95.933       85.082       47.358     9203.061     7238.952     2242.747        2.292        0.934      164.249       50.221        0.093      342.065       17.211      859.175
03/05/2014  16:06:00       -6.746      -45.242        0.027       44.834       47.489       35.091     2010.105     2255.238     1231.379        0.379        0.275       45.742       24.474        0.286      342.266       17.555      859.197
03/05/2014  16:07:00        9.803      -86.351      -30.521       72.681       55.771       40.423     5282.537     3110.381     1634.019        0.925        0.501       86.906       24.311        0.078      341.951       17.019      859.198
03/05/2014  16:08:00      -50.997     -125.700      -30.000       62.304       88.138       46.076     3881.826     7768.294     2123.036        1.653        0.689      135.651       20.588        0.023      341.983       17.073      859.195
03/05/2014  16:09:00      -71.921      -25.344        5.168       49.651       46.772       24.497     2465.177     2187.616      600.123        0.555        0.263       76.256       21.804        0.082      342.144       17.348      859.189
03/05/2014  16:10:00      -73.253      -53.546       -1.978       58.598       41.783       32.420     3433.777     1745.846     1051.048        0.723        0.312       90.737       33.320        0.135      342.034       17.163      859.207
03/05/2014  16:11:00      -32.450      -12.187        7.638       32.444       24.166       23.011     1052.631      583.977      529.512        0.171        0.108       34.663       21.671        0.391      342.110       17.291      859.202
03/05/2014  16:12:00      -83.938       14.381      -24.593       47.790       64.454       33.763     2283.851     4154.297     1139.917        0.772        0.379       85.161       24.573        0.083      341.870       16.882      859.175
03/05/2014  16:13:00     -125.357     -115.177       -3.169       88.721       69.150       39.286     7871.490     4781.711     1543.410        2.159        0.710      170.236       42.572        0.063      342.049       17.185      859.207
03/05/2014  16:14:00     -193.380      -63.860      -10.841       80.636       92.867       42.345     6502.089     8624.345     1793.121        2.925        0.846      203.652       34.245        0.028      341.770       16.710      859.233
03/05/2014  16:15:00      -64.870      -92.781        4.449       95.386       61.031       49.443     9098.494     3724.800     2444.648        1.405        0.763      113.209       55.606        0.241      341.736       16.655      859.244
03/05/2014  16:16:00        1.866       47.780      -18.235       91.447       74.389       49.197     8362.473     5533.777     2420.392        0.947        0.816       47.817       45.003        0.886      341.705       16.603      859.229
03/05/2014  16:17:00     -103.390     -148.031      -16.596      129.201       51.225       40.466    16692.965     2624.025     1637.470        2.691        1.048      180.562       37.228        0.043      341.841       16.830      859.217
03/05/2014  16:18:00     -106.277      -63.130       25.539      110.782       68.624       41.964    12272.569     4709.265     1760.997        1.733        0.937      123.613       48.673        0.155      342.039       17.169      859.226
03/05/2014  16:19:00      -34.093       32.695       33.940       72.647       51.289       34.298     5277.552     2630.593     1176.348        0.623        0.454       47.237       32.672        0.478      342.015       17.129      859.224
03/05/2014  16:20:00      -46.532       -3.550       16.216       79.163       45.744       28.431     6266.857     2092.506      808.340        0.580        0.458       46.667       38.215        0.671      341.999       17.101      859.198
03/05/2014  16:21:00      -79.091     -138.491        1.160      105.779      122.516       58.900    11189.205    15010.064     3469.237        2.755        1.483      159.484       69.059        0.188      341.846       16.841      859.169
03/05/2014  16:22:00     -165.010      -79.296       -0.491       82.206       52.807       37.362     6757.744     2788.609     1395.901        2.223        0.547      183.074       38.577        0.044      341.648       16.505      859.164
03/05/2014  16:23:00     -262.919     -104.642      -14.667      109.474      104.214       49.240    11984.462    10860.603     2424.604        5.278        1.263      282.977       50.116        0.031      341.568       16.368      859.126
03/05/2014  16:24:00     -246.202      -82.972       -2.038      161.193      106.217       58.485    25983.144    11282.049     3420.535        5.409        2.034      259.808       62.516        0.058      341.693       16.580      859.133
03/05/2014  16:25:00     -264.207     -114.934      -15.023      146.269      119.484       74.083    21394.514    14276.482     5488.262        6.219        2.058      288.124       79.842        0.077      341.770       16.710      859.125
03/05/2014  16:26:00     -195.443      -32.157       12.147      134.721      110.910       72.513    18149.783    12301.126     5258.133        3.754        1.785      198.071       68.593        0.120      341.890       16.913      859.139
03/05/2014  16:27:00     -188.667     -202.173        0.882      155.131      132.339       68.664    24065.780    17513.740     4714.789        6.137        2.315      276.530       77.619        0.079      341.818       16.791      859.167
03/05/2014  16:28:00     -141.489     -254.215       -2.507       97.667      133.531       56.563     9538.914    17830.629     3199.372        5.760        1.528      290.937       45.476        0.024      341.775       16.719      859.160
03/05/2014  16:29:00     -129.561     -104.868       11.990      126.506       74.395       59.472    16003.754     5534.548     3536.904        2.650        1.254      166.684       64.422        0.149      341.787       16.741      859.135
03/05/2014  16:30:00     -157.168     -113.008       -8.828       54.198       67.118       39.950     2937.462     4504.768     1595.988        2.329        0.452      193.579       37.923        0.038      341.762       16.698      859.122
03/05/2014  16:31:00      -95.778     -149.173       11.764      183.304      161.614       99.076    33600.186    26119.003     9816.034        5.054        3.477      177.274       96.431        0.296      341.821       16.797      859.108
03/05/2014  16:32:00      -59.858     -157.207       18.640      147.789      125.980       71.624    21841.557    15870.947     5129.953        3.574        2.142      168.218       46.520        0.076      341.792       16.751      859.120
03/05/2014  16:33:00     -145.282     -217.846       -3.885      133.075      121.956       65.509    17708.877    14873.233     4291.402        5.272        1.844      261.847       65.979        0.063      341.667       16.535      859.157
03/05/2014  16:34:00     -199.134     -188.065      -23.107      101.548      118.219       62.013    10312.054    13975.741     3845.642        5.184        1.407      273.902       60.949        0.050      341.713       16.614      859.155
03/05/2014  16:35:00     -167.564     -122.484       16.437      160.087      101.100       73.221    25627.827    10221.183     5361.362        4.227        2.061      207.558       63.377        0.093      341.785       16.736      859.143
03/05/2014  16:36:00      -92.691     -138.481       -7.695       80.009       71.377       47.770     6401.437     5094.686     2282.013        2.080        0.689      166.640       38.618        0.054      341.838       16.826      859.166
03/05/2014  16:37:00      -95.009     -110.220        1.501       86.136       97.848       43.514     7419.371     9574.281     1893.495        2.003        0.944      145.517       53.427        0.135      341.865       16.871      859.195
03/05/2014  16:38:00     -120.513     -113.274       -3.018       87.866      104.610       40.969     7720.425    10943.174     1678.481        2.385        1.017      165.392       36.760        0.049      341.817       16.789      859.222
03/05/2014  16:39:00     -121.316      -45.958        9.090       92.677       60.293       34.648     8588.948     3635.299     1200.465        1.517        0.671      129.729       36.217        0.078      341.852       16.852      859.231
03/05/2014  16:40:00     -191.548      -39.063       -0.199      107.986       88.253       45.973    11660.942     7788.645     2113.523        2.989        1.078      195.490       51.522        0.069      341.770       16.709      859.224
03/05/2014  16:41:00     -258.299      -73.636      -13.564      141.300       63.434       53.592    19965.689     4023.929     2872.132        4.959        1.343      268.590       71.216        0.070      341.624       16.463      859.207
03/05/2014  16:42:00      -77.472      -28.893       -3.778       78.300       59.217       38.496     6130.928     3506.598     1481.932        0.898        0.556       82.685       44.516        0.290      341.652       16.513      859.182
03/05/2014  16:43:00     -136.978      -45.717        3.811       85.407       72.449       32.287     7294.328     5248.896     1042.420        1.722        0.679      144.406       39.183        0.074      341.524       16.295      859.185
03/05/2014  16:44:00      -84.586     -106.247       11.353      102.675       62.427       42.169    10542.139     3897.158     1778.201        1.739        0.811      135.806       45.498        0.112      341.604       16.429      859.176
03/05/2014  16:45:00     -148.465      -92.795        2.133      105.748       96.271       47.299    11182.598     9268.059     2237.149        2.667        1.134      175.079       53.262        0.093      341.588       16.403      859.201
03/05/2014  16:46:00     -226.960     -170.870       -1.849      125.898       94.346       60.684    15850.210     8901.195     3682.599        5.457        1.422      284.090       62.512        0.048      341.346       15.992      859.202
03/05/2014  16:47:00     -242.202      -90.331        0.766      142.189      122.331       62.170    20217.623    14964.863     3865.126        5.293        1.952      258.498       74.687        0.083      341.487       16.230      859.167
03/05/2014  16:48:00     -243.972     -162.768        1.241      129.317       86.695       57.464    16722.934     7516.086     3302.139        5.677        1.377      293.284       58.248        0.039      341.442       16.154      859.129
03/05/2014  16:49:00     -152.303     -146.859       -3.750      135.551       62.420       43.366    18374.025     3896.293     1880.619        3.446        1.208      211.574       45.733        0.047      341.473       16.208      859.128
03/05/2014  16:50:00        6.708      -45.898       38.304       83.296       84.574       47.800     6938.279     7152.820     2284.798        0.999        0.819       46.385       38.831        0.701      341.654       16.517      859.097
03/05/2014  16:51:00       11.816     -100.939       13.649       75.219       92.310       58.342     5657.919     8521.157     3403.791        1.405        0.879      101.628       37.682        0.137      341.681       16.563      859.058
03/05/2014  16:52:00      -24.687      -43.463       -0.587       59.475       82.129       50.610     3537.250     6745.092     2561.379        0.767        0.642       49.985       45.932        0.844      341.647       16.503      859.020
03/05/2014  16:53:00      -17.191      -61.250       -0.438       66.735       55.363       38.768     4453.503     3065.070     1502.938        0.653        0.451       63.617       36.263        0.325      341.765       16.705      859.021
03/05/2014  16:54:00       -2.594      -86.886       18.867       90.359       78.667       52.289     8164.692     6188.526     2734.100        1.250        0.854       86.925       46.973        0.292      341.700       16.595      859.054
03/05/2014  16:55:00     -145.163     -173.173       -0.456      132.388      129.723       62.339    17526.497    16828.009     3886.177        4.464        1.912      225.968       47.758        0.045      341.513       16.274      859.078
03/05/2014  16:56:00     -115.874     -148.611       -8.134       73.360      104.250       49.669     5381.761    10868.067     2467.037        2.714        0.936      188.446       52.892        0.079      341.384       16.058      859.120
03/05/2014  16:57:00     -241.348     -163.983       -2.635      146.246      111.111       53.351    21387.993    12345.751     2846.302        6.086        1.829      291.787       54.354        0.035      341.399       16.082      859.125
03/05/2014  16:58:00     -255.634      -84.362      -15.382      107.216       90.963       41.664    11495.205     8274.212     1735.928        4.710        1.075      269.195       39.097        0.021      341.456       16.178      859.149
03/05/2014  16:59:00     -342.123     -130.389      -28.945      117.699      101.465       68.274    13853.098    10295.057     4661.292        8.184        1.440      366.128       69.078        0.036      341.477       16.213      859.183
03/05/2014  17:00:00     -196.353     -141.897        0.209      131.905      114.254       58.532    17398.798    13053.944     3425.997        4.628        1.694      242.259       68.191        0.079      341.513       16.274      859.206
03/05/2014  17:01:00     -172.016     -202.285        3.165      185.272      106.108       67.906    34325.544    11258.941     4611.157        6.035        2.510      265.535       60.394        0.052      341.525       16.295      859.188
03/05/2014  17:02:00     -106.088     -187.595        7.609      100.880      130.540       53.110    10176.675    17040.613     2820.644        3.827        1.502      215.515       50.185        0.054      341.601       16.423      859.207
03/05/2014  17:03:00     -125.285     -141.825       14.357      119.766       82.717       51.977    14343.831     6842.041     2701.575        2.995        1.194      189.237       52.391        0.077      341.597       16.417      859.165
03/05/2014  17:04:00     -107.357      -73.284       17.378      104.857       73.544       48.223    10995.065     5408.783     2325.462        1.796        0.936      129.984       40.968        0.099      341.638       16.489      859.149
03/05/2014  17:05:00      -87.290      -73.626        2.797       79.110       83.012       41.026     6258.397     6890.944     1683.147        1.394        0.742      114.194       23.485        0.042      341.637       16.487      859.135
03/05/2014  17:06:00     -122.133     -110.507        6.281      112.373       96.143       41.592    12627.618     9243.507     1729.862        2.538        1.180      164.707       49.395        0.090      341.653       16.512      859.143
03/05/2014  17:07:00     -310.680     -219.037       -4.602      155.480      162.456       58.066    24174.153    26391.835     3371.675        9.922        2.697      380.130       45.544        0.014      341.484       16.226      859.148
03/05/2014  17:08:00     -156.657     -177.478        1.842      132.289       90.362       67.044    17500.424     8165.293     4494.907        4.310        1.508      236.727       56.448        0.057      341.552       16.340      859.213
03/05/2014  17:09:00     -256.815     -341.977        1.136      216.766      198.264       97.112    46987.421    39308.659     9430.802       13.930        4.786      427.671      101.082        0.056      341.558       16.351      859.195
03/05/2014  17:10:00     -329.927     -246.508        7.176      261.126      210.989       83.370    68186.887    44516.296     6950.623       14.464        5.983      411.848      111.448        0.073      341.520       16.286      859.168
03/05/2014  17:11:00     -457.157     -259.227       -4.318      299.143      240.009       92.825    89486.795    57604.173     8616.543       21.593        7.785      525.539      122.635        0.054      341.499       16.250      859.140
03/05/2014  17:12:00     -493.621     -362.280      -10.634      223.256      156.675      104.114    49843.124    24546.973    10839.727       23.011        4.261      612.297      117.901        0.037      341.419       16.115      859.114
03/05/2014  17:13:00     -380.841     -256.260      -15.566      190.827      128.815       89.188    36414.904    16593.399     7954.471       13.595        3.048      459.031      104.421        0.052      341.458       16.180      859.173
03/05/2014  17:14:00     -356.374     -187.732       -3.647      164.047      136.988       73.707    26911.435    18765.669     5432.686       10.668        2.555      402.798       65.964        0.027      341.452       16.171      859.207
03/05/2014  17:15:00     -450.437     -339.786      -11.011      250.412      166.294      103.287    62706.193    27653.816    10668.147       20.973        5.051      564.223      111.453        0.039      341.457       16.179      859.217
03/05/2014  17:16:00     -548.936     -281.541       -7.406      219.485      136.752       88.467    48173.506    18701.119     7826.360       22.766        3.735      616.924      100.840        0.027      341.458       16.180      859.199
03/05/2014  17:17:00     -416.681     -241.840      -19.549      188.047      143.348       79.235    35361.630    20548.509     6278.181       14.733        3.109      481.777       76.338        0.025      341.490       16.235      859.223
03/05/2014  17:18:00     -344.033     -271.542      -12.866      138.106      117.129       79.420    19073.299    13719.147     6307.556       11.567        1.955      438.285       77.291        0.031      341.481       16.219      859.254
03/05/2014  17:19:00     -285.023     -242.792        1.759      181.868      153.353       80.077    33075.979    23517.153     6412.400       10.159        3.150      374.415       93.697        0.063      341.495       16.244      859.247
03/05/2014  17:20:00     -242.453     -175.602      -14.557      135.392      100.194       62.287    18331.027    10038.913     3879.634        6.104        1.612      299.365       70.265        0.055      341.487       16.230      859.207
03/05/2014  17:21:00     -250.144     -197.941      -12.444      127.886      131.358       72.685    16354.934    17254.863     5283.093        7.039        1.945      318.987       57.043        0.032      341.467       16.196      859.167
03/05/2014  17:22:00     -241.043     -258.622      -21.309      116.775      123.561       64.322    13636.511    15267.409     4137.300        7.924        1.652      353.535       57.808        0.027      341.440       16.149      859.172
03/05/2014  17:23:00     -182.538     -208.316       -3.683      109.722      104.289       61.438    12039.014    10876.267     3774.572        5.171        1.334      276.976       58.158        0.044      341.463       16.189      859.193
03/05/2014  17:24:00     -125.357     -229.302        2.536       95.494      116.807       52.988     9119.171    13643.780     2807.721        4.693        1.279      261.331       47.031        0.032      341.503       16.258      859.194
03/05/2014  17:25:00     -104.766      -90.317        4.933       97.436       56.036       58.754     9493.792     3140.083     3452.017        1.762        0.804      138.322       53.730        0.151      341.525       16.298      859.157
03/05/2014  17:26:00     -140.903     -128.366       -0.600      122.464       93.219       52.707    14997.336     8689.787     2777.978        3.139        1.323      190.608       55.526        0.085      341.470       16.201      859.120
03/05/2014  17:27:00     -172.855     -187.368        1.023      110.500      104.000       48.876    12210.278    10815.899     2388.816        4.520        1.271      254.923       53.151        0.043      341.446       16.161      859.107
03/05/2014  17:28:00     -214.114     -144.317      -10.589      123.730       63.410       49.673    15309.181     4020.819     2467.373        4.429        1.090      258.209       53.275        0.043      341.451       16.169      859.084
03/05/2014  17:29:00     -186.604     -115.837       -3.227      110.111       84.281       48.494    12124.414     7103.241     2351.659        3.491        1.079      219.635       58.012        0.070      341.419       16.115      859.031
03/05/2014  17:30:00     -120.191      -74.346        6.572       87.355       64.035       35.665     7630.956     4100.448     1271.991        1.651        0.650      141.326       34.825        0.061      341.382       16.054      859.011
03/05/2014  17:31:00     -311.676      -68.506        1.226      115.137       93.266       66.484    13256.418     8698.630     4420.153        6.410        1.319      319.116       68.195        0.046      341.250       15.830      859.006
03/05/2014  17:32:00     -202.420     -132.212      -11.769      131.967       73.382       60.021    17415.421     5384.901     3602.481        4.249        1.320      241.772       40.751        0.028      341.303       15.919      859.018
03/05/2014  17:33:00     -263.268     -199.706       -7.517       97.120      112.613       49.368     9432.328    12681.632     2437.158        6.690        1.228      330.443       50.260        0.023      341.258       15.843      859.034
03/05/2014  17:34:00     -299.471     -197.705      -11.276      140.443       90.953       52.625    19724.247     8272.532     2769.401        7.983        1.538      358.845       52.907        0.022      341.257       15.841      859.035
03/05/2014  17:35:00     -108.129     -171.450       -6.636       93.897      102.462       42.208     8816.709    10498.362     1781.527        3.111        1.055      202.699       42.227        0.043      341.289       15.896      859.075
03/05/2014  17:36:00     -193.915     -153.425       -2.973      132.769      130.808       51.392    17627.564    17110.848     2641.091        4.926        1.869      247.270       53.103        0.046      341.236       15.805      859.123
03/05/2014  17:37:00     -205.338     -142.315      -13.510      148.506      122.012       60.346    22054.147    14886.922     3641.627        5.158        2.029      249.834       41.771        0.028      341.197       15.740      859.126
03/05/2014  17:38:00     -209.352     -127.116        2.340      117.205       87.007       55.880    13736.901     7570.164     3122.564        4.221        1.221      244.922       58.627        0.057      341.191       15.730      859.163
03/05/2014  17:39:00     -222.642     -150.266       -7.229      132.231      102.579       52.943    17485.135    10522.353     2802.912        5.150        1.541      268.607       44.617        0.028      341.104       15.582      859.162
03/05/2014  17:40:00     -123.394     -175.799       -2.403      116.564       93.864       57.958    13587.055     8810.368     3359.134        3.594        1.288      214.782       62.523        0.085      341.012       15.426      859.109
03/05/2014  17:41:00      -74.132      -63.423        6.415       74.601       73.532       38.311     5565.340     5406.970     1467.729        1.100        0.622       97.560       40.592        0.173      341.096       15.574      859.028
03/05/2014  17:42:00      -60.997      -39.676      -12.619       78.666       53.665       32.069     6188.265     2879.890     1028.446        0.777        0.505       72.766       38.768        0.284      341.156       15.673      858.961
03/05/2014  17:43:00     -116.122     -114.001      -14.038       62.250       55.208       30.691     3875.051     3047.961      941.935        1.727        0.393      162.728       24.200        0.022      341.041       15.479      858.958
03/05/2014  17:44:00     -122.731     -163.362        4.321      110.417       81.284       47.381    12191.945     6607.090     2244.957        3.140        1.052      204.328       47.845        0.055      341.025       15.447      859.003
03/05/2014  17:45:00     -225.640     -146.888       19.147      133.875       98.128       62.388    17922.419     9629.097     3892.270        5.214        1.572      269.239       68.147        0.064      340.958       15.334      859.027
03/05/2014  17:46:00     -287.559     -100.439       13.705      186.191      107.934       72.022    34666.986    11649.784     5187.217        7.223        2.575      304.595       80.060        0.069      340.915       15.262      859.039
03/05/2014  17:47:00     -247.084     -175.388      -19.987      141.002       85.846       67.140    19881.502     7369.536     4507.731        6.198        1.588      303.004       72.054        0.057      340.915       15.260      859.007
03/05/2014  17:48:00     -153.011     -136.012       -7.175      109.080       58.533       52.974    11898.423     3426.082     2806.223        3.004        0.907      204.724       54.084        0.070      340.907       15.250      858.936
03/05/2014  17:49:00     -199.526     -123.263      -11.377      115.874       81.647       53.664    13426.894     6666.230     2879.823        3.905        1.149      234.530       51.007        0.047      340.902       15.239      858.871
03/05/2014  17:50:00     -367.601     -181.118      -10.586      154.447      136.369       77.591    23853.934    18596.401     6020.310       10.825        2.424      409.798       71.983        0.031      340.913       15.258      858.829
03/05/2014  17:51:00     -306.360     -202.952      -10.925      196.645      124.120       76.943    38669.059    15405.704     5920.232        9.757        3.000      367.486       91.417        0.062      340.967       15.349      858.859
03/05/2014  17:52:00     -301.388     -188.401      -19.362      122.088       92.491       60.235    14905.574     8554.601     3628.207        7.689        1.354      355.429       58.831        0.027      341.003       15.411      858.875
03/05/2014  17:53:00     -149.319      -81.888       -0.712       69.850       78.837       39.556     4878.995     6215.349     1564.709        2.083        0.633      170.299       33.299        0.038      341.005       15.415      858.790
03/05/2014  17:54:00     -211.628      -90.690       10.945      100.054       86.383       53.065    10010.791     7462.080     2815.883        3.671        1.014      230.241       47.060        0.042      341.002       15.408      858.764
03/05/2014  17:55:00     -158.152      -55.000       11.062      123.992       86.961       55.861    15373.950     7562.155     3120.496        2.710        1.303      167.442       68.161        0.166      341.039       15.474      858.895
03/05/2014  17:56:00     -228.046     -139.923       -5.107       87.039       74.160       54.915     7575.774     5499.654     3015.637        4.385        0.805      267.551       48.159        0.032      341.035       15.465      858.942
03/05/2014  17:57:00     -178.900     -132.102       -5.169      103.676       78.813       54.103    10748.630     6211.514     2927.124        3.468        0.994      222.388       52.017        0.055      341.012       15.426      858.929
03/05/2014  17:58:00      -61.432     -192.151        9.715       83.414      125.641       51.268     6957.830    15785.588     2628.402        3.308        1.269      201.733       35.228        0.030      341.020       15.440      858.905
03/05/2014  17:59:00     -254.775     -182.330       -2.850      141.673       90.368       60.861    20071.156     8166.307     3704.105        6.505        1.597      313.296       62.907        0.040      341.027       15.453      858.901
03/05/2014  18:00:00     -126.885     -207.904       10.117       83.590       97.784       60.646     6987.288     9561.668     3677.903        3.982        1.011      243.565       58.858        0.058      341.024       15.446      858.819
03/05/2014  18:01:00     -149.308     -234.542       -0.394       63.061       84.647       42.982     3976.637     7165.054     1847.481        4.514        0.649      278.034       33.899        0.015      341.054       15.500      858.778
03/05/2014  18:02:00     -163.986     -226.138      -17.411      111.182       82.706       55.695    12361.424     6840.300     3101.987        5.031        1.115      279.338       45.980        0.027      341.051       15.495      858.893
03/05/2014  18:03:00     -153.971     -218.836      -10.344      127.278       91.824       63.333    16199.692     8431.603     4011.084        5.017        1.432      267.575       55.487        0.043      341.064       15.516      858.945
03/05/2014  18:04:00     -115.982      -61.167       -4.448       76.108       43.768       39.645     5792.458     1915.664     1571.740        1.324        0.464      131.123       33.025        0.063      341.023       15.446      858.950
03/05/2014  18:05:00     -179.558      -40.271       14.259       95.111       74.261       43.099     9046.079     5514.768     1857.528        2.524        0.821      184.019       47.090        0.065      340.952       15.326      858.898
03/05/2014  18:06:00     -192.923     -108.053        0.046       91.220      116.243       64.257     8321.039    13512.398     4128.939        3.742        1.298      221.121       66.402        0.090      340.877       15.198      858.891
03/05/2014  18:07:00     -162.226     -164.441       -6.164       97.750       69.264       52.599     9555.144     4797.437     2766.632        3.525        0.856      230.994       50.350        0.048      340.826       15.111      858.951
03/05/2014  18:08:00     -186.527     -196.284       -3.078      121.482       81.440       53.292    14757.976     6632.554     2840.042        4.878        1.212      270.776       54.998        0.041      340.771       15.019      859.016
03/05/2014  18:09:00     -263.043     -184.711       -4.062      121.220      100.230       56.124    14694.297    10045.973     3149.870        6.560        1.395      321.419       49.368        0.024      340.758       14.997      859.077
03/05/2014  18:10:00     -150.371     -172.832        1.377      100.255       96.372       48.224    10051.063     9287.544     2325.532        3.707        1.083      229.090       44.046        0.037      340.726       14.941      859.119
03/05/2014  18:11:00     -158.923     -161.208        8.546       98.981       97.732       55.480     9797.320     9551.630     3078.075        3.687        1.121      226.373       47.523        0.044      340.722       14.935      859.129
03/05/2014  18:12:00     -273.959      -85.130      -13.824      112.214       88.445       51.445    12592.011     7822.479     2646.608        5.277        1.153      286.881       52.958        0.034      340.752       14.986      859.107
03/05/2014  18:13:00     -214.201      -65.283       13.699      113.782      163.979       63.487    12946.274    26889.112     4030.643        4.709        2.193      223.929       71.621        0.102      340.743       14.971      859.123
03/05/2014  18:14:00     -122.687      -66.596       15.596      106.247       77.930       42.015    11288.437     6073.136     1765.240        1.943        0.956      139.596       41.845        0.090      340.757       14.996      859.164
03/05/2014  18:15:00     -269.048     -151.705       -9.508       98.679       77.356       50.887     9737.561     5983.936     2589.484        5.690        0.916      308.871       44.010        0.020      340.731       14.951      859.185
03/05/2014  18:16:00     -258.530     -192.831        2.417      141.426      131.726       79.057    20001.237    17351.780     6250.051        7.381        2.180      322.523       88.488        0.075      340.744       14.972      859.203
03/05/2014  18:17:00     -352.542     -169.410       -8.488      178.663      155.338       68.635    31920.399    24129.976     4710.698       10.690        3.038      391.134       74.910        0.037      340.749       14.982      859.178
03/05/2014  18:18:00     -282.116     -176.098       -3.090      106.813       96.523       59.096    11409.042     9316.705     3492.308        6.741        1.211      332.566       46.951        0.020      340.738       14.963      859.189
03/05/2014  18:19:00     -191.323     -155.504        9.511      134.560      121.386       68.991    18106.306    14734.630     4759.745        4.923        1.880      246.548       65.847        0.071      340.756       14.994      859.210
03/05/2014  18:20:00      -51.185      -49.711       19.652       76.682       57.224       40.307     5880.114     3274.559     1624.659        0.813        0.539       71.352       10.152        0.020      340.839       15.135      859.137
03/05/2014  18:21:00      -61.503     -113.746      -10.916       50.574       60.200       35.013     2557.696     3624.041     1225.933        1.212        0.370      129.309       34.735        0.072      340.801       15.071      859.105
03/05/2014  18:22:00     -140.349     -141.142      -16.377      113.342       75.814       39.261    12846.435     5747.689     1541.413        3.001        1.007      199.045       40.024        0.040      340.762       15.005      859.110
03/05/2014  18:23:00     -161.070     -142.542       -2.947       86.705       78.566       43.880     7517.735     6172.689     1925.435        3.094        0.781      215.086       46.098        0.046      340.764       15.007      859.131
03/05/2014  18:24:00     -185.166     -142.758        5.562      111.610      145.683       54.622    12456.782    21223.662     2983.617        4.567        1.833      233.808       45.207        0.037      340.761       15.002      859.162
03/05/2014  18:25:00     -194.027     -146.384       -5.881      104.114      113.170       57.495    10839.741    12807.478     3305.668        4.303        1.348      243.053       57.574        0.056      340.765       15.007      859.201
03/05/2014  18:26:00     -264.149     -204.143      -10.660      161.182      103.427       55.708    25979.746    10697.114     3103.429        7.566        1.989      333.840       62.928        0.036      340.782       15.039      859.222
03/05/2014  18:27:00     -113.313      -70.528       15.754      102.282      112.354       53.149    10461.512    12623.424     2824.865        2.198        1.295      133.470       59.432        0.198      340.779       15.033      859.221
03/05/2014  18:28:00     -173.486     -112.461       -7.100      105.046       95.189       49.674    11034.670     9060.924     2467.484        3.268        1.128      206.748       37.483        0.033      340.772       15.020      859.154
03/05/2014  18:29:00     -159.162      -98.455        5.126      113.612      109.081       53.164    12907.622    11898.634     2826.380        3.134        1.382      187.152       54.023        0.083      340.767       15.014      859.114
03/05/2014  18:30:00     -161.553     -143.001       -0.735      118.769      124.405       56.261    14106.081    15476.561     3165.326        3.964        1.637      215.751       63.329        0.086      340.768       15.014      859.131
03/05/2014  18:31:00     -239.245     -149.443      -24.151      128.088       76.908       55.643    16406.428     5914.846     3096.140        5.278        1.271      282.084       56.901        0.041      340.749       14.982      859.147
03/05/2014  18:32:00     -190.166     -176.727      -11.448       76.572       81.265       45.399     5863.254     6603.982     2061.052        4.102        0.726      259.606       46.004        0.031      340.745       14.974      859.128
03/05/2014  18:33:00     -223.587     -184.795        0.161      145.309      132.495       76.555    21114.758    17554.903     5860.688        6.433        2.227      290.069       86.892        0.090      340.752       14.985      859.141
03/05/2014  18:34:00     -361.794     -234.211       -7.409      138.810       93.169       66.678    19268.242     8680.403     4445.976       10.909        1.620      430.987       67.746        0.025      340.739       14.964      859.175
03/05/2014  18:35:00     -272.922     -111.204       -2.365      105.876       74.201       53.552    11209.684     5505.825     2867.869        5.322        0.979      294.708       43.688        0.022      340.762       15.003      859.226
03/05/2014  18:36:00     -232.821     -145.969      -19.819      107.212      114.032       51.101    11494.516    13003.330     2611.267        5.150        1.355      274.795       41.855        0.023      340.710       14.917      859.226
03/05/2014  18:37:00     -115.947     -185.007       -9.560       84.882       83.886       46.936     7205.037     7036.803     2203.024        3.210        0.822      218.338       39.846        0.033      340.739       14.963      859.222
03/05/2014  18:38:00     -161.596     -151.960        0.264      114.515       92.413       53.495    13113.736     8540.241     2861.732        3.686        1.226      221.822       54.088        0.059      340.733       14.956      859.198
03/05/2014  18:39:00     -135.820     -106.526       -0.727       75.932       66.968       47.870     5765.743     4484.737     2291.494        2.117        0.627      172.612       41.139        0.057      340.737       14.963      859.179
03/05/2014  18:40:00      -30.060      -59.806       23.843       70.062       79.036       44.565     4908.642     6246.764     1986.024        0.909        0.657       66.936       53.646        0.642      340.737       14.964      859.189
03/05/2014  18:41:00      -26.225      -89.469       -1.543       54.531       48.269       44.032     2973.658     2329.852     1938.816        0.797        0.362       93.234       27.443        0.087      340.827       15.116      859.172
03/05/2014  18:42:00      -78.625     -194.635       -3.163       88.923      109.010       56.426     7907.377    11883.110     3183.950        3.352        1.149      209.916       40.738        0.038      340.841       15.137      859.199
03/05/2014  18:43:00     -139.061     -151.769        3.912       82.654       76.686       52.663     6831.718     5880.778     2773.424        2.893        0.774      205.844       32.434        0.025      340.771       15.018      859.236
03/05/2014  18:44:00     -154.691     -271.721       -0.492       70.345      123.213       45.590     4948.399    15181.496     2078.446        5.998        1.110      312.668       35.102        0.013      340.722       14.934      859.198
03/05/2014  18:45:00     -111.311     -136.031       -3.894       89.414       72.224       42.000     7994.818     5216.301     1764.004        2.294        0.749      175.768       22.502        0.016      340.738       14.963      859.167
03/05/2014  18:46:00     -116.703     -140.721        3.854       83.657       66.162       50.774     6998.528     4377.366     2578.016        2.369        0.698      182.817       45.219        0.061      340.735       14.958      859.207
03/05/2014  18:47:00     -173.916      -94.826        2.249      106.244       65.178       43.562    11287.801     4248.201     1897.616        2.834        0.872      198.088       47.211        0.057      340.729       14.948      859.287
03/05/2014  18:48:00     -232.645     -100.776       -4.204      114.800      142.057       53.655    13179.077    20180.327     2878.900        5.026        1.812      253.534       66.663        0.069      340.739       14.966      859.329
03/05/2014  18:49:00     -302.850     -157.132      -18.098      128.599      122.733       61.553    16537.723    15063.440     3788.830        7.606        1.769      341.187       64.351        0.036      340.718       14.929      859.313
03/05/2014  18:50:00     -252.803     -138.637        0.647      138.765       89.275       58.062    19255.776     7970.055     3371.138        5.686        1.530      288.322       65.234        0.051      340.701       14.901      859.317
03/05/2014  18:51:00     -148.983     -104.949       11.311      102.668       65.370       48.125    10540.723     4273.217     2315.986        2.523        0.856      182.237       54.782        0.090      340.706       14.909      859.305
03/05/2014  18:52:00      -77.770     -147.070      -13.958       73.078       61.079       34.862     5340.462     3730.656     1215.389        1.908        0.514      166.367       32.370        0.038      340.756       14.994      859.269
03/05/2014  18:53:00      -47.737     -142.138        6.119       55.105       80.236       33.022     3036.570     6437.771     1090.452        1.654        0.528      149.941       35.323        0.055      340.786       15.046      859.197
03/05/2014  18:54:00      -85.906     -163.820      -11.868       75.685       75.941       45.556     5728.263     5767.094     2075.353        2.396        0.679      184.978       18.690        0.010      340.772       15.021      859.184
03/05/2014  18:55:00     -143.361     -116.844       -0.928       64.881       50.664       38.264     4209.489     2566.797     1464.116        2.122        0.412      184.946       33.593        0.033      340.749       14.983      859.167
03/05/2014  18:56:00      -87.188     -109.032       11.363       80.987      102.071       46.042     6558.898    10418.549     2119.880        1.935        0.955      139.606       50.476        0.131      340.735       14.959      859.202
03/05/2014  18:57:00     -195.111     -197.251       -8.778       91.718       94.044       51.082     8412.270     8844.235     2609.330        4.846        0.993      277.446       45.704        0.027      340.717       14.928      859.241
03/05/2014  18:58:00     -130.082      -71.568       11.509      102.675       67.154       44.763    10542.168     4509.713     2003.694        1.961        0.853      148.470       53.476        0.130      340.694       14.889      859.227
03/05/2014  18:59:00     -164.750      -72.598        1.104       92.438       76.084       38.376     8544.692     5788.710     1472.736        2.411        0.790      180.036       36.197        0.040      340.703       14.907      859.190
03/05/2014  19:00:00     -130.858      -59.324        0.712       92.017       69.840       40.868     8467.200     4877.619     1670.212        1.783        0.751      143.677       43.601        0.092      340.676       14.861      859.159
03/05/2014  19:01:00     -168.170     -102.103       -2.975      130.979       93.269       44.973    17155.522     8699.104     2022.588        3.329        1.394      196.739       58.334        0.088      340.689       14.881      859.176
03/05/2014  19:02:00     -293.813     -202.040      -30.874      204.827      122.790       66.202    41954.022    15077.279     4382.736        9.475        3.071      356.576       84.349        0.056      340.678       14.863      859.192
03/05/2014  19:03:00     -175.788     -348.610      -22.602       77.044      110.497       49.450     5935.780    12209.553     2445.317        8.676        1.030      390.423       35.849        0.008      340.687       14.876      859.229
03/05/2014  19:04:00     -110.959     -123.629      -10.141       47.408       60.661       36.664     2247.536     3679.782     1344.248        1.748        0.364      166.120       27.705        0.028      340.723       14.939      859.205
03/05/2014  19:05:00      -49.979      -30.737        9.348       56.327       47.041       26.931     3172.682     2212.878      725.264        0.482        0.306       58.674       30.812        0.276      340.726       14.947      859.214
03/05/2014  19:06:00      -80.584     -123.496        5.011       61.594       66.568       35.930     3793.818     4431.296     1290.987        1.564        0.476      147.462       34.455        0.055      340.715       14.927      859.257
03/05/2014  19:07:00      -88.729      -88.287        4.836       93.401       68.872       41.104     8723.683     4743.376     1689.536        1.542        0.758      125.170       41.302        0.109      340.733       14.956      859.313
03/05/2014  19:08:00     -190.311     -150.985      -20.486      108.390       97.713       48.355    11748.375     9547.833     2338.185        4.153        1.182      242.929       32.023        0.017      340.718       14.929      859.318
03/05/2014  19:09:00     -296.381     -202.223      -18.993      110.324      101.600       68.486    12171.450    10322.568     4690.371        7.814        1.359      358.798       64.326        0.032      340.684       14.871      859.298
03/05/2014  19:10:00     -246.494     -177.868      -11.280      100.959       89.898       52.851    10192.662     8081.563     2793.198        5.679        1.053      303.968       53.781        0.031      340.688       14.878      859.288
03/05/2014  19:11:00     -191.453     -114.639       -3.824      109.676       81.996       49.927    12028.924     6723.397     2492.710        3.552        1.062      223.151       41.513        0.035      340.668       14.846      859.269
03/05/2014  19:12:00     -242.815     -208.726       -3.568      134.470       98.682       57.003    18082.257     9738.044     3249.357        6.680        1.553      320.196       43.660        0.019      340.658       14.825      859.258
03/05/2014  19:13:00     -193.074     -196.231       -3.970      100.825       81.165       55.379    10165.657     6587.709     3066.835        4.781        0.991      275.289       49.803        0.033      340.641       14.798      859.259
03/05/2014  19:14:00     -184.673     -236.365      -11.446       85.709      114.640       49.790     7346.099    13142.308     2479.038        5.653        1.148      299.954       45.560        0.023      340.638       14.792      859.245
03/05/2014  19:15:00     -146.111      -97.141        6.034      130.653      126.370       61.636    17070.330    15969.442     3798.975        3.382        1.842      175.456       73.393        0.175      340.632       14.784      859.237
03/05/2014  19:16:00       -1.984      -12.128       10.435       62.709       84.803       46.326     3932.366     7191.481     2146.089        0.676        0.663       12.289       39.238       10.195      340.703       14.906      859.231
03/05/2014  19:17:00      -23.764     -152.355       -5.403      134.627       85.929       57.136    18124.455     7383.773     3264.575        2.628        1.439      154.198       45.178        0.086      340.759       14.999      859.224
03/05/2014  19:18:00      -18.628     -231.236       -2.685       96.668      121.923       55.228     9344.634    14865.118     3050.094        4.054        1.363      231.985       46.262        0.040      340.763       15.005      859.219
03/05/2014  19:19:00      -39.107     -258.077      -15.115       75.133       81.186       56.164     5644.962     6591.167     3154.426        4.187        0.770      261.023       40.664        0.024      340.792       15.054      859.208
03/05/2014  19:20:00      -40.123      -21.628       20.825       70.159       58.339       42.599     4922.272     3403.471     1814.683        0.632        0.507       45.581       39.756        0.761      340.777       15.032      859.159
03/05/2014  19:21:00        5.613      -99.159       -3.266      103.089       77.390       40.764    10627.352     5989.242     1661.736        1.407        0.914       99.318       36.048        0.132      340.807       15.081      859.129
03/05/2014  19:22:00      -22.268      -58.915       16.876       65.151       67.099       39.983     4244.627     4502.223     1598.637        0.730        0.517       62.983       38.235        0.369      340.807       15.083      859.098
03/05/2014  19:23:00       69.604     -207.574        8.331      101.096       76.721       59.552    10220.384     5886.160     3546.461        3.382        0.983      218.933       31.904        0.021      340.846       15.145      859.111
03/05/2014  19:24:00       25.463      -75.200       22.539       92.186       98.428       57.683     8498.294     9688.167     3327.298        1.416        1.076       79.394       44.933        0.320      340.862       15.176      859.079
03/05/2014  19:25:00        8.905      -85.771       10.368       93.551      124.810       81.248     8751.847    15577.655     6601.223        1.923        1.547       86.232       89.120        1.068      340.803       15.076      859.038
03/05/2014  19:26:00       -2.259     -122.656       28.268       74.695       94.256       58.316     5579.288     8884.132     3400.773        1.685        0.893      122.677       56.967        0.216      340.795       15.062      858.998
03/05/2014  19:27:00       82.271     -168.031      -16.753      129.867       90.152       43.932    16865.509     8127.460     1929.991        3.110        1.346      187.091       45.376        0.059      340.817       15.096      859.014
03/05/2014  19:28:00       32.195      -69.915       16.925       74.920       93.906       51.664     5613.027     8818.293     2669.144        1.165        0.855       76.971       50.294        0.427      340.821       15.105      859.035
03/05/2014  19:29:00       37.561      -33.271       24.240       98.858       84.366       45.072     9772.829     7117.695     2031.484        1.101        0.946       50.177       57.804        1.327      340.742       14.972      858.985
03/05/2014  19:30:00      -24.858     -125.332       30.034       78.074      123.292       61.624     6095.567    15201.016     3797.547        2.116        1.255      127.773       74.005        0.335      340.805       15.077      858.960
03/05/2014  19:31:00       51.382     -198.912      -22.903      133.804      102.440       65.290    17903.633    10493.896     4262.843        3.769        1.633      205.441       55.745        0.074      340.741       14.968      858.978
03/05/2014  19:32:00       87.681     -221.146      -20.773      119.902       62.797       45.190    14376.463     3943.408     2042.127        3.869        1.018      237.894       30.287        0.016      340.704       14.906      859.003
03/05/2014  19:33:00      -11.493      -95.116        9.366      118.312       85.076       61.810    13997.705     7238.005     3820.433        1.716        1.253       95.808       64.139        0.448      340.728       14.949      858.999
03/05/2014  19:34:00        2.218     -165.956       -7.292      106.525       77.050       54.785    11347.591     5936.731     3001.445        2.394        1.014      165.970       41.144        0.061      340.724       14.940      858.922
03/05/2014  19:35:00       31.656      -70.729       14.572       57.416       60.931       45.193     3296.555     3712.559     2042.444        0.763        0.453       77.490       41.011        0.280      340.768       15.015      858.900
03/05/2014  19:36:00       12.503     -101.874      -15.858       85.429       61.217       33.156     7298.068     3747.580     1099.316        1.146        0.607      102.639       21.305        0.043      340.758       14.999      858.921
03/05/2014  19:37:00      -49.080      -50.706        8.465       44.451       48.716       24.297     1975.866     2373.256      590.364        0.499        0.247       70.569       23.063        0.107      340.697       14.896      858.938
03/05/2014  19:38:00        1.531      -51.543        1.199       45.643       28.963       23.342     2083.316      838.854      544.848        0.306        0.173       51.566       17.411        0.114      340.669       14.847      858.923
03/05/2014  19:39:00      -80.907     -122.924        3.674       63.033       70.039       33.770     3973.214     4905.404     1140.422        1.584        0.501      147.161       21.858        0.022      340.641       14.801      858.901
03/05/2014  19:40:00      -11.142     -148.826      -19.544      107.513       69.217       34.855    11559.126     4790.948     1214.893        2.011        0.878      149.243       37.687        0.064      340.701       14.902      858.923
03/05/2014  19:41:00        2.696      -59.319       13.190       37.106       63.438       38.908     1376.888     4024.371     1513.851        0.531        0.346       59.380       37.489        0.399      340.720       14.937      858.958
03/05/2014  19:42:00      -15.476      -74.860      -14.692       41.414       57.208       43.423     1715.101     3272.746     1885.529        0.647        0.344       76.443       30.826        0.163      340.654       14.823      858.991
03/05/2014  19:43:00      -38.465      -13.131       11.151       49.151       30.245       20.689     2415.848      914.765      428.052        0.277        0.188       40.645       19.160        0.222      340.714       14.926      859.029
03/05/2014  19:44:00        4.018      -46.113       13.420       36.943       71.857       36.272     1364.794     5163.452     1315.659        0.508        0.392       46.287       40.259        0.756      340.731       14.953      859.018
03/05/2014  19:45:00      -26.278     -137.414      -14.052      102.031       47.292       42.565    10410.327     2236.526     1811.790        1.711        0.723      139.904       28.978        0.043      340.662       14.837      859.033
03/05/2014  19:46:00      -85.668      -66.529        7.676       72.902       39.119       37.177     5314.629     1530.288     1382.093        1.002        0.411      108.467       42.101        0.151      340.593       14.722      859.069
03/05/2014  19:47:00      -33.957     -139.552       12.191      106.368       78.482       44.134    11314.181     6159.415     1947.798        2.010        0.971      143.624       39.653        0.076      340.688       14.880      859.084
03/05/2014  19:48:00       64.402     -108.383       13.959       71.544      121.141       58.618     5118.504    14675.148     3436.019        1.966        1.161      126.073       57.399        0.207      340.706       14.911      859.058
03/05/2014  19:49:00      -10.985     -131.229       20.371       90.118       97.483       61.718     8121.270     9502.883     3809.168        1.959        1.072      131.688       55.374        0.177      340.687       14.878      859.008
03/05/2014  19:50:00       89.323     -177.696        6.342       97.456      126.421       70.685     9497.716    15982.329     4996.318        3.503        1.524      198.883       68.383        0.118      340.653       14.819      858.993
03/05/2014  19:51:00       81.333     -124.044       33.755      119.279      185.351       90.285    14227.561    34355.075     8151.307        3.993        2.837      148.331      113.588        0.586      340.632       14.784      858.975
03/05/2014  19:52:00       80.008     -170.049       -1.903      118.108       81.394       56.657    13949.550     6624.908     3210.058        2.955        1.189      187.931       49.805        0.070      340.558       14.660      858.986
03/05/2014  19:53:00      101.064     -204.184      -15.939       87.108       95.931       43.025     7587.731     9202.721     1851.153        3.540        0.932      227.827       30.957        0.018      340.559       14.660      859.018
03/05/2014  19:54:00       44.924     -154.619      -11.150       89.640       69.199       47.297     8035.400     4788.543     2236.978        2.055        0.753      161.013       32.918        0.042      340.668       14.845      859.062
03/05/2014  19:55:00       17.339      -91.443        3.189       49.944       50.868       37.294     2494.440     2587.545     1390.860        0.757        0.324       93.072       35.908        0.149      340.683       14.873      859.071
03/05/2014  19:56:00       76.895     -134.736      -11.978       98.314       78.607       54.223     9665.668     6179.094     2940.147        2.149        0.939      155.135       50.641        0.107      340.616       14.757      859.007
03/05/2014  19:57:00       58.373      -33.172       49.141       71.519      120.224       58.460     5114.952    14453.853     3417.615        1.495        1.149       67.140       78.918        1.382      340.552       14.650      858.917
03/05/2014  19:58:00       85.268      -48.574       43.644       70.991      115.921       73.798     5039.695    13437.631     5446.107        1.773        1.196       98.133       82.006        0.698      340.535       14.621      858.855
03/05/2014  19:59:00      111.475     -137.420       20.138       92.797      152.276       86.772     8611.327    23188.021     7529.449        3.552        1.966      176.949      100.975        0.326      340.555       14.654      858.859
03/05/2014  20:00:00       82.336      -47.020      125.496      104.062      146.842       98.319    10828.882    21562.612     9666.549        3.339        2.103       94.816       63.416        0.447      340.543       14.635      858.877
03/05/2014  20:01:00      146.525      -63.185      113.605      169.132      265.373      165.996    28605.526    70422.964    27554.725        8.245        6.329      159.567      206.208        1.670      340.509       14.574      858.890
03/05/2014  20:02:00      190.035     -242.175      -28.561      117.860      174.227      111.969    13891.074    30355.197    12537.128        7.617        2.839      307.835      116.550        0.143      340.494       14.549      858.891
03/05/2014  20:03:00       61.365     -142.457        5.099      113.141      111.046       90.682    12800.896    12331.292     8223.171        2.871        1.668      155.112       87.183        0.316      340.526       14.605      858.939
03/05/2014  20:04:00       42.031      -59.195       20.231       88.818       91.948       56.548     7888.675     8454.489     3197.681        1.261        0.977       72.599       62.692        0.746      340.624       14.774      858.974
03/05/2014  20:05:00      153.284     -239.619       14.867      115.508      141.407       78.377    13342.009    19995.898     6142.914        6.030        1.974      284.453       73.094        0.066      340.554       14.653      858.960
03/05/2014  20:06:00       80.372     -197.782        8.376      122.740      128.067       93.556    15065.161    16401.049     8752.715        4.293        2.011      213.489       85.228        0.159      340.522       14.597      858.990
03/05/2014  20:07:00       24.023     -135.013        8.578      112.272       86.556       76.076    12604.906     7491.907     5787.493        2.238        1.294      137.134       31.715        0.053      340.540       14.630      859.025
03/05/2014  20:08:00        2.836     -101.009       -6.766      105.141      100.722       47.970    11054.632    10144.934     2301.097        1.687        1.175      101.048       29.956        0.088      340.551       14.649      859.034
03/05/2014  20:09:00      122.050     -233.165      -22.870      109.426      105.024       59.805    11974.041    11030.108     3576.674        4.818        1.329      263.178       55.057        0.044      340.520       14.593      859.014
03/05/2014  20:10:00      -12.357        8.192       97.094       40.576       83.717       47.060     1646.386     7008.468     2214.616        1.026        0.543       14.826       45.931        9.597      340.552       14.651      859.024
03/05/2014  20:11:00       27.646     -137.380       46.953       94.536      142.085       84.204     8937.085    20188.099     7090.372        2.902        1.811      140.134       86.380        0.380      340.534       14.617      859.020
03/05/2014  20:12:00      129.878     -205.997       -2.723       97.718      114.790       62.279     9548.855    13176.654     3878.665        4.295        1.330      243.522       70.826        0.085      340.496       14.554      859.020
03/05/2014  20:13:00      136.824     -214.034       -1.798      103.368      137.486       64.754    10684.893    18902.278     4193.063        4.915        1.689      254.030       68.884        0.074      340.498       14.557      859.015
03/05/2014  20:14:00      100.798     -119.758       28.471       94.828      131.236       58.804     8992.375    17222.938     3457.875        2.749        1.484      156.532       73.841        0.223      340.481       14.530      859.008
03/05/2014  20:15:00       45.920     -150.339       -4.251      135.364       95.214       53.316    18323.299     9065.620     2842.548        2.747        1.512      157.195       52.941        0.113      340.551       14.649      858.993
03/05/2014  20:16:00      119.546     -218.364       -7.671       97.546      128.983       65.373     9515.308    16636.738     4273.576        4.622        1.521      248.946       72.759        0.085      340.497       14.553      858.970
03/05/2014  20:17:00       77.623     -151.590        1.898       82.603      108.722       71.606     6823.308    11820.512     5127.426        2.639        1.189      170.308       62.614        0.135      340.462       14.497      858.953
03/05/2014  20:18:00       53.395      -72.590       42.627       70.851      114.215       70.180     5019.897    13045.135     4925.293        1.646        1.150       90.113       73.645        0.668      340.480       14.527      858.934
03/05/2014  20:19:00        6.365      -51.730       38.425       65.817       79.191       67.468     4331.878     6271.274     4551.896        0.967        0.758       52.120       33.720        0.419      340.533       14.618      858.915
03/05/2014  20:20:00       33.538      -86.303       24.667       96.696       82.564       50.773     9350.121     6816.768     2577.855        1.396        0.937       92.590       38.010        0.169      340.612       14.752      858.918
03/05/2014  20:21:00       88.868     -100.905       29.685      100.720      121.356       73.439    10144.609    14727.378     5393.319        2.461        1.513      134.459       84.266        0.393      340.539       14.626      858.904
03/05/2014  20:22:00      148.588     -179.964       11.215      124.699      115.985       87.766    15549.716    13452.579     7702.877        4.564        1.835      233.378       85.948        0.136      340.459       14.490      858.836
03/05/2014  20:23:00      139.984     -146.289       -9.528      107.325      134.982       81.117    11518.735    18220.098     6579.944        3.870        1.816      202.475       80.871        0.160      340.442       14.463      858.783
03/05/2014  20:24:00      176.903     -173.389      -27.992      124.772      155.997      109.672    15568.098    24335.062    12027.947        5.703        2.597      247.706      110.231        0.198      340.389       14.374      858.739
03/05/2014  20:25:00       11.877      -69.637       69.053       71.107      112.723       75.038     5056.167    12706.457     5630.668        1.657        1.170       70.642       54.435        0.594      340.444       14.466      858.799
03/05/2014  20:26:00      -57.885     -127.788      -25.472      109.130      102.191       43.882    11909.364    10443.038     1925.667        2.230        1.214      140.287       50.438        0.129      340.581       14.698      858.849
03/05/2014  20:27:00       -8.007     -140.331       -3.809       62.250       82.938       51.449     3875.013     6878.699     2646.983        1.658        0.670      140.559       37.280        0.070      340.626       14.774      858.832
03/05/2014  20:28:00        0.941       94.932      110.376       51.079       67.427       73.079     2609.016     4546.354     5340.591        1.684        0.625       94.936       58.716        0.383      340.529       14.612      858.814
03/05/2014  20:29:00        5.703      -39.602       52.868       61.234       94.767       65.533     3749.664     8980.793     4294.588        1.071        0.851       40.011       60.372        2.277      340.542       14.634      858.808
03/05/2014  20:30:00      109.636     -101.700       48.741      103.335      137.611       73.565    10678.145    18936.782     5411.786        2.988        1.751      149.542       88.168        0.348      340.523       14.599      858.825
03/05/2014  20:31:00       97.214     -257.020      -15.582      129.645      133.505       84.025    16807.849    17823.578     7060.257        5.872        2.085      274.790       65.485        0.057      340.647       14.809      858.844
03/05/2014  20:32:00       20.245      -40.956       46.764       91.390       88.431       45.812     8352.186     7820.104     2098.740        1.127        0.914       45.686       48.524        1.128      340.669       14.848      858.813
03/05/2014  20:33:00       -2.344      -49.048       11.810       94.978       67.506       49.205     9020.809     4557.030     2421.093        0.927        0.800       49.104       48.740        0.985      340.690       14.884      858.808
03/05/2014  20:34:00       25.639      -33.164       37.694       43.749       81.943       53.396     1913.994     6714.595     2851.112        0.733        0.574       41.919       64.502        2.368      340.611       14.752      858.766
03/05/2014  20:35:00       43.584      -17.785       38.987       61.331       40.919       34.528     3761.467     1674.357     1192.190        0.518        0.331       47.073       24.624        0.274      340.573       14.687      858.632
03/05/2014  20:36:00       11.850       89.549      138.941       69.297       70.386       62.881     4802.137     4954.158     3953.988        2.058        0.686       90.330       55.935        0.383      340.551       14.648      858.538
03/05/2014  20:37:00       83.037     -106.714       20.436       63.340       93.939       61.870     4012.012     8824.508     3827.928        1.768        0.833      135.215       65.157        0.232      340.519       14.594      858.514
03/05/2014  20:38:00      158.120     -183.006      -14.204      103.791      116.857       76.941    10772.603    13655.627     5919.855        4.452        1.517      241.853       69.829        0.083      340.547       14.639      858.512
03/05/2014  20:39:00       77.170     -111.068        4.192      101.117       88.480       62.500    10224.740     7828.689     3906.213        2.013        1.098      135.245       59.591        0.194      340.600       14.731      858.516
03/05/2014  20:40:00       92.716     -148.955      -16.896       89.247      110.464       60.727     7965.025    12202.334     3687.809        2.746        1.193      175.453       69.834        0.158      340.619       14.762      858.568
03/05/2014  20:41:00       75.701      -57.434       45.146      112.538      100.890       78.035    12664.831    10178.820     6089.398        2.000        1.447       95.022       68.670        0.522      340.570       14.682      858.601
03/05/2014  20:42:00      226.954     -176.353        5.363      119.080      165.061       88.794    14180.003    27245.142     7884.300        6.597        2.465      287.417      108.652        0.143      340.516       14.587      858.578
03/05/2014  20:43:00       72.730      -33.824       58.354       84.844      149.091      101.366     7198.435    22228.125    10275.127        2.476        1.985       80.211       82.991        1.071      340.531       14.613      858.533
03/05/2014  20:44:00       59.385      -50.546       47.506       90.717      137.711       93.994     8229.619    18964.267     8834.818        2.218        1.801       77.984      101.948        1.709      340.540       14.629      858.489
03/05/2014  20:45:00      205.658     -253.651      -44.259       72.338       74.282       37.625     5232.720     5517.820     1415.657        6.038        0.608      326.548       29.867        0.008      340.524       14.603      858.385
03/05/2014  20:46:00       71.779       -9.784       67.290       83.289      118.049       73.156     6937.018    13935.665     5351.811        1.800        1.311       72.443       75.944        1.099      340.529       14.613      858.266
03/05/2014  20:47:00       86.468      -92.363       35.723      107.358      155.620      106.255    11525.667    24217.497    11290.031        3.215        2.352      126.521      102.818        0.660      340.551       14.648      858.294
03/05/2014  20:48:00       72.639     -151.938      -14.411       64.908       58.661       37.896     4213.011     3441.120     1436.105        1.883        0.455      168.409       34.173        0.041      340.671       14.851      858.373
03/05/2014  20:49:00       62.430     -164.559       -8.745       81.952       73.676       53.299     6716.177     5428.158     2840.799        2.302        0.749      176.004       39.380        0.050      340.647       14.811      858.446
03/05/2014  20:50:00       24.223      -62.335       23.655       80.740       79.607       43.313     6518.995     6337.309     1876.009        0.988        0.737       66.876       49.182        0.541      340.678       14.864      858.455
03/05/2014  20:51:00       33.967       -9.256       22.966       47.426       69.960       48.464     2249.238     4894.440     2348.723        0.563        0.475       35.205       38.157        1.175      340.626       14.776      858.358
03/05/2014  20:52:00       21.576       -7.893        1.346       63.066       29.569       28.647     3977.374      874.318      820.672        0.310        0.284       22.974       19.121        0.693      340.619       14.767      858.276
03/05/2014  20:53:00       38.211      -37.549       16.296       47.233       37.009       32.109     2230.910     1369.667     1031.013        0.388        0.232       53.573       26.274        0.241      340.595       14.728      858.241
03/05/2014  20:54:00       35.568      -91.897       28.320       67.104      107.585       60.191     4502.956    11574.540     3622.940        1.510        0.985       98.540       70.183        0.507      340.615       14.757      858.306
03/05/2014  20:55:00       -5.553     -109.904      -11.387      104.454       59.265       38.328    10910.602     3512.284     1469.071        1.406        0.795      110.044       15.588        0.020      340.710       14.917      858.386
03/05/2014  20:56:00      -92.797      -83.811        2.009       56.634       40.813       25.483     3207.374     1665.707      649.401        1.058        0.276      125.042        9.442        0.006      340.668       14.848      858.447
03/05/2014  20:57:00     -196.811     -142.439      -12.906       94.495      105.902       45.792     8929.245    11215.134     2096.920        4.071        1.112      242.947       38.810        0.026      340.569       14.679      858.463
03/05/2014  20:58:00     -103.854      -77.969      -13.298      148.311       81.335       46.485    21996.051     6615.373     2160.833        2.390        1.539      129.865       41.293        0.101      340.646       14.808      858.449
03/05/2014  20:59:00      -69.061     -108.645        9.534       72.989       68.240       36.409     5327.360     4656.748     1325.612        1.399        0.565      128.737       45.904        0.127      340.647       14.811      858.454
03/05/2014  21:00:00     -142.768     -103.132      -18.985       47.473       44.695       29.890     2253.675     1997.653      893.441        1.826        0.257      176.122       16.862        0.009      340.631       14.785      858.450
03/05/2014  21:01:00     -103.228      -56.380       -0.551       90.848       48.134       32.100     8253.441     2316.914     1030.385        1.272        0.580      117.621       28.252        0.058      340.575       14.690      858.464
03/05/2014  21:02:00     -123.875     -103.018       -6.855       98.199       84.328       46.060     9642.956     7111.267     2121.553        2.244        0.944      161.114       48.850        0.092      340.558       14.661      858.472
03/05/2014  21:03:00     -149.043      -71.391       -1.187       58.219       62.710       30.762     3389.440     3932.534      946.283        1.779        0.413      165.259       30.337        0.034      340.536       14.622      858.434
03/05/2014  21:04:00      -70.970      -45.715        4.872       85.756       51.906       29.321     7354.082     2694.205      859.699        0.903        0.545       84.419       27.221        0.104      340.561       14.667      858.367
03/05/2014  21:05:00     -137.803      -83.946        7.174       81.802       69.612       40.360     6691.520     4845.868     1628.921        1.962        0.658      161.359       40.715        0.064      340.530       14.613      858.309
03/05/2014  21:06:00      -52.005      -47.647       15.036       84.832       62.742       37.423     7196.412     3936.580     1400.513        0.887        0.627       70.532       32.350        0.210      340.592       14.719      858.246
03/05/2014  21:07:00      -63.236     -131.894      -16.538      111.479       68.872       50.212    12427.569     4743.342     2521.214        2.068        0.985      146.270       26.931        0.034      340.645       14.807      858.284
03/05/2014  21:08:00      -22.760     -153.657      -15.157      128.974       72.667       39.416    16634.199     5280.555     1553.656        2.391        1.173      155.333       26.080        0.028      340.695       14.891      858.309
03/05/2014  21:09:00        1.014      -71.946        3.249       83.077       90.101       57.627     6901.727     8118.119     3320.814        1.176        0.917       71.953       47.219        0.431      340.750       14.986      858.327
03/05/2014  21:10:00       47.059      -97.787       17.903       48.431       75.853       57.357     2345.556     5753.659     3289.852        1.174        0.569      108.521       42.285        0.152      340.759       15.000      858.329
03/05/2014  21:11:00      -80.657      -96.531        6.811      102.439       67.565       42.821    10493.706     4565.049     1833.644        1.638        0.845      125.793       55.170        0.192      340.697       14.896      858.343
03/05/2014  21:12:00     -110.937     -175.212       -9.365       68.238       98.673       32.269     4656.400     9736.413     1041.257        2.926        0.772      207.379       21.831        0.011      340.607       14.743      858.241
03/05/2014  21:13:00      -94.162      -75.889      -11.540       47.815       60.450       27.228     2286.295     3654.210      741.348        1.072        0.334      120.937       25.893        0.046      340.630       14.781      858.130
03/05/2014  21:14:00     -193.018      -89.878       -5.001       91.101       55.164       32.815     8299.331     3043.112     1076.817        2.889        0.621      212.918       25.361        0.014      340.575       14.688      858.141
03/05/2014  21:15:00     -253.293      -91.009      -10.356       75.328       63.906       34.884     5674.299     4083.923     1216.865        4.176        0.549      269.147       32.580        0.015      340.509       14.575      858.177
03/05/2014  21:16:00     -244.142      -58.456       -4.605       74.579       77.756       40.748     5562.068     6046.038     1660.408        3.815        0.663      251.043       38.663        0.024      340.462       14.493      858.188
03/05/2014  21:17:00     -232.299      -16.344      -10.352      134.962       98.466       58.963    18214.854     9695.551     3476.651        4.286        1.569      232.873       58.631        0.063      340.559       14.661      858.148
03/05/2014  21:18:00     -106.269      149.982       -5.668       77.776       97.126       49.979     6049.160     9433.516     2497.922        2.590        0.899      183.814       50.746        0.076      340.754       14.990      858.156
03/05/2014  21:19:00      -35.885      123.251       -4.063       65.123       94.411       39.093     4240.957     8913.399     1528.245        1.559        0.734      128.369       43.177        0.113      340.729       14.949      858.179
03/05/2014  21:20:00       15.850     -101.922      -14.009       43.644       64.381       24.472     1904.797     4144.855      598.889        0.874        0.332      103.147       16.689        0.026      340.784       15.044      858.287
03/05/2014  21:21:00      -34.128     -112.758      -19.244       38.266       44.520       26.148     1464.293     1982.030      683.702        0.919        0.207      117.809       11.602        0.010      340.782       15.040      858.488
03/05/2014  21:22:00     -124.762     -128.168       -3.480       83.887       77.823       31.222     7036.987     6056.467      974.789        2.303        0.703      178.864       33.277        0.035      340.684       14.872      858.677
03/05/2014  21:23:00     -258.179     -187.846      -11.276      118.077       87.418       52.735    13942.136     7641.883     2780.999        6.321        1.218      319.284       56.015        0.031      340.538       14.625      858.745
03/05/2014  21:24:00     -337.847     -131.340       -8.124      126.273      151.647       66.143    15944.905    22996.952     4374.831        8.738        2.166      362.479       69.189        0.036      340.587       14.708      858.705
03/05/2014  21:25:00     -268.203     -134.693       -1.047      101.787       92.797       52.067    10360.548     8611.319     2710.936        5.588        1.084      300.125       49.377        0.027      340.618       14.759      858.614
03/05/2014  21:26:00     -175.641      -37.306      -14.485       87.226      114.429       47.143     7608.396    13094.005     2222.505        2.768        1.146      179.559       39.111        0.047      340.525       14.603      858.476
03/05/2014  21:27:00     -119.918       27.156      -13.137       61.713       38.320       22.758     3808.488     1468.409      517.949        1.054        0.290      122.955       28.375        0.053      340.594       14.723      858.273
03/05/2014  21:28:00      -20.376       36.858      -13.264       30.036       41.281       25.261      902.155     1704.162      638.096        0.260        0.162       42.115       19.177        0.207      340.496       14.558      858.220
03/05/2014  21:29:00        0.993      -18.517      -15.154       42.211       33.072       20.724     1781.755     1093.752      429.471        0.194        0.165       18.544       20.652        1.240      340.542       14.636      858.348
03/05/2014  21:30:00      -65.611      -54.109       -4.157       51.401       39.534       24.550     2642.065     1562.964      602.718        0.603        0.240       85.044       25.123        0.087      340.502       14.567      858.509
03/05/2014  21:31:00      -24.168      -90.315       -1.396       53.526       47.426       29.621     2865.085     2249.239      877.395        0.737        0.300       93.492       24.561        0.069      340.512       14.582      858.548
03/05/2014  21:32:00      -57.430      -78.071       -1.648       56.965       32.645       25.189     3245.015     1065.703      634.479        0.717        0.247       96.918       21.231        0.048      340.479       14.527      858.501
03/05/2014  21:33:00      -51.591      -69.735       -2.325       36.563       44.000       18.530     1336.843     1936.010      343.374        0.557        0.181       86.744       22.631        0.068      340.466       14.506      858.445
03/05/2014  21:34:00      -52.032      -29.378       13.379       58.101       32.793       25.253     3375.702     1075.362      637.711        0.442        0.254       59.753       33.285        0.310      340.477       14.525      858.436
03/05/2014  21:35:00      -17.602      -25.933        8.750       35.373       28.605       29.369     1251.253      818.261      862.519        0.199        0.147       31.342       21.930        0.490      340.498       14.559      858.431
03/05/2014  21:36:00      -17.778       -3.698        8.368       14.392       13.970       13.575      207.117      195.170      184.283        0.049        0.029       18.158        9.174        0.255      340.476       14.523      858.416
03/05/2014  21:37:00      -47.469      -24.693       -0.502       43.220       27.857       21.345     1867.977      776.021      455.628        0.298        0.155       53.507       24.212        0.205      340.451       14.481      858.404
03/05/2014  21:38:00     -138.626      -29.429      -15.540       35.422       28.663       21.753     1254.718      821.570      473.181        1.144        0.127      141.716        8.136        0.003      340.425       14.435      858.386
03/05/2014  21:39:00     -212.253      -29.108      -15.599       56.959       36.396       21.857     3244.290     1324.694      477.722        2.559        0.252      214.239       21.545        0.010      340.460       14.492      858.401
03/05/2014  21:40:00     -146.799      -48.233       -8.470       56.394       43.845       25.980     3180.316     1922.347      674.935        1.486        0.289      154.520       26.959        0.030      340.520       14.595      858.409
03/05/2014  21:41:00     -101.965      -48.363        0.467       62.269       57.648       31.399     3877.412     3323.333      985.866        1.046        0.409      112.853       35.531        0.099      340.444       14.467      858.321
03/05/2014  21:42:00     -153.655       22.724      -10.417       42.070       50.425       25.284     1769.887     2542.695      639.279        1.459        0.248      155.326       19.649        0.016      340.471       14.514      858.156
03/05/2014  21:43:00      -99.198       59.071      -17.294       34.247       40.607       22.646     1172.874     1648.919      512.824        0.848        0.167      115.454       15.696        0.018      340.532       14.617      857.988
03/05/2014  21:44:00      -90.799        5.789       -7.026       31.019       45.557       20.461      962.159     2075.396      418.639        0.589        0.173       90.983       14.957        0.027      340.517       14.592      857.917
03/05/2014  21:45:00     -162.562      -50.688      -22.008       29.378       35.661       19.353      863.061     1271.698      374.556        1.599        0.125      170.281       12.170        0.005      340.473       14.518      857.960
03/05/2014  21:46:00     -130.103      -12.222       -2.921       58.400       50.034       24.417     3410.604     2503.383      596.190        1.180        0.326      130.676       23.335        0.032      340.481       14.529      857.965
03/05/2014  21:47:00      -91.271      -10.578        4.306       58.158       37.098       23.508     3382.297     1376.266      552.618        0.689        0.266       91.882       21.165        0.053      340.572       14.684      857.908
03/05/2014  21:48:00      -25.890       -2.880       -0.618       38.440       27.593       23.957     1477.658      761.397      573.918        0.175        0.141       26.050       16.323        0.393      340.458       14.490      857.862
03/05/2014  21:49:00      -26.246       31.127        4.707       42.889       23.991       29.093     1839.443      575.579      846.431        0.247        0.163       40.715       23.226        0.325      340.507       14.575      857.870
03/05/2014  21:50:00     -121.371       16.944       -8.883       64.587       49.047       25.580     4171.538     2405.583      654.321        1.116        0.362      122.547       31.352        0.065      340.488       14.542      857.866
03/05/2014  21:51:00      -91.998       96.425      -22.950       42.380       53.745       26.884     1796.039     2888.540      722.724        1.185        0.270      133.272       29.228        0.048      340.455       14.490      857.831
03/05/2014  21:52:00      -80.400      116.598      -16.090       30.435       38.136       28.826      926.300     1454.336      830.930        1.176        0.161      141.631       17.740        0.016      340.538       14.626      857.773
03/05/2014  21:53:00      -54.718       74.341      -14.535       27.694       49.204       22.607      766.977     2421.069      511.067        0.621        0.185       92.307       24.174        0.069      340.489       14.546      857.748
03/05/2014  21:54:00       -6.227      -53.094      -10.174       33.352       34.624       23.789     1112.355     1198.802      565.933        0.292        0.144       53.458       17.357        0.105      340.547       14.643      857.779
03/05/2014  21:55:00      -94.719      -53.200        4.399       76.488       39.595       27.919     5850.368     1567.741      779.458        1.001        0.410      108.637       32.714        0.091      340.550       14.647      857.819
03/05/2014  21:56:00     -133.389      -38.219       -0.580       49.042       35.728       22.510     2405.135     1276.484      506.696        1.172        0.209      138.756       24.208        0.030      340.603       14.739      857.826
03/05/2014  21:57:00      -77.200      -37.030        6.241       53.508       41.608       27.434     2863.078     1731.221      752.629        0.636        0.267       85.621       25.750        0.090      340.542       14.635      857.821
03/05/2014  21:58:00      -31.270      -95.436       12.713       62.447       52.126       35.470     3899.578     2717.114     1258.130        0.906        0.394      100.428       38.742        0.149      340.531       14.615      857.871
03/05/2014  21:59:00      -75.761     -156.581       -0.356       58.547       54.767       33.988     3427.713     2999.372     1155.186        1.892        0.379      173.946       28.533        0.027      340.495       14.553      857.951
03/05/2014  22:00:00     -140.379      -93.329       -8.407       53.448       59.999       31.016     2856.667     3599.892      961.966        1.795        0.371      168.572       26.120        0.024      340.460       14.494      857.966
03/05/2014  22:01:00     -177.198        6.404       -7.067      129.943       73.349       34.040    16885.102     5380.003     1158.726        2.745        1.171      177.314       39.688        0.050      340.544       14.637      857.861
03/05/2014  22:02:00     -246.548       37.673      -11.157       75.057       58.111       34.210     5633.579     3376.835     1170.322        3.625        0.509      249.409       31.066        0.016      340.567       14.673      857.766
03/05/2014  22:03:00      -94.041       52.465       -4.480       74.723       67.989       33.261     5583.524     4622.487     1106.317        1.146        0.566      107.686       36.195        0.113      340.553       14.652      857.755
03/05/2014  22:04:00     -130.940       23.595        2.180      159.841       62.244       55.123    25549.275     3874.345     3038.599        2.508        1.623      133.049       58.220        0.191      340.511       14.580      857.691
03/05/2014  22:05:00     -182.137      -62.365      -10.854       88.819       84.629       42.631     7888.837     7162.072     1817.379        2.702        0.843      192.518       38.746        0.041      340.496       14.552      857.584
03/05/2014  22:06:00     -329.341     -161.241      -10.565      129.485       78.683       46.150    16766.455     6190.944     2129.821        7.983        1.254      366.694       38.357        0.011      340.362       14.327      857.571
03/05/2014  22:07:00     -215.695      -83.678        5.197      158.513      101.296       59.562    25126.421    10260.846     3547.650        4.624        1.947      231.358       79.026        0.117      340.226       14.098      857.729
03/05/2014  22:08:00     -190.219     -117.764       -5.417       98.173       85.167       59.986     9637.989     7253.431     3598.349        3.528        1.024      223.722       48.208        0.046      340.210       14.069      857.893
03/05/2014  22:09:00     -200.459     -103.928       -8.534      113.944       79.399       48.854    12983.238     6304.207     2386.736        3.636        1.084      225.798       39.542        0.031      340.187       14.031      857.937
03/05/2014  22:10:00     -168.288      -91.153      -10.225      118.708       63.457       41.265    14091.471     4026.835     1702.824        2.827        0.991      191.389       53.234        0.077      340.172       14.007      857.897
03/05/2014  22:11:00     -328.382       23.536      -23.938      118.182       85.536       51.930    13966.954     7316.350     2696.728        6.647        1.199      329.225       51.993        0.025      340.142       13.956      857.838
03/05/2014  22:12:00     -378.989     -109.801      -15.534      130.472      105.526       66.508    17022.959    11135.753     4423.295        9.425        1.629      394.575       65.262        0.027      340.086       13.860      857.766
03/05/2014  22:13:00     -223.330      -82.673       -7.399      119.316       91.627       53.554    14236.210     8395.484     2868.070        4.113        1.275      238.141       48.673        0.042      340.103       13.890      857.701
03/05/2014  22:14:00     -125.083      -20.830       -5.835       85.159       68.944       39.468     7252.096     4753.243     1557.734        1.484        0.678      126.806       40.007        0.100      340.128       13.933      857.594
03/05/2014  22:15:00      -74.066      116.429      -13.094       67.543       69.419       63.833     4561.998     4819.064     4074.667        1.633        0.673      137.991       47.303        0.118      340.122       13.924      857.433
03/05/2014  22:16:00      -27.937       62.472       15.670       40.069       93.383       37.531     1605.554     8720.291     1408.594        0.833        0.587       68.434       20.539        0.090      340.128       13.932      857.338
03/05/2014  22:17:00     -256.435     -137.986      -13.471      116.661       90.831       53.100    13609.869     8250.204     2819.562        5.483        1.234      291.203       49.752        0.029      340.062       13.819      857.372
03/05/2014  22:18:00     -383.402      -64.097      -15.349      109.264       85.419       52.560    11938.700     7296.396     2762.605        8.667        1.100      388.723       52.143        0.018      340.056       13.809      857.454
03/05/2014  22:19:00     -317.148      -51.244      -18.926      119.931       97.531       57.710    14383.429     9512.259     3330.428        6.539        1.361      321.262       60.174        0.035      340.133       13.941      857.477
03/05/2014  22:20:00     -158.450        0.152       -9.526       92.820       85.769       48.944     8615.623     7356.247     2395.563        2.178        0.918      158.450       49.035        0.096      340.162       13.992      857.380
03/05/2014  22:21:00     -219.330      193.127      -48.838       71.906       83.757       44.769     5170.532     7015.199     2004.277        5.099        0.710      292.239       44.904        0.024      340.464       14.499      857.303
03/05/2014  22:22:00     -206.457       72.383      -19.654       58.582       65.815       39.038     3431.833     4331.562     1524.000        2.877        0.464      218.778       28.855        0.017      340.299       14.219      857.269
03/05/2014  22:23:00     -168.111        8.383      -14.120       57.855       82.173       34.423     3347.208     6752.322     1184.914        1.991        0.564      168.320       29.003        0.030      340.347       14.304      857.276
03/05/2014  22:24:00     -193.988      -90.561       -2.651       88.216       51.911       40.089     7782.062     2694.707     1607.097        2.896        0.604      214.086       31.125        0.021      340.213       14.074      857.323
03/05/2014  22:25:00     -122.917      -29.999       16.056      110.868       69.470       54.704    12291.764     4826.115     2992.475        1.818        1.006      126.525       64.455        0.260      340.196       14.047      857.405
03/05/2014  22:26:00     -217.234      -72.046        3.361      103.954       76.542       42.418    10806.453     5858.684     1799.262        3.543        0.923      228.869       47.338        0.043      340.152       13.973      857.507
03/05/2014  22:27:00     -333.776      -78.236      -26.012      279.226      103.704       63.284    77967.279    10754.577     4004.924       10.545        4.636      342.823      107.574        0.098      340.177       14.015      857.576
03/05/2014  22:28:00     -297.242      -41.264       -1.317      149.804      128.604       68.561    22441.175    16539.016     4700.575        6.686        2.184      300.092       65.896        0.048      340.166       13.995      857.611
03/05/2014  22:29:00     -353.152      -74.027      -13.220      163.612      113.058       63.700    26768.728    12782.100     4057.723        8.698        2.180      360.828       72.129        0.040      340.222       14.089      857.676
03/05/2014  22:30:00     -417.512      -14.932       -9.260      145.270      108.448       74.222    21103.428    11760.903     5508.942       10.649        1.919      417.779       73.890        0.031      340.292       14.207      857.746
03/05/2014  22:31:00     -305.374      -19.937       -9.080      130.201       83.738       53.942    16952.360     7012.132     2909.787        6.030        1.344      306.024       55.930        0.033      340.290       14.204      857.825
03/05/2014  22:32:00     -345.624      -28.053       -3.316      167.145       89.885       57.682    27937.592     8079.384     3327.178        7.979        1.967      346.761       60.664        0.031      340.320       14.256      857.933
03/05/2014  22:33:00     -411.726      -30.263       -7.978      133.357       93.254       61.182    17784.171     8696.307     3743.195       10.036        1.511      412.837       46.348        0.013      340.292       14.208      858.061
03/05/2014  22:34:00     -412.977     -112.094       -7.757      176.125      146.120       73.048    31019.980    21351.087     5335.995       12.043        2.885      427.920       81.943        0.037      340.218       14.084      858.175
03/05/2014  22:35:00     -252.627      -58.121      -13.425      127.530      112.590       68.828    16264.013    12676.592     4737.274        5.052        1.684      259.226       70.345        0.074      340.268       14.168      858.232
03/05/2014  22:36:00     -136.760       26.294      -15.048       88.194       50.900       41.876     7778.097     2590.840     1753.607        1.587        0.606      139.265       39.168        0.079      340.365       14.334      858.138
03/05/2014  22:37:00      -80.124       41.575      -19.311       33.974       56.921       26.760     1154.206     3240.021      716.079        0.681        0.256       90.268       18.360        0.041      340.504       14.569      857.877
03/05/2014  22:38:00      -32.956      107.165       -8.866      123.031       73.769       55.750    15136.546     5441.874     3108.051        1.816        1.184      112.118       70.229        0.392      340.668       14.845      857.574
03/05/2014  22:39:00      230.202      115.525       14.497      133.303       67.010       51.589    17769.674     4490.309     2661.434        4.573        1.246      257.564       27.129        0.011      340.677       14.860      857.519
03/05/2014  22:40:00       80.385       69.345       71.895      119.634       80.208       66.330    14312.374     6433.396     4399.611        2.079        1.257      106.163       66.186        0.389      340.873       15.194      857.513
03/05/2014  22:41:00       85.411      -37.063       21.232      112.535       98.137       54.883    12664.066     9630.818     3012.092        1.721        1.265       93.106       34.387        0.136      340.945       15.314      857.642
03/05/2014  22:42:00       47.875     -129.502      -17.457       68.564       70.842       48.653     4701.073     5018.596     2367.160        1.573        0.604      138.069       24.704        0.032      341.065       15.520      857.689
03/05/2014  22:43:00      -10.378     -115.580      -18.842       29.228       36.930       22.950      854.261     1363.804      526.693        0.828        0.137      116.045       13.479        0.013      341.095       15.571      857.657
03/05/2014  22:44:00        6.588       -9.183       14.901       66.786       65.611       30.436     4460.414     4304.812      926.354        0.502        0.485       11.302       21.149        3.501      341.023       15.447      857.641
03/05/2014  22:45:00      101.094       63.610       25.106       74.036       67.536       49.741     5481.294     4561.133     2474.200        1.370        0.626      119.442       35.923        0.090      340.883       15.210      857.692
03/05/2014  22:46:00       35.493     -104.570      -17.717       55.115       41.781       32.221     3037.683     1745.655     1038.196        0.916        0.291      110.429       35.445        0.103      340.894       15.230      857.751
03/05/2014  22:47:00       38.369      -59.020        5.746       65.761       62.182       44.544     4324.530     3866.661     1984.148        0.758        0.509       70.396       35.323        0.252      340.806       15.082      857.802
03/05/2014  22:48:00       77.700       80.170       59.976       31.392       35.512       24.297      985.451     1261.131      590.348        0.945        0.142      111.645       15.893        0.020      340.630       14.783      857.807
03/05/2014  22:49:00       34.574      -45.991       26.809       41.735       46.492       26.478     1741.820     2161.523      701.060        0.432        0.230       57.537       23.968        0.174      340.721       14.938      857.836
03/05/2014  22:50:00      -79.169      -10.714        4.227       42.984       36.696       25.241     1847.628     1346.608      637.122        0.512        0.192       79.891       25.099        0.099      340.884       15.212      857.851
03/05/2014  22:51:00     -191.385      -68.458       -5.806       71.436       59.503       31.665     5103.129     3540.665     1002.663        2.550        0.482      203.260       20.879        0.011      340.861       15.173      857.900
03/05/2014  22:52:00     -119.111      -37.040        5.133      108.895      110.490       46.686    11858.064    12207.999     2179.570        2.091        1.312      124.738       43.732        0.123      340.766       15.011      857.907
03/05/2014  22:53:00       43.013       75.210        1.241       43.960       29.900       32.739     1932.522      894.008     1071.827        0.570        0.195       86.641       21.463        0.061      340.747       14.982      857.860
03/05/2014  22:54:00      -76.169       75.708      -16.143       75.756       52.533       32.789     5738.958     2759.667     1075.137        1.068        0.479      107.394       35.520        0.109      340.715       14.928      857.767
03/05/2014  22:55:00     -124.397       94.869      -18.472      101.676       68.074       36.325    10337.916     4634.077     1319.498        2.055        0.815      156.444       30.459        0.038      340.654       14.822      857.673
03/05/2014  22:56:00     -268.210      -27.885      -35.761       61.102      108.594       46.216     3733.433    11792.685     2135.926        4.582        0.883      269.656       25.536        0.009      340.532       14.614      857.596
03/05/2014  22:57:00     -280.136      -86.766      -26.852       99.236       98.287       58.167     9847.812     9660.351     3383.348        5.480        1.145      293.265       45.963        0.025      340.536       14.620      857.540
03/05/2014  22:58:00     -294.986      -79.966      -31.278      106.662      124.793       74.760    11376.824    15573.355     5589.098        6.346        1.627      305.632       37.240        0.015      340.516       14.585      857.532
03/05/2014  22:59:00     -301.835       62.674      -37.786      149.559      129.951       78.631    22368.038    16887.260     6182.841        7.094        2.272      308.273       74.233        0.058      340.579       14.695      857.510
03/05/2014  23:00:00     -344.061       40.506      -41.376      159.400      114.376       62.755    25408.359    13081.860     3938.209        8.207        2.121      346.437       64.071        0.034      340.577       14.690      857.525
03/05/2014  23:01:00     -509.368     -186.681      -54.201      128.385      123.577       79.247    16482.774    15271.327     6280.098       16.763        1.902      542.499       39.187        0.005      340.460       14.493      857.622
03/05/2014  23:02:00     -454.459     -138.426      -43.504      189.316      110.645       68.253    35840.546    12242.217     4658.494       14.016        2.637      475.074       49.835        0.011      340.471       14.512      857.797
03/05/2014  23:03:00     -428.013     -196.518      -10.134      143.036      130.401       74.055    20459.240    17004.361     5484.111       13.243        2.147      470.972       73.894        0.025      340.561       14.663      857.899
03/05/2014  23:04:00     -149.085      -28.716       -4.374      114.541       70.811       41.351    13119.704     5014.216     1709.913        2.145        0.992      151.826       46.961        0.096      340.714       14.925      857.914
03/05/2014  23:05:00     -282.994       23.654      -18.874      150.169      182.272       62.719    22550.713    33223.144     3933.640        7.034        2.985      283.981       61.737        0.047      340.710       14.915      857.792
03/05/2014  23:06:00     -382.164      -71.553      -32.767      187.307      182.367       85.249    35083.972    33257.586     7267.351       11.391        3.780      388.805       87.994        0.051      340.690       14.881      857.721
03/05/2014  23:07:00     -603.608     -113.493      -28.094      224.088      159.711       81.043    50215.365    25507.651     6567.909       23.014        4.115      614.185       87.688        0.020      340.618       14.760      857.799
03/05/2014  23:08:00     -487.824     -120.357      -13.852      255.951      151.532       99.216    65510.794    22961.978     9843.792       17.547        4.916      502.452      114.365        0.052      340.594       14.719      857.919
03/05/2014  23:09:00     -264.932     -100.790       -6.119      149.284      151.732       94.195    22285.580    23022.543     8872.655        6.727        2.709      283.457       87.856        0.096      340.627       14.775      858.020
03/05/2014  23:10:00     -354.352      -74.424      -12.732      150.266      134.049       64.945    22579.980    17969.177     4217.834        8.801        2.238      362.084       57.776        0.025      340.561       14.663      858.036
03/05/2014  23:11:00     -302.235       -8.856       -0.210      196.149      135.088       80.919    38474.599    18248.802     6547.853        7.734        3.164      302.364       90.359        0.089      340.523       14.600      858.015
03/05/2014  23:12:00     -328.865     -148.488       -5.872      145.840      115.480       62.168    21269.214    13335.568     3864.817        8.435        1.923      360.834       43.637        0.015      340.478       14.522      858.032
03/05/2014  23:13:00     -231.536      -65.543      -12.022      146.375       96.622       58.070    21425.752     9335.771     3372.101        4.609        1.707      240.634       74.114        0.095      340.515       14.586      858.018
03/05/2014  23:14:00     -206.152     -119.959        0.007      176.731      113.981       62.900    31233.949    12991.595     3956.453        5.253        2.409      238.514       88.045        0.136      340.465       14.501      857.938
03/05/2014  23:15:00     -199.111     -138.693      -17.465      188.956       97.067       69.155    35704.221     9421.912     4782.447        5.454        2.495      242.654       83.100        0.117      340.459       14.490      857.915
03/05/2014  23:16:00     -241.864      -88.415        0.030      128.178      113.036       57.533    16429.600    12777.211     3310.058        4.941        1.626      257.517       66.396        0.066      340.414       14.414      857.976
03/05/2014  23:17:00     -333.535       -5.063      -21.325      133.928      141.108       69.748    17936.735    19911.589     4864.756        7.721        2.136      333.573       65.019        0.038      340.427       14.439      858.038
03/05/2014  23:18:00     -393.098       -7.698      -18.752      169.753      115.758       70.210    28815.966    13399.978     4929.431       10.103        2.357      393.173       72.603        0.034      340.395       14.384      858.057
03/05/2014  23:19:00     -338.811     -141.990       -5.972      260.544      156.815       88.082    67883.433    24590.846     7758.478       11.759        5.012      367.361      104.005        0.080      340.364       14.333      858.081
03/05/2014  23:20:00     -240.409     -179.108       -2.157      134.266      145.204       67.920    18027.441    21084.079     4613.172        6.680        2.186      299.794       73.088        0.059      340.355       14.315      858.171
03/05/2014  23:21:00     -229.658        9.729      -15.185       70.138      109.930       45.008     4919.309    12084.606     2025.749        3.605        0.951      229.863       35.291        0.024      340.387       14.369      858.194
03/05/2014  23:22:00     -247.979      -20.304      -28.870      106.543      106.472       56.932    11351.508    11336.357     3241.239        4.433        1.296      248.809       64.729        0.068      340.354       14.312      858.200
03/05/2014  23:23:00     -428.335      -35.583      -23.443      128.270      138.740       55.077    16453.293    19248.861     3033.463       11.200        1.937      429.811       55.693        0.017      340.295       14.214      858.232
03/05/2014  23:24:00     -242.938      -95.946      -14.595      101.758      100.509       48.545    10354.747    10102.141     2356.639        4.562        1.141      261.198       45.058        0.030      340.270       14.171      858.317
03/05/2014  23:25:00     -370.450     -106.361      -10.998      155.508      122.752       66.383    24182.753    15068.060     4406.719        9.615        2.183      385.416       74.313        0.037      340.271       14.173      858.356
03/05/2014  23:26:00     -367.143      -46.118      -18.990      172.618      101.720       59.518    29796.909    10346.989     3542.446        9.048        2.184      370.028       62.518        0.029      340.263       14.160      858.358
03/05/2014  23:27:00     -231.569      -32.743      -10.554      129.108       94.230       65.327    16668.830     8879.333     4267.615        4.231        1.491      233.872       67.913        0.084      340.257       14.149      858.350
03/05/2014  23:28:00     -307.181        8.936      -23.085       84.866       76.683       46.875     7202.263     5880.345     2197.249        5.512        0.764      307.311       38.214        0.015      340.263       14.157      858.289
03/05/2014  23:29:00     -219.674     -131.859       -8.082       89.818       64.781       45.931     8067.306     4196.593     2109.619        4.004        0.719      256.210       50.033        0.038      340.197       14.045      858.226
03/05/2014  23:30:00     -214.259     -158.567      -16.222      110.190      111.269       52.375    12141.815    12380.775     2743.124        4.929        1.363      266.553       58.666        0.048      340.221       14.088      858.251
03/05/2014  23:31:00     -287.817     -211.936        0.563      132.424      110.989       72.505    17536.143    12318.595     5257.003        8.143        1.756      357.429       64.363        0.032      340.212       14.072      858.307
03/05/2014  23:32:00     -240.707     -274.286      -13.193      113.917      106.320       64.008    12977.102    11304.006     4097.006        8.086        1.419      364.928       53.345        0.021      340.210       14.069      858.518
03/05/2014  23:33:00     -105.270     -247.749       10.511      116.169      171.882       50.696    13495.269    29543.435     2570.097        5.908        2.280      269.186       56.482        0.044      340.206       14.062      858.676
03/05/2014  23:34:00     -231.446     -321.287       12.814      246.262      256.432       97.015    60645.064    65757.163     9411.852       14.636        6.791      395.971       96.039        0.059      340.319       14.254      858.684
03/05/2014  23:35:00     -189.039     -359.444       -5.925      169.460      212.376       98.457    28716.614    45103.602     9693.804       12.423        4.176      406.122       98.954        0.059      340.397       14.386      858.766
03/05/2014  23:36:00     -297.996     -325.634       -9.638      222.825      195.290      101.215    49650.964    38138.008    10244.496       14.647        4.902      441.406       92.206        0.044      340.332       14.277      858.787
03/05/2014  23:37:00     -445.111     -243.108       -9.100      211.368      177.825      103.459    44676.638    31621.894    10703.726       17.214        4.350      507.174       92.852        0.034      340.205       14.062      858.805
03/05/2014  23:38:00     -411.965     -222.044      -31.698      191.905      162.095       69.590    36827.369    26274.784     4842.703       14.397        3.397      467.994       63.390        0.018      340.147       13.963      858.863
03/05/2014  23:39:00     -237.042     -122.371        7.989      159.954      119.557       70.210    25585.386    14293.957     4929.470        5.801        2.240      266.765       82.470        0.096      340.046       13.794      858.923
03/05/2014  23:40:00     -338.587     -233.278      -15.978      194.727      183.454       92.720    37918.679    33655.409     8596.975       12.473        4.009      411.168       77.021        0.035      340.019       13.746      858.934
03/05/2014  23:41:00     -284.771     -154.172       19.705      207.782      139.034       99.461    43173.520    19330.380     9892.583        8.881        3.620      323.826      103.475        0.102      339.909       13.563      858.943
03/05/2014  23:42:00     -212.577     -186.525       34.873      236.615      213.172       96.714    55986.654    45442.251     9353.649        9.597        5.539      282.808      116.903        0.171      339.813       13.401      858.928
03/05/2014  23:43:00     -444.649     -235.481      -13.232      242.943      199.594       90.201    59021.405    39837.827     8136.200       18.015        5.350      503.154      104.102        0.043      339.744       13.286      858.866
03/05/2014  23:44:00     -358.243     -284.382       -5.803      204.894      168.385      100.108    41981.386    28353.468    10021.692       14.479        4.018      457.396      106.370        0.054      339.648       13.123      858.779
03/05/2014  23:45:00     -367.596     -126.294      -29.394      199.007      182.996       86.221    39603.593    33487.641     7434.032       11.622        4.026      388.686       92.750        0.057      339.630       13.090      858.678
03/05/2014  23:46:00     -338.354     -183.525      -25.450      132.328      122.454       65.556    17510.831    14995.067     4297.630        9.280        1.840      384.922       58.890        0.023      339.537       12.935      858.612
03/05/2014  23:47:00     -256.872     -148.648       -1.390      132.248      107.896       63.956    17489.447    11641.443     4090.393        6.065        1.661      296.782       63.524        0.046      339.491       12.856      858.688
03/05/2014  23:48:00     -162.799      -72.560       11.930      141.060      100.918       67.346    19898.058    10184.424     4535.547        3.326        1.731      178.238       71.474        0.161      339.485       12.849      858.773
03/05/2014  23:49:00     -246.984     -228.437      -16.073      114.794      126.526       67.711    13177.742    16008.863     4584.811        7.360        1.689      336.429       63.828        0.036      339.414       12.728      858.816
03/05/2014  23:50:00     -186.474     -207.021       -8.715      121.013      129.878       72.707    14644.036    16868.229     5286.317        5.725        1.840      278.623       73.513        0.070      339.347       12.615      858.764
03/05/2014  23:51:00     -111.648      -44.810       -1.085       74.315       82.885       43.475     5522.704     6869.939     1890.096        1.438        0.714      120.304       41.982        0.122      339.314       12.561      858.717
03/05/2014  23:52:00     -248.999      -65.637       -0.263      104.929       91.703       59.914    11010.044     8409.459     3589.716        4.466        1.150      257.505       55.159        0.046      339.325       12.576      858.765
03/05/2014  23:53:00     -227.566      -99.633       -6.412      107.024       97.837       46.025    11454.160     9572.025     2118.308        4.245        1.157      248.421       52.754        0.045      339.327       12.582      858.740
03/05/2014  23:54:00     -206.090      -47.734        1.087       75.207       99.367       49.418     5656.112     9873.867     2442.169        3.136        0.899      211.545       39.175        0.034      339.326       12.580      858.695
03/05/2014  23:55:00     -218.138        5.805      -18.304       54.785       63.769       29.581     3001.378     4066.429      875.011        2.795        0.397      218.215       19.157        0.008      339.252       12.455      858.622
03/05/2014  23:56:00     -212.792       -9.972      -15.360       66.812       65.516       37.060     4463.826     4292.301     1373.456        2.787        0.506      213.025       30.399        0.020      339.195       12.358      858.543
03/05/2014  23:57:00     -188.668      -53.786       -6.971       79.374       69.778       35.981     6300.263     4868.971     1294.662        2.550        0.623      196.185       19.252        0.010      339.340       12.603      858.519
03/05/2014  23:58:00     -221.158        5.339      -29.663       47.513       59.296       36.448     2257.445     3516.061     1328.434        2.846        0.355      221.222       21.956        0.010      339.243       12.440      858.561
03/05/2014  23:59:00     -260.328     -111.324      -17.495      101.157       74.301       46.732    10232.672     5520.657     2183.896        4.920        0.897      283.132       37.457        0.018      339.269       12.483      858.705
